<?xml version="1.0" encoding="UTF-8" standalone="no" ?>
<gpx xmlns="http://www.topografix.com/GPX/1/1" xmlns:xsi="http://www.w3.org/2001/XMLSchema-instance" xsi:schemaLocation="http://www.topografix.com/GPX/1/1 http://www.topografix.com/GPX/1/1/gpx.xsd" version="1.1" creator="VisuGPX - https://www.visugpx.com">
  <metadata>
    <name>rando vtt de Bouguenais 20/03/11</name>
    <desc><![CDATA[temps beau et frais
départ 8h00]]></desc>
  </metadata>
  <trk>
    <name><![CDATA[20_03_201107_59_22_history on GPSies.com]]></name>
    <trkseg>
      <trkpt lat="47.17365" lon="-1.60503">
        <ele>20</ele>
        <time>2011-03-20T06:59:22Z</time>
      </trkpt>
      <trkpt lat="47.17366" lon="-1.60503">
        <ele>20</ele>
        <time>2011-03-20T06:59:23Z</time>
      </trkpt>
      <trkpt lat="47.17367" lon="-1.60504">
        <ele>20</ele>
        <time>2011-03-20T06:59:24Z</time>
      </trkpt>
      <trkpt lat="47.1737" lon="-1.60514">
        <ele>20</ele>
        <time>2011-03-20T06:59:27Z</time>
      </trkpt>
      <trkpt lat="47.17373" lon="-1.60521">
        <ele>20</ele>
        <time>2011-03-20T06:59:29Z</time>
      </trkpt>
      <trkpt lat="47.17383" lon="-1.60519">
        <ele>20</ele>
        <time>2011-03-20T06:59:33Z</time>
      </trkpt>
      <trkpt lat="47.17396" lon="-1.60505">
        <ele>20</ele>
        <time>2011-03-20T06:59:38Z</time>
      </trkpt>
      <trkpt lat="47.17414" lon="-1.60486">
        <ele>20</ele>
        <time>2011-03-20T06:59:44Z</time>
      </trkpt>
      <trkpt lat="47.17441" lon="-1.60456">
        <ele>21</ele>
        <time>2011-03-20T06:59:52Z</time>
      </trkpt>
      <trkpt lat="47.1745" lon="-1.60444">
        <ele>21</ele>
        <time>2011-03-20T06:59:55Z</time>
      </trkpt>
      <trkpt lat="47.17468" lon="-1.60426">
        <ele>22</ele>
        <time>2011-03-20T07:00:00Z</time>
      </trkpt>
      <trkpt lat="47.17479" lon="-1.60418">
        <ele>22</ele>
        <time>2011-03-20T07:00:03Z</time>
      </trkpt>
      <trkpt lat="47.17488" lon="-1.60415">
        <ele>22</ele>
        <time>2011-03-20T07:00:05Z</time>
      </trkpt>
      <trkpt lat="47.17519" lon="-1.60398">
        <ele>21</ele>
        <time>2011-03-20T07:00:12Z</time>
      </trkpt>
      <trkpt lat="47.17541" lon="-1.6038">
        <ele>21</ele>
        <time>2011-03-20T07:00:17Z</time>
      </trkpt>
      <trkpt lat="47.17551" lon="-1.60369">
        <ele>21</ele>
        <time>2011-03-20T07:00:20Z</time>
      </trkpt>
      <trkpt lat="47.17566" lon="-1.60372">
        <ele>21</ele>
        <time>2011-03-20T07:00:24Z</time>
      </trkpt>
      <trkpt lat="47.17612" lon="-1.60406">
        <ele>20</ele>
        <time>2011-03-20T07:00:34Z</time>
      </trkpt>
      <trkpt lat="47.17616" lon="-1.6041">
        <ele>20</ele>
        <time>2011-03-20T07:00:35Z</time>
      </trkpt>
      <trkpt lat="47.17635" lon="-1.60442">
        <ele>18</ele>
        <time>2011-03-20T07:00:40Z</time>
      </trkpt>
      <trkpt lat="47.17652" lon="-1.60512">
        <ele>15</ele>
        <time>2011-03-20T07:00:47Z</time>
      </trkpt>
      <trkpt lat="47.17657" lon="-1.60534">
        <ele>15</ele>
        <time>2011-03-20T07:00:49Z</time>
      </trkpt>
      <trkpt lat="47.17677" lon="-1.60625">
        <ele>11</ele>
        <time>2011-03-20T07:00:57Z</time>
      </trkpt>
      <trkpt lat="47.17691" lon="-1.60639">
        <ele>10</ele>
        <time>2011-03-20T07:01:00Z</time>
      </trkpt>
      <trkpt lat="47.17697" lon="-1.60637">
        <ele>10</ele>
        <time>2011-03-20T07:01:01Z</time>
      </trkpt>
      <trkpt lat="47.1771" lon="-1.60634">
        <ele>10</ele>
        <time>2011-03-20T07:01:03Z</time>
      </trkpt>
      <trkpt lat="47.17736" lon="-1.60642">
        <ele>10</ele>
        <time>2011-03-20T07:01:07Z</time>
      </trkpt>
      <trkpt lat="47.17753" lon="-1.60652">
        <ele>9</ele>
        <time>2011-03-20T07:01:10Z</time>
      </trkpt>
      <trkpt lat="47.17769" lon="-1.60667">
        <ele>8</ele>
        <time>2011-03-20T07:01:14Z</time>
      </trkpt>
      <trkpt lat="47.17774" lon="-1.60679">
        <ele>8</ele>
        <time>2011-03-20T07:01:16Z</time>
      </trkpt>
      <trkpt lat="47.178" lon="-1.60721">
        <ele>8</ele>
        <time>2011-03-20T07:01:23Z</time>
      </trkpt>
      <trkpt lat="47.17804" lon="-1.60728">
        <ele>7</ele>
        <time>2011-03-20T07:01:24Z</time>
      </trkpt>
      <trkpt lat="47.17816" lon="-1.60745">
        <ele>7</ele>
        <time>2011-03-20T07:01:28Z</time>
      </trkpt>
      <trkpt lat="47.17806" lon="-1.60775">
        <ele>6</ele>
        <time>2011-03-20T07:01:33Z</time>
      </trkpt>
      <trkpt lat="47.17798" lon="-1.60798">
        <ele>6</ele>
        <time>2011-03-20T07:01:36Z</time>
      </trkpt>
      <trkpt lat="47.17777" lon="-1.60826">
        <ele>6</ele>
        <time>2011-03-20T07:01:41Z</time>
      </trkpt>
      <trkpt lat="47.17772" lon="-1.60828">
        <ele>6</ele>
        <time>2011-03-20T07:01:42Z</time>
      </trkpt>
      <trkpt lat="47.17757" lon="-1.60837">
        <ele>6</ele>
        <time>2011-03-20T07:01:45Z</time>
      </trkpt>
      <trkpt lat="47.17747" lon="-1.60859">
        <ele>5</ele>
        <time>2011-03-20T07:01:49Z</time>
      </trkpt>
      <trkpt lat="47.17749" lon="-1.60865">
        <ele>5</ele>
        <time>2011-03-20T07:01:50Z</time>
      </trkpt>
      <trkpt lat="47.17755" lon="-1.60887">
        <ele>5</ele>
        <time>2011-03-20T07:01:53Z</time>
      </trkpt>
      <trkpt lat="47.17761" lon="-1.60901">
        <ele>5</ele>
        <time>2011-03-20T07:01:55Z</time>
      </trkpt>
      <trkpt lat="47.17762" lon="-1.60918">
        <ele>5</ele>
        <time>2011-03-20T07:01:58Z</time>
      </trkpt>
      <trkpt lat="47.17754" lon="-1.60924">
        <ele>5</ele>
        <time>2011-03-20T07:02:00Z</time>
      </trkpt>
      <trkpt lat="47.17737" lon="-1.60937">
        <ele>5</ele>
        <time>2011-03-20T07:02:04Z</time>
      </trkpt>
      <trkpt lat="47.17711" lon="-1.60958">
        <ele>4</ele>
        <time>2011-03-20T07:02:09Z</time>
      </trkpt>
      <trkpt lat="47.17677" lon="-1.60962">
        <ele>4</ele>
        <time>2011-03-20T07:02:15Z</time>
      </trkpt>
      <trkpt lat="47.17667" lon="-1.60944">
        <ele>3</ele>
        <time>2011-03-20T07:02:18Z</time>
      </trkpt>
      <trkpt lat="47.17656" lon="-1.60919">
        <ele>3</ele>
        <time>2011-03-20T07:02:22Z</time>
      </trkpt>
      <trkpt lat="47.17651" lon="-1.60918">
        <ele>3</ele>
        <time>2011-03-20T07:02:23Z</time>
      </trkpt>
      <trkpt lat="47.17603" lon="-1.60907">
        <ele>4</ele>
        <time>2011-03-20T07:02:31Z</time>
      </trkpt>
      <trkpt lat="47.17556" lon="-1.60896">
        <ele>6</ele>
        <time>2011-03-20T07:02:39Z</time>
      </trkpt>
      <trkpt lat="47.17539" lon="-1.60893">
        <ele>6</ele>
        <time>2011-03-20T07:02:42Z</time>
      </trkpt>
      <trkpt lat="47.17522" lon="-1.60887">
        <ele>7</ele>
        <time>2011-03-20T07:02:45Z</time>
      </trkpt>
      <trkpt lat="47.17494" lon="-1.60881">
        <ele>8</ele>
        <time>2011-03-20T07:02:50Z</time>
      </trkpt>
      <trkpt lat="47.17483" lon="-1.60876">
        <ele>9</ele>
        <time>2011-03-20T07:02:52Z</time>
      </trkpt>
      <trkpt lat="47.1746" lon="-1.60878">
        <ele>8</ele>
        <time>2011-03-20T07:02:56Z</time>
      </trkpt>
      <trkpt lat="47.17425" lon="-1.60883">
        <ele>8</ele>
        <time>2011-03-20T07:03:02Z</time>
      </trkpt>
      <trkpt lat="47.17408" lon="-1.60899">
        <ele>8</ele>
        <time>2011-03-20T07:03:06Z</time>
      </trkpt>
      <trkpt lat="47.17404" lon="-1.60923">
        <ele>6</ele>
        <time>2011-03-20T07:03:09Z</time>
      </trkpt>
      <trkpt lat="47.17406" lon="-1.60948">
        <ele>5</ele>
        <time>2011-03-20T07:03:12Z</time>
      </trkpt>
      <trkpt lat="47.1741" lon="-1.60962">
        <ele>5</ele>
        <time>2011-03-20T07:03:14Z</time>
      </trkpt>
      <trkpt lat="47.17411" lon="-1.6098">
        <ele>4</ele>
        <time>2011-03-20T07:03:17Z</time>
      </trkpt>
      <trkpt lat="47.17412" lon="-1.60986">
        <ele>4</ele>
        <time>2011-03-20T07:03:18Z</time>
      </trkpt>
      <trkpt lat="47.17418" lon="-1.61031">
        <ele>5</ele>
        <time>2011-03-20T07:03:24Z</time>
      </trkpt>
      <trkpt lat="47.17426" lon="-1.6106">
        <ele>6</ele>
        <time>2011-03-20T07:03:28Z</time>
      </trkpt>
      <trkpt lat="47.17455" lon="-1.61128">
        <ele>8</ele>
        <time>2011-03-20T07:03:38Z</time>
      </trkpt>
      <trkpt lat="47.17484" lon="-1.61198">
        <ele>9</ele>
        <time>2011-03-20T07:03:49Z</time>
      </trkpt>
      <trkpt lat="47.17513" lon="-1.61261">
        <ele>12</ele>
        <time>2011-03-20T07:03:59Z</time>
      </trkpt>
      <trkpt lat="47.17524" lon="-1.61278">
        <ele>12</ele>
        <time>2011-03-20T07:04:02Z</time>
      </trkpt>
      <trkpt lat="47.17548" lon="-1.61292">
        <ele>12</ele>
        <time>2011-03-20T07:04:07Z</time>
      </trkpt>
      <trkpt lat="47.17569" lon="-1.61302">
        <ele>12</ele>
        <time>2011-03-20T07:04:11Z</time>
      </trkpt>
      <trkpt lat="47.17592" lon="-1.61304">
        <ele>10</ele>
        <time>2011-03-20T07:04:15Z</time>
      </trkpt>
      <trkpt lat="47.17653" lon="-1.61321">
        <ele>9</ele>
        <time>2011-03-20T07:04:25Z</time>
      </trkpt>
      <trkpt lat="47.17686" lon="-1.6133">
        <ele>10</ele>
        <time>2011-03-20T07:04:30Z</time>
      </trkpt>
      <trkpt lat="47.17701" lon="-1.6132">
        <ele>10</ele>
        <time>2011-03-20T07:04:33Z</time>
      </trkpt>
      <trkpt lat="47.17702" lon="-1.61309">
        <ele>10</ele>
        <time>2011-03-20T07:04:34Z</time>
      </trkpt>
      <trkpt lat="47.17714" lon="-1.61213">
        <ele>10</ele>
        <time>2011-03-20T07:04:45Z</time>
      </trkpt>
      <trkpt lat="47.17723" lon="-1.61121">
        <ele>8</ele>
        <time>2011-03-20T07:04:56Z</time>
      </trkpt>
      <trkpt lat="47.17724" lon="-1.61079">
        <ele>7</ele>
        <time>2011-03-20T07:05:01Z</time>
      </trkpt>
      <trkpt lat="47.17729" lon="-1.61045">
        <ele>6</ele>
        <time>2011-03-20T07:05:05Z</time>
      </trkpt>
      <trkpt lat="47.17736" lon="-1.6102">
        <ele>6</ele>
        <time>2011-03-20T07:05:08Z</time>
      </trkpt>
      <trkpt lat="47.17754" lon="-1.6099">
        <ele>5</ele>
        <time>2011-03-20T07:05:13Z</time>
      </trkpt>
      <trkpt lat="47.17775" lon="-1.60977">
        <ele>5</ele>
        <time>2011-03-20T07:05:17Z</time>
      </trkpt>
      <trkpt lat="47.17783" lon="-1.60969">
        <ele>5</ele>
        <time>2011-03-20T07:05:19Z</time>
      </trkpt>
      <trkpt lat="47.17812" lon="-1.60947">
        <ele>4</ele>
        <time>2011-03-20T07:05:25Z</time>
      </trkpt>
      <trkpt lat="47.17834" lon="-1.60953">
        <ele>4</ele>
        <time>2011-03-20T07:05:29Z</time>
      </trkpt>
      <trkpt lat="47.17842" lon="-1.60967">
        <ele>4</ele>
        <time>2011-03-20T07:05:31Z</time>
      </trkpt>
      <trkpt lat="47.17866" lon="-1.61023">
        <ele>4</ele>
        <time>2011-03-20T07:05:38Z</time>
      </trkpt>
      <trkpt lat="47.17889" lon="-1.61065">
        <ele>4</ele>
        <time>2011-03-20T07:05:44Z</time>
      </trkpt>
      <trkpt lat="47.17896" lon="-1.61098">
        <ele>5</ele>
        <time>2011-03-20T07:05:48Z</time>
      </trkpt>
      <trkpt lat="47.17893" lon="-1.61116">
        <ele>5</ele>
        <time>2011-03-20T07:05:50Z</time>
      </trkpt>
      <trkpt lat="47.17888" lon="-1.61168">
        <ele>7</ele>
        <time>2011-03-20T07:05:56Z</time>
      </trkpt>
      <trkpt lat="47.17889" lon="-1.61185">
        <ele>7</ele>
        <time>2011-03-20T07:05:58Z</time>
      </trkpt>
      <trkpt lat="47.17897" lon="-1.61215">
        <ele>8</ele>
        <time>2011-03-20T07:06:02Z</time>
      </trkpt>
      <trkpt lat="47.17901" lon="-1.6122">
        <ele>8</ele>
        <time>2011-03-20T07:06:03Z</time>
      </trkpt>
      <trkpt lat="47.17929" lon="-1.6127">
        <ele>7</ele>
        <time>2011-03-20T07:06:11Z</time>
      </trkpt>
      <trkpt lat="47.17932" lon="-1.61278">
        <ele>7</ele>
        <time>2011-03-20T07:06:12Z</time>
      </trkpt>
      <trkpt lat="47.1795" lon="-1.61298">
        <ele>8</ele>
        <time>2011-03-20T07:06:16Z</time>
      </trkpt>
      <trkpt lat="47.17961" lon="-1.61317">
        <ele>7</ele>
        <time>2011-03-20T07:06:19Z</time>
      </trkpt>
      <trkpt lat="47.17961" lon="-1.61325">
        <ele>7</ele>
        <time>2011-03-20T07:06:20Z</time>
      </trkpt>
      <trkpt lat="47.17961" lon="-1.61352">
        <ele>9</ele>
        <time>2011-03-20T07:06:23Z</time>
      </trkpt>
      <trkpt lat="47.17969" lon="-1.61405">
        <ele>9</ele>
        <time>2011-03-20T07:06:29Z</time>
      </trkpt>
      <trkpt lat="47.17982" lon="-1.61428">
        <ele>9</ele>
        <time>2011-03-20T07:06:33Z</time>
      </trkpt>
      <trkpt lat="47.18004" lon="-1.61435">
        <ele>6</ele>
        <time>2011-03-20T07:06:37Z</time>
      </trkpt>
      <trkpt lat="47.18014" lon="-1.61456">
        <ele>5</ele>
        <time>2011-03-20T07:06:40Z</time>
      </trkpt>
      <trkpt lat="47.18019" lon="-1.61471">
        <ele>6</ele>
        <time>2011-03-20T07:06:42Z</time>
      </trkpt>
      <trkpt lat="47.18016" lon="-1.61505">
        <ele>6</ele>
        <time>2011-03-20T07:06:46Z</time>
      </trkpt>
      <trkpt lat="47.18011" lon="-1.61559">
        <ele>7</ele>
        <time>2011-03-20T07:06:52Z</time>
      </trkpt>
      <trkpt lat="47.1801" lon="-1.61621">
        <ele>6</ele>
        <time>2011-03-20T07:06:59Z</time>
      </trkpt>
      <trkpt lat="47.18014" lon="-1.61651">
        <ele>5</ele>
        <time>2011-03-20T07:07:03Z</time>
      </trkpt>
      <trkpt lat="47.18003" lon="-1.61659">
        <ele>6</ele>
        <time>2011-03-20T07:07:07Z</time>
      </trkpt>
      <trkpt lat="47.17978" lon="-1.61664">
        <ele>9</ele>
        <time>2011-03-20T07:07:12Z</time>
      </trkpt>
      <trkpt lat="47.17963" lon="-1.61679">
        <ele>11</ele>
        <time>2011-03-20T07:07:16Z</time>
      </trkpt>
      <trkpt lat="47.17963" lon="-1.61686">
        <ele>11</ele>
        <time>2011-03-20T07:07:17Z</time>
      </trkpt>
      <trkpt lat="47.17968" lon="-1.61752">
        <ele>12</ele>
        <time>2011-03-20T07:07:25Z</time>
      </trkpt>
      <trkpt lat="47.17975" lon="-1.618">
        <ele>12</ele>
        <time>2011-03-20T07:07:31Z</time>
      </trkpt>
      <trkpt lat="47.17978" lon="-1.61817">
        <ele>12</ele>
        <time>2011-03-20T07:07:33Z</time>
      </trkpt>
      <trkpt lat="47.17994" lon="-1.61836">
        <ele>9</ele>
        <time>2011-03-20T07:07:37Z</time>
      </trkpt>
      <trkpt lat="47.18007" lon="-1.61852">
        <ele>7</ele>
        <time>2011-03-20T07:07:40Z</time>
      </trkpt>
      <trkpt lat="47.18011" lon="-1.61868">
        <ele>7</ele>
        <time>2011-03-20T07:07:42Z</time>
      </trkpt>
      <trkpt lat="47.18015" lon="-1.61908">
        <ele>8</ele>
        <time>2011-03-20T07:07:47Z</time>
      </trkpt>
      <trkpt lat="47.18027" lon="-1.61927">
        <ele>8</ele>
        <time>2011-03-20T07:07:51Z</time>
      </trkpt>
      <trkpt lat="47.18035" lon="-1.6193">
        <ele>7</ele>
        <time>2011-03-20T07:07:53Z</time>
      </trkpt>
      <trkpt lat="47.18042" lon="-1.61935">
        <ele>7</ele>
        <time>2011-03-20T07:07:55Z</time>
      </trkpt>
      <trkpt lat="47.18046" lon="-1.61968">
        <ele>7</ele>
        <time>2011-03-20T07:07:59Z</time>
      </trkpt>
      <trkpt lat="47.18063" lon="-1.62016">
        <ele>7</ele>
        <time>2011-03-20T07:08:05Z</time>
      </trkpt>
      <trkpt lat="47.18088" lon="-1.62054">
        <ele>5</ele>
        <time>2011-03-20T07:08:11Z</time>
      </trkpt>
      <trkpt lat="47.18098" lon="-1.62094">
        <ele>5</ele>
        <time>2011-03-20T07:08:16Z</time>
      </trkpt>
      <trkpt lat="47.18098" lon="-1.62111">
        <ele>5</ele>
        <time>2011-03-20T07:08:18Z</time>
      </trkpt>
      <trkpt lat="47.18096" lon="-1.62144">
        <ele>5</ele>
        <time>2011-03-20T07:08:22Z</time>
      </trkpt>
      <trkpt lat="47.18104" lon="-1.62182">
        <ele>5</ele>
        <time>2011-03-20T07:08:27Z</time>
      </trkpt>
      <trkpt lat="47.18116" lon="-1.622">
        <ele>5</ele>
        <time>2011-03-20T07:08:30Z</time>
      </trkpt>
      <trkpt lat="47.18118" lon="-1.62208">
        <ele>5</ele>
        <time>2011-03-20T07:08:31Z</time>
      </trkpt>
      <trkpt lat="47.18133" lon="-1.62241">
        <ele>5</ele>
        <time>2011-03-20T07:08:36Z</time>
      </trkpt>
      <trkpt lat="47.18147" lon="-1.62255">
        <ele>4</ele>
        <time>2011-03-20T07:08:39Z</time>
      </trkpt>
      <trkpt lat="47.18156" lon="-1.62284">
        <ele>4</ele>
        <time>2011-03-20T07:08:43Z</time>
      </trkpt>
      <trkpt lat="47.18154" lon="-1.62309">
        <ele>4</ele>
        <time>2011-03-20T07:08:46Z</time>
      </trkpt>
      <trkpt lat="47.18159" lon="-1.62343">
        <ele>4</ele>
        <time>2011-03-20T07:08:50Z</time>
      </trkpt>
      <trkpt lat="47.18163" lon="-1.62351">
        <ele>4</ele>
        <time>2011-03-20T07:08:51Z</time>
      </trkpt>
      <trkpt lat="47.18202" lon="-1.62429">
        <ele>3</ele>
        <time>2011-03-20T07:09:01Z</time>
      </trkpt>
      <trkpt lat="47.18212" lon="-1.62453">
        <ele>2</ele>
        <time>2011-03-20T07:09:04Z</time>
      </trkpt>
      <trkpt lat="47.18236" lon="-1.62483">
        <ele>2</ele>
        <time>2011-03-20T07:09:09Z</time>
      </trkpt>
      <trkpt lat="47.18259" lon="-1.62478">
        <ele>1</ele>
        <time>2011-03-20T07:09:13Z</time>
      </trkpt>
      <trkpt lat="47.18289" lon="-1.6246">
        <ele>2</ele>
        <time>2011-03-20T07:09:18Z</time>
      </trkpt>
      <trkpt lat="47.1831" lon="-1.62438">
        <ele>2</ele>
        <time>2011-03-20T07:09:22Z</time>
      </trkpt>
      <trkpt lat="47.18348" lon="-1.62387">
        <ele>3</ele>
        <time>2011-03-20T07:09:30Z</time>
      </trkpt>
      <trkpt lat="47.18353" lon="-1.62382">
        <ele>3</ele>
        <time>2011-03-20T07:09:31Z</time>
      </trkpt>
      <trkpt lat="47.18387" lon="-1.62367">
        <ele>3</ele>
        <time>2011-03-20T07:09:37Z</time>
      </trkpt>
      <trkpt lat="47.18407" lon="-1.62349">
        <ele>3</ele>
        <time>2011-03-20T07:09:41Z</time>
      </trkpt>
      <trkpt lat="47.1841" lon="-1.62342">
        <ele>4</ele>
        <time>2011-03-20T07:09:42Z</time>
      </trkpt>
      <trkpt lat="47.18421" lon="-1.62313">
        <ele>4</ele>
        <time>2011-03-20T07:09:46Z</time>
      </trkpt>
      <trkpt lat="47.18432" lon="-1.62308">
        <ele>3</ele>
        <time>2011-03-20T07:09:50Z</time>
      </trkpt>
      <trkpt lat="47.18439" lon="-1.62314">
        <ele>4</ele>
        <time>2011-03-20T07:09:52Z</time>
      </trkpt>
      <trkpt lat="47.18447" lon="-1.62338">
        <ele>4</ele>
        <time>2011-03-20T07:09:56Z</time>
      </trkpt>
      <trkpt lat="47.1845" lon="-1.62392">
        <ele>5</ele>
        <time>2011-03-20T07:10:03Z</time>
      </trkpt>
      <trkpt lat="47.18449" lon="-1.62439">
        <ele>4</ele>
        <time>2011-03-20T07:10:09Z</time>
      </trkpt>
      <trkpt lat="47.18449" lon="-1.62464">
        <ele>4</ele>
        <time>2011-03-20T07:10:12Z</time>
      </trkpt>
      <trkpt lat="47.18449" lon="-1.62518">
        <ele>3</ele>
        <time>2011-03-20T07:10:18Z</time>
      </trkpt>
      <trkpt lat="47.18447" lon="-1.62558">
        <ele>3</ele>
        <time>2011-03-20T07:10:23Z</time>
      </trkpt>
      <trkpt lat="47.18447" lon="-1.62566">
        <ele>3</ele>
        <time>2011-03-20T07:10:24Z</time>
      </trkpt>
      <trkpt lat="47.18445" lon="-1.62616">
        <ele>3</ele>
        <time>2011-03-20T07:10:30Z</time>
      </trkpt>
      <trkpt lat="47.18442" lon="-1.62657">
        <ele>3</ele>
        <time>2011-03-20T07:10:35Z</time>
      </trkpt>
      <trkpt lat="47.18441" lon="-1.62666">
        <ele>3</ele>
        <time>2011-03-20T07:10:36Z</time>
      </trkpt>
      <trkpt lat="47.18438" lon="-1.62693">
        <ele>3</ele>
        <time>2011-03-20T07:10:39Z</time>
      </trkpt>
      <trkpt lat="47.18426" lon="-1.62768">
        <ele>3</ele>
        <time>2011-03-20T07:10:47Z</time>
      </trkpt>
      <trkpt lat="47.18415" lon="-1.62822">
        <ele>3</ele>
        <time>2011-03-20T07:10:53Z</time>
      </trkpt>
      <trkpt lat="47.184" lon="-1.62892">
        <ele>3</ele>
        <time>2011-03-20T07:11:01Z</time>
      </trkpt>
      <trkpt lat="47.18398" lon="-1.62901">
        <ele>4</ele>
        <time>2011-03-20T07:11:02Z</time>
      </trkpt>
      <trkpt lat="47.18394" lon="-1.62936">
        <ele>4</ele>
        <time>2011-03-20T07:11:06Z</time>
      </trkpt>
      <trkpt lat="47.18398" lon="-1.62975">
        <ele>4</ele>
        <time>2011-03-20T07:11:11Z</time>
      </trkpt>
      <trkpt lat="47.18404" lon="-1.62989">
        <ele>4</ele>
        <time>2011-03-20T07:11:13Z</time>
      </trkpt>
      <trkpt lat="47.1842" lon="-1.6301">
        <ele>4</ele>
        <time>2011-03-20T07:11:17Z</time>
      </trkpt>
      <trkpt lat="47.18452" lon="-1.63044">
        <ele>3</ele>
        <time>2011-03-20T07:11:23Z</time>
      </trkpt>
      <trkpt lat="47.1847" lon="-1.63067">
        <ele>3</ele>
        <time>2011-03-20T07:11:27Z</time>
      </trkpt>
      <trkpt lat="47.185" lon="-1.63101">
        <ele>3</ele>
        <time>2011-03-20T07:11:33Z</time>
      </trkpt>
      <trkpt lat="47.18513" lon="-1.63118">
        <ele>3</ele>
        <time>2011-03-20T07:11:36Z</time>
      </trkpt>
      <trkpt lat="47.18532" lon="-1.63138">
        <ele>3</ele>
        <time>2011-03-20T07:11:40Z</time>
      </trkpt>
      <trkpt lat="47.1856" lon="-1.63173">
        <ele>3</ele>
        <time>2011-03-20T07:11:46Z</time>
      </trkpt>
      <trkpt lat="47.18564" lon="-1.63178">
        <ele>3</ele>
        <time>2011-03-20T07:11:47Z</time>
      </trkpt>
      <trkpt lat="47.18564" lon="-1.63197">
        <ele>3</ele>
        <time>2011-03-20T07:11:50Z</time>
      </trkpt>
      <trkpt lat="47.18561" lon="-1.63204">
        <ele>3</ele>
        <time>2011-03-20T07:11:51Z</time>
      </trkpt>
      <trkpt lat="47.18561" lon="-1.63234">
        <ele>3</ele>
        <time>2011-03-20T07:11:55Z</time>
      </trkpt>
      <trkpt lat="47.18578" lon="-1.63257">
        <ele>3</ele>
        <time>2011-03-20T07:11:59Z</time>
      </trkpt>
      <trkpt lat="47.18587" lon="-1.6327">
        <ele>3</ele>
        <time>2011-03-20T07:12:01Z</time>
      </trkpt>
      <trkpt lat="47.18619" lon="-1.63326">
        <ele>2</ele>
        <time>2011-03-20T07:12:09Z</time>
      </trkpt>
      <trkpt lat="47.18648" lon="-1.63386">
        <ele>4</ele>
        <time>2011-03-20T07:12:17Z</time>
      </trkpt>
      <trkpt lat="47.18664" lon="-1.63422">
        <ele>5</ele>
        <time>2011-03-20T07:12:22Z</time>
      </trkpt>
      <trkpt lat="47.18697" lon="-1.6347">
        <ele>5</ele>
        <time>2011-03-20T07:12:30Z</time>
      </trkpt>
      <trkpt lat="47.18729" lon="-1.63532">
        <ele>6</ele>
        <time>2011-03-20T07:12:39Z</time>
      </trkpt>
      <trkpt lat="47.18747" lon="-1.63578">
        <ele>6</ele>
        <time>2011-03-20T07:12:45Z</time>
      </trkpt>
      <trkpt lat="47.18775" lon="-1.63645">
        <ele>5</ele>
        <time>2011-03-20T07:12:54Z</time>
      </trkpt>
      <trkpt lat="47.18797" lon="-1.63706">
        <ele>4</ele>
        <time>2011-03-20T07:13:02Z</time>
      </trkpt>
      <trkpt lat="47.18825" lon="-1.63782">
        <ele>5</ele>
        <time>2011-03-20T07:13:12Z</time>
      </trkpt>
      <trkpt lat="47.18849" lon="-1.63839">
        <ele>5</ele>
        <time>2011-03-20T07:13:20Z</time>
      </trkpt>
      <trkpt lat="47.18887" lon="-1.63907">
        <ele>6</ele>
        <time>2011-03-20T07:13:30Z</time>
      </trkpt>
      <trkpt lat="47.18923" lon="-1.63965">
        <ele>4</ele>
        <time>2011-03-20T07:13:39Z</time>
      </trkpt>
      <trkpt lat="47.18953" lon="-1.64015">
        <ele>3</ele>
        <time>2011-03-20T07:13:47Z</time>
      </trkpt>
      <trkpt lat="47.18992" lon="-1.64082">
        <ele>3</ele>
        <time>2011-03-20T07:13:57Z</time>
      </trkpt>
      <trkpt lat="47.19024" lon="-1.64134">
        <ele>3</ele>
        <time>2011-03-20T07:14:05Z</time>
      </trkpt>
      <trkpt lat="47.19044" lon="-1.64167">
        <ele>2</ele>
        <time>2011-03-20T07:14:10Z</time>
      </trkpt>
      <trkpt lat="47.19052" lon="-1.64199">
        <ele>2</ele>
        <time>2011-03-20T07:14:14Z</time>
      </trkpt>
      <trkpt lat="47.19051" lon="-1.64208">
        <ele>2</ele>
        <time>2011-03-20T07:14:15Z</time>
      </trkpt>
      <trkpt lat="47.19039" lon="-1.64269">
        <ele>3</ele>
        <time>2011-03-20T07:14:22Z</time>
      </trkpt>
      <trkpt lat="47.19036" lon="-1.64312">
        <ele>3</ele>
        <time>2011-03-20T07:14:28Z</time>
      </trkpt>
      <trkpt lat="47.19048" lon="-1.64319">
        <ele>2</ele>
        <time>2011-03-20T07:14:33Z</time>
      </trkpt>
      <trkpt lat="47.19057" lon="-1.6432">
        <ele>2</ele>
        <time>2011-03-20T07:14:35Z</time>
      </trkpt>
      <trkpt lat="47.19067" lon="-1.64329">
        <ele>2</ele>
        <time>2011-03-20T07:14:38Z</time>
      </trkpt>
      <trkpt lat="47.19067" lon="-1.64343">
        <ele>2</ele>
        <time>2011-03-20T07:14:40Z</time>
      </trkpt>
      <trkpt lat="47.1906" lon="-1.644">
        <ele>3</ele>
        <time>2011-03-20T07:14:47Z</time>
      </trkpt>
      <trkpt lat="47.19055" lon="-1.64415">
        <ele>3</ele>
        <time>2011-03-20T07:14:49Z</time>
      </trkpt>
      <trkpt lat="47.19045" lon="-1.64428">
        <ele>4</ele>
        <time>2011-03-20T07:14:52Z</time>
      </trkpt>
      <trkpt lat="47.19039" lon="-1.64427">
        <ele>4</ele>
        <time>2011-03-20T07:14:53Z</time>
      </trkpt>
      <trkpt lat="47.19029" lon="-1.64426">
        <ele>4</ele>
        <time>2011-03-20T07:14:55Z</time>
      </trkpt>
      <trkpt lat="47.19011" lon="-1.64437">
        <ele>4</ele>
        <time>2011-03-20T07:14:59Z</time>
      </trkpt>
      <trkpt lat="47.19001" lon="-1.64465">
        <ele>4</ele>
        <time>2011-03-20T07:15:03Z</time>
      </trkpt>
      <trkpt lat="47.18999" lon="-1.64512">
        <ele>5</ele>
        <time>2011-03-20T07:15:09Z</time>
      </trkpt>
      <trkpt lat="47.19002" lon="-1.64543">
        <ele>5</ele>
        <time>2011-03-20T07:15:13Z</time>
      </trkpt>
      <trkpt lat="47.19003" lon="-1.64567">
        <ele>5</ele>
        <time>2011-03-20T07:15:16Z</time>
      </trkpt>
      <trkpt lat="47.19002" lon="-1.64591">
        <ele>5</ele>
        <time>2011-03-20T07:15:19Z</time>
      </trkpt>
      <trkpt lat="47.19006" lon="-1.64628">
        <ele>5</ele>
        <time>2011-03-20T07:15:24Z</time>
      </trkpt>
      <trkpt lat="47.19012" lon="-1.64664">
        <ele>5</ele>
        <time>2011-03-20T07:15:29Z</time>
      </trkpt>
      <trkpt lat="47.19007" lon="-1.64697">
        <ele>5</ele>
        <time>2011-03-20T07:15:33Z</time>
      </trkpt>
      <trkpt lat="47.19007" lon="-1.64706">
        <ele>5</ele>
        <time>2011-03-20T07:15:34Z</time>
      </trkpt>
      <trkpt lat="47.19008" lon="-1.64723">
        <ele>6</ele>
        <time>2011-03-20T07:15:36Z</time>
      </trkpt>
      <trkpt lat="47.19017" lon="-1.64752">
        <ele>6</ele>
        <time>2011-03-20T07:15:40Z</time>
      </trkpt>
      <trkpt lat="47.19023" lon="-1.64797">
        <ele>5</ele>
        <time>2011-03-20T07:15:46Z</time>
      </trkpt>
      <trkpt lat="47.19021" lon="-1.6482">
        <ele>5</ele>
        <time>2011-03-20T07:15:49Z</time>
      </trkpt>
      <trkpt lat="47.1902" lon="-1.64853">
        <ele>4</ele>
        <time>2011-03-20T07:15:53Z</time>
      </trkpt>
      <trkpt lat="47.19014" lon="-1.64909">
        <ele>4</ele>
        <time>2011-03-20T07:16:00Z</time>
      </trkpt>
      <trkpt lat="47.19012" lon="-1.64921">
        <ele>4</ele>
        <time>2011-03-20T07:16:02Z</time>
      </trkpt>
      <trkpt lat="47.19006" lon="-1.64947">
        <ele>3</ele>
        <time>2011-03-20T07:16:06Z</time>
      </trkpt>
      <trkpt lat="47.19002" lon="-1.64977">
        <ele>2</ele>
        <time>2011-03-20T07:16:10Z</time>
      </trkpt>
      <trkpt lat="47.19001" lon="-1.65002">
        <ele>1</ele>
        <time>2011-03-20T07:16:13Z</time>
      </trkpt>
      <trkpt lat="47.19" lon="-1.6501">
        <ele>1</ele>
        <time>2011-03-20T07:16:14Z</time>
      </trkpt>
      <trkpt lat="47.19008" lon="-1.65039">
        <ele>2</ele>
        <time>2011-03-20T07:16:18Z</time>
      </trkpt>
      <trkpt lat="47.19015" lon="-1.65051">
        <ele>2</ele>
        <time>2011-03-20T07:16:20Z</time>
      </trkpt>
      <trkpt lat="47.1902" lon="-1.6508">
        <ele>3</ele>
        <time>2011-03-20T07:16:24Z</time>
      </trkpt>
      <trkpt lat="47.19017" lon="-1.65119">
        <ele>4</ele>
        <time>2011-03-20T07:16:29Z</time>
      </trkpt>
      <trkpt lat="47.19007" lon="-1.65142">
        <ele>4</ele>
        <time>2011-03-20T07:16:33Z</time>
      </trkpt>
      <trkpt lat="47.19007" lon="-1.65162">
        <ele>4</ele>
        <time>2011-03-20T07:16:36Z</time>
      </trkpt>
      <trkpt lat="47.1901" lon="-1.65198">
        <ele>4</ele>
        <time>2011-03-20T07:16:41Z</time>
      </trkpt>
      <trkpt lat="47.19017" lon="-1.65235">
        <ele>3</ele>
        <time>2011-03-20T07:16:46Z</time>
      </trkpt>
      <trkpt lat="47.1902" lon="-1.65242">
        <ele>3</ele>
        <time>2011-03-20T07:16:47Z</time>
      </trkpt>
      <trkpt lat="47.19017" lon="-1.65261">
        <ele>3</ele>
        <time>2011-03-20T07:16:50Z</time>
      </trkpt>
      <trkpt lat="47.19" lon="-1.65272">
        <ele>3</ele>
        <time>2011-03-20T07:16:54Z</time>
      </trkpt>
      <trkpt lat="47.18983" lon="-1.65277">
        <ele>2</ele>
        <time>2011-03-20T07:16:58Z</time>
      </trkpt>
      <trkpt lat="47.18967" lon="-1.65274">
        <ele>2</ele>
        <time>2011-03-20T07:17:01Z</time>
      </trkpt>
      <trkpt lat="47.1896" lon="-1.65271">
        <ele>2</ele>
        <time>2011-03-20T07:17:02Z</time>
      </trkpt>
      <trkpt lat="47.1893" lon="-1.65258">
        <ele>2</ele>
        <time>2011-03-20T07:17:07Z</time>
      </trkpt>
      <trkpt lat="47.18906" lon="-1.65245">
        <ele>3</ele>
        <time>2011-03-20T07:17:11Z</time>
      </trkpt>
      <trkpt lat="47.18858" lon="-1.65216">
        <ele>4</ele>
        <time>2011-03-20T07:17:19Z</time>
      </trkpt>
      <trkpt lat="47.18836" lon="-1.65201">
        <ele>4</ele>
        <time>2011-03-20T07:17:23Z</time>
      </trkpt>
      <trkpt lat="47.18794" lon="-1.65165">
        <ele>4</ele>
        <time>2011-03-20T07:17:31Z</time>
      </trkpt>
      <trkpt lat="47.18776" lon="-1.65148">
        <ele>3</ele>
        <time>2011-03-20T07:17:35Z</time>
      </trkpt>
      <trkpt lat="47.18755" lon="-1.65135">
        <ele>3</ele>
        <time>2011-03-20T07:17:39Z</time>
      </trkpt>
      <trkpt lat="47.18712" lon="-1.65116">
        <ele>3</ele>
        <time>2011-03-20T07:17:46Z</time>
      </trkpt>
      <trkpt lat="47.18682" lon="-1.65104">
        <ele>2</ele>
        <time>2011-03-20T07:17:51Z</time>
      </trkpt>
      <trkpt lat="47.18633" lon="-1.65085">
        <ele>2</ele>
        <time>2011-03-20T07:17:59Z</time>
      </trkpt>
      <trkpt lat="47.18592" lon="-1.65069">
        <ele>3</ele>
        <time>2011-03-20T07:18:06Z</time>
      </trkpt>
      <trkpt lat="47.18577" lon="-1.65064">
        <ele>4</ele>
        <time>2011-03-20T07:18:09Z</time>
      </trkpt>
      <trkpt lat="47.18549" lon="-1.65042">
        <ele>4</ele>
        <time>2011-03-20T07:18:14Z</time>
      </trkpt>
      <trkpt lat="47.18539" lon="-1.65033">
        <ele>5</ele>
        <time>2011-03-20T07:18:16Z</time>
      </trkpt>
      <trkpt lat="47.18522" lon="-1.6502">
        <ele>5</ele>
        <time>2011-03-20T07:18:19Z</time>
      </trkpt>
      <trkpt lat="47.18497" lon="-1.64996">
        <ele>6</ele>
        <time>2011-03-20T07:18:24Z</time>
      </trkpt>
      <trkpt lat="47.18481" lon="-1.64981">
        <ele>6</ele>
        <time>2011-03-20T07:18:27Z</time>
      </trkpt>
      <trkpt lat="47.1847" lon="-1.64973">
        <ele>6</ele>
        <time>2011-03-20T07:18:29Z</time>
      </trkpt>
      <trkpt lat="47.18441" lon="-1.64941">
        <ele>7</ele>
        <time>2011-03-20T07:18:35Z</time>
      </trkpt>
      <trkpt lat="47.18437" lon="-1.64936">
        <ele>7</ele>
        <time>2011-03-20T07:18:36Z</time>
      </trkpt>
      <trkpt lat="47.18431" lon="-1.64917">
        <ele>7</ele>
        <time>2011-03-20T07:18:39Z</time>
      </trkpt>
      <trkpt lat="47.18425" lon="-1.64891">
        <ele>6</ele>
        <time>2011-03-20T07:18:43Z</time>
      </trkpt>
      <trkpt lat="47.1842" lon="-1.64873">
        <ele>5</ele>
        <time>2011-03-20T07:18:46Z</time>
      </trkpt>
      <trkpt lat="47.18424" lon="-1.64844">
        <ele>5</ele>
        <time>2011-03-20T07:18:50Z</time>
      </trkpt>
      <trkpt lat="47.18418" lon="-1.64823">
        <ele>4</ele>
        <time>2011-03-20T07:18:53Z</time>
      </trkpt>
      <trkpt lat="47.18403" lon="-1.64788">
        <ele>7</ele>
        <time>2011-03-20T07:18:58Z</time>
      </trkpt>
      <trkpt lat="47.18383" lon="-1.64756">
        <ele>7</ele>
        <time>2011-03-20T07:19:03Z</time>
      </trkpt>
      <trkpt lat="47.18378" lon="-1.64742">
        <ele>6</ele>
        <time>2011-03-20T07:19:05Z</time>
      </trkpt>
      <trkpt lat="47.18373" lon="-1.64726">
        <ele>6</ele>
        <time>2011-03-20T07:19:07Z</time>
      </trkpt>
      <trkpt lat="47.18353" lon="-1.64696">
        <ele>7</ele>
        <time>2011-03-20T07:19:12Z</time>
      </trkpt>
      <trkpt lat="47.18347" lon="-1.64694">
        <ele>7</ele>
        <time>2011-03-20T07:19:13Z</time>
      </trkpt>
      <trkpt lat="47.18322" lon="-1.64687">
        <ele>14</ele>
        <time>2011-03-20T07:19:18Z</time>
      </trkpt>
      <trkpt lat="47.18319" lon="-1.64682">
        <ele>14</ele>
        <time>2011-03-20T07:19:21Z</time>
      </trkpt>
      <trkpt lat="47.18317" lon="-1.64682">
        <ele>14</ele>
        <time>2011-03-20T07:19:27Z</time>
      </trkpt>
      <trkpt lat="47.18316" lon="-1.64687">
        <ele>15</ele>
        <time>2011-03-20T07:19:30Z</time>
      </trkpt>
      <trkpt lat="47.18317" lon="-1.64698">
        <ele>16</ele>
        <time>2011-03-20T07:19:37Z</time>
      </trkpt>
      <trkpt lat="47.18316" lon="-1.64697">
        <ele>16</ele>
        <time>2011-03-20T07:19:39Z</time>
      </trkpt>
      <trkpt lat="47.18311" lon="-1.64684">
        <ele>15</ele>
        <time>2011-03-20T07:19:48Z</time>
      </trkpt>
      <trkpt lat="47.1831" lon="-1.6468">
        <ele>15</ele>
        <time>2011-03-20T07:19:51Z</time>
      </trkpt>
      <trkpt lat="47.18306" lon="-1.6468">
        <ele>16</ele>
        <time>2011-03-20T07:19:56Z</time>
      </trkpt>
      <trkpt lat="47.18303" lon="-1.64686">
        <ele>17</ele>
        <time>2011-03-20T07:20:02Z</time>
      </trkpt>
      <trkpt lat="47.183" lon="-1.6469">
        <ele>17</ele>
        <time>2011-03-20T07:20:08Z</time>
      </trkpt>
      <trkpt lat="47.18297" lon="-1.64685">
        <ele>17</ele>
        <time>2011-03-20T07:20:14Z</time>
      </trkpt>
      <trkpt lat="47.18295" lon="-1.64685">
        <ele>18</ele>
        <time>2011-03-20T07:20:18Z</time>
      </trkpt>
      <trkpt lat="47.1829" lon="-1.64683">
        <ele>18</ele>
        <time>2011-03-20T07:20:25Z</time>
      </trkpt>
      <trkpt lat="47.18286" lon="-1.64681">
        <ele>19</ele>
        <time>2011-03-20T07:20:32Z</time>
      </trkpt>
      <trkpt lat="47.18279" lon="-1.64682">
        <ele>20</ele>
        <time>2011-03-20T07:20:41Z</time>
      </trkpt>
      <trkpt lat="47.18277" lon="-1.64681">
        <ele>20</ele>
        <time>2011-03-20T07:20:44Z</time>
      </trkpt>
      <trkpt lat="47.18276" lon="-1.6468">
        <ele>21</ele>
        <time>2011-03-20T07:20:47Z</time>
      </trkpt>
      <trkpt lat="47.18275" lon="-1.6468">
        <ele>21</ele>
        <time>2011-03-20T07:20:48Z</time>
      </trkpt>
      <trkpt lat="47.18269" lon="-1.64671">
        <ele>22</ele>
        <time>2011-03-20T07:20:52Z</time>
      </trkpt>
      <trkpt lat="47.18263" lon="-1.64648">
        <ele>22</ele>
        <time>2011-03-20T07:20:57Z</time>
      </trkpt>
      <trkpt lat="47.18264" lon="-1.64626">
        <ele>21</ele>
        <time>2011-03-20T07:21:01Z</time>
      </trkpt>
      <trkpt lat="47.18258" lon="-1.64592">
        <ele>24</ele>
        <time>2011-03-20T07:21:07Z</time>
      </trkpt>
      <trkpt lat="47.18256" lon="-1.64574">
        <ele>24</ele>
        <time>2011-03-20T07:21:10Z</time>
      </trkpt>
      <trkpt lat="47.18255" lon="-1.64533">
        <ele>20</ele>
        <time>2011-03-20T07:21:16Z</time>
      </trkpt>
      <trkpt lat="47.18247" lon="-1.64518">
        <ele>28</ele>
        <time>2011-03-20T07:21:19Z</time>
      </trkpt>
      <trkpt lat="47.1824" lon="-1.6451">
        <ele>28</ele>
        <time>2011-03-20T07:21:21Z</time>
      </trkpt>
      <trkpt lat="47.18236" lon="-1.64488">
        <ele>27</ele>
        <time>2011-03-20T07:21:25Z</time>
      </trkpt>
      <trkpt lat="47.18236" lon="-1.64481">
        <ele>27</ele>
        <time>2011-03-20T07:21:26Z</time>
      </trkpt>
      <trkpt lat="47.18236" lon="-1.64468">
        <ele>27</ele>
        <time>2011-03-20T07:21:28Z</time>
      </trkpt>
      <trkpt lat="47.18231" lon="-1.64441">
        <ele>26</ele>
        <time>2011-03-20T07:21:32Z</time>
      </trkpt>
      <trkpt lat="47.18228" lon="-1.64428">
        <ele>25</ele>
        <time>2011-03-20T07:21:34Z</time>
      </trkpt>
      <trkpt lat="47.18214" lon="-1.64398">
        <ele>24</ele>
        <time>2011-03-20T07:21:40Z</time>
      </trkpt>
      <trkpt lat="47.1822" lon="-1.64384">
        <ele>24</ele>
        <time>2011-03-20T07:21:45Z</time>
      </trkpt>
      <trkpt lat="47.1822" lon="-1.6438">
        <ele>24</ele>
        <time>2011-03-20T07:21:46Z</time>
      </trkpt>
      <trkpt lat="47.1822" lon="-1.6437">
        <ele>23</ele>
        <time>2011-03-20T07:21:49Z</time>
      </trkpt>
      <trkpt lat="47.18217" lon="-1.64359">
        <ele>23</ele>
        <time>2011-03-20T07:21:51Z</time>
      </trkpt>
      <trkpt lat="47.18207" lon="-1.64349">
        <ele>24</ele>
        <time>2011-03-20T07:21:55Z</time>
      </trkpt>
      <trkpt lat="47.18204" lon="-1.64349">
        <ele>25</ele>
        <time>2011-03-20T07:21:56Z</time>
      </trkpt>
      <trkpt lat="47.18196" lon="-1.64346">
        <ele>26</ele>
        <time>2011-03-20T07:21:59Z</time>
      </trkpt>
      <trkpt lat="47.18194" lon="-1.64343">
        <ele>26</ele>
        <time>2011-03-20T07:22:00Z</time>
      </trkpt>
      <trkpt lat="47.18185" lon="-1.64316">
        <ele>24</ele>
        <time>2011-03-20T07:22:05Z</time>
      </trkpt>
      <trkpt lat="47.1818" lon="-1.64295">
        <ele>23</ele>
        <time>2011-03-20T07:22:08Z</time>
      </trkpt>
      <trkpt lat="47.18165" lon="-1.64244">
        <ele>27</ele>
        <time>2011-03-20T07:22:15Z</time>
      </trkpt>
      <trkpt lat="47.18158" lon="-1.64223">
        <ele>27</ele>
        <time>2011-03-20T07:22:18Z</time>
      </trkpt>
      <trkpt lat="47.18154" lon="-1.64203">
        <ele>26</ele>
        <time>2011-03-20T07:22:21Z</time>
      </trkpt>
      <trkpt lat="47.18146" lon="-1.64166">
        <ele>22</ele>
        <time>2011-03-20T07:22:26Z</time>
      </trkpt>
      <trkpt lat="47.18144" lon="-1.64157">
        <ele>22</ele>
        <time>2011-03-20T07:22:27Z</time>
      </trkpt>
      <trkpt lat="47.1814" lon="-1.6414">
        <ele>21</ele>
        <time>2011-03-20T07:22:29Z</time>
      </trkpt>
      <trkpt lat="47.18137" lon="-1.64126">
        <ele>20</ele>
        <time>2011-03-20T07:22:31Z</time>
      </trkpt>
      <trkpt lat="47.18127" lon="-1.64111">
        <ele>20</ele>
        <time>2011-03-20T07:22:34Z</time>
      </trkpt>
      <trkpt lat="47.18112" lon="-1.64104">
        <ele>21</ele>
        <time>2011-03-20T07:22:37Z</time>
      </trkpt>
      <trkpt lat="47.18109" lon="-1.64101">
        <ele>21</ele>
        <time>2011-03-20T07:22:39Z</time>
      </trkpt>
      <trkpt lat="47.18108" lon="-1.64097">
        <ele>21</ele>
        <time>2011-03-20T07:22:40Z</time>
      </trkpt>
      <trkpt lat="47.18103" lon="-1.64074">
        <ele>18</ele>
        <time>2011-03-20T07:22:44Z</time>
      </trkpt>
      <trkpt lat="47.18096" lon="-1.64038">
        <ele>16</ele>
        <time>2011-03-20T07:22:50Z</time>
      </trkpt>
      <trkpt lat="47.18084" lon="-1.64007">
        <ele>18</ele>
        <time>2011-03-20T07:22:55Z</time>
      </trkpt>
      <trkpt lat="47.18071" lon="-1.63977">
        <ele>20</ele>
        <time>2011-03-20T07:23:00Z</time>
      </trkpt>
      <trkpt lat="47.18054" lon="-1.63928">
        <ele>19</ele>
        <time>2011-03-20T07:23:07Z</time>
      </trkpt>
      <trkpt lat="47.18039" lon="-1.63894">
        <ele>17</ele>
        <time>2011-03-20T07:23:12Z</time>
      </trkpt>
      <trkpt lat="47.18026" lon="-1.63867">
        <ele>17</ele>
        <time>2011-03-20T07:23:16Z</time>
      </trkpt>
      <trkpt lat="47.18001" lon="-1.63831">
        <ele>17</ele>
        <time>2011-03-20T07:23:22Z</time>
      </trkpt>
      <trkpt lat="47.17997" lon="-1.63826">
        <ele>18</ele>
        <time>2011-03-20T07:23:23Z</time>
      </trkpt>
      <trkpt lat="47.1799" lon="-1.63812">
        <ele>17</ele>
        <time>2011-03-20T07:23:25Z</time>
      </trkpt>
      <trkpt lat="47.1798" lon="-1.63779">
        <ele>15</ele>
        <time>2011-03-20T07:23:29Z</time>
      </trkpt>
      <trkpt lat="47.17978" lon="-1.63766">
        <ele>15</ele>
        <time>2011-03-20T07:23:31Z</time>
      </trkpt>
      <trkpt lat="47.17966" lon="-1.63732">
        <ele>11</ele>
        <time>2011-03-20T07:23:36Z</time>
      </trkpt>
      <trkpt lat="47.17963" lon="-1.63723">
        <ele>11</ele>
        <time>2011-03-20T07:23:37Z</time>
      </trkpt>
      <trkpt lat="47.17941" lon="-1.63678">
        <ele>11</ele>
        <time>2011-03-20T07:23:42Z</time>
      </trkpt>
      <trkpt lat="47.17925" lon="-1.63655">
        <ele>9</ele>
        <time>2011-03-20T07:23:45Z</time>
      </trkpt>
      <trkpt lat="47.179" lon="-1.63612">
        <ele>9</ele>
        <time>2011-03-20T07:23:50Z</time>
      </trkpt>
      <trkpt lat="47.17881" lon="-1.63572">
        <ele>8</ele>
        <time>2011-03-20T07:23:55Z</time>
      </trkpt>
      <trkpt lat="47.17876" lon="-1.63563">
        <ele>8</ele>
        <time>2011-03-20T07:23:56Z</time>
      </trkpt>
      <trkpt lat="47.17851" lon="-1.63526">
        <ele>8</ele>
        <time>2011-03-20T07:24:02Z</time>
      </trkpt>
      <trkpt lat="47.1785" lon="-1.63515">
        <ele>8</ele>
        <time>2011-03-20T07:24:07Z</time>
      </trkpt>
      <trkpt lat="47.17852" lon="-1.63503">
        <ele>8</ele>
        <time>2011-03-20T07:24:10Z</time>
      </trkpt>
      <trkpt lat="47.17855" lon="-1.63481">
        <ele>8</ele>
        <time>2011-03-20T07:24:14Z</time>
      </trkpt>
      <trkpt lat="47.17851" lon="-1.63466">
        <ele>8</ele>
        <time>2011-03-20T07:24:17Z</time>
      </trkpt>
      <trkpt lat="47.17842" lon="-1.63464">
        <ele>8</ele>
        <time>2011-03-20T07:24:19Z</time>
      </trkpt>
      <trkpt lat="47.1782" lon="-1.63459">
        <ele>10</ele>
        <time>2011-03-20T07:24:25Z</time>
      </trkpt>
      <trkpt lat="47.17804" lon="-1.63444">
        <ele>11</ele>
        <time>2011-03-20T07:24:30Z</time>
      </trkpt>
      <trkpt lat="47.17797" lon="-1.63436">
        <ele>11</ele>
        <time>2011-03-20T07:24:32Z</time>
      </trkpt>
      <trkpt lat="47.17766" lon="-1.63416">
        <ele>11</ele>
        <time>2011-03-20T07:24:40Z</time>
      </trkpt>
      <trkpt lat="47.17762" lon="-1.63415">
        <ele>11</ele>
        <time>2011-03-20T07:24:41Z</time>
      </trkpt>
      <trkpt lat="47.17754" lon="-1.63423">
        <ele>12</ele>
        <time>2011-03-20T07:24:45Z</time>
      </trkpt>
      <trkpt lat="47.17753" lon="-1.63425">
        <ele>12</ele>
        <time>2011-03-20T07:24:47Z</time>
      </trkpt>
      <trkpt lat="47.17749" lon="-1.63444">
        <ele>14</ele>
        <time>2011-03-20T07:24:52Z</time>
      </trkpt>
      <trkpt lat="47.17744" lon="-1.6347">
        <ele>15</ele>
        <time>2011-03-20T07:24:57Z</time>
      </trkpt>
      <trkpt lat="47.1773" lon="-1.63492">
        <ele>15</ele>
        <time>2011-03-20T07:25:02Z</time>
      </trkpt>
      <trkpt lat="47.17717" lon="-1.63501">
        <ele>17</ele>
        <time>2011-03-20T07:25:06Z</time>
      </trkpt>
      <trkpt lat="47.17709" lon="-1.63505">
        <ele>17</ele>
        <time>2011-03-20T07:25:11Z</time>
      </trkpt>
      <trkpt lat="47.17689" lon="-1.63521">
        <ele>18</ele>
        <time>2011-03-20T07:25:18Z</time>
      </trkpt>
      <trkpt lat="47.17686" lon="-1.63524">
        <ele>18</ele>
        <time>2011-03-20T07:25:19Z</time>
      </trkpt>
      <trkpt lat="47.1767" lon="-1.63548">
        <ele>20</ele>
        <time>2011-03-20T07:25:26Z</time>
      </trkpt>
      <trkpt lat="47.17666" lon="-1.63555">
        <ele>22</ele>
        <time>2011-03-20T07:25:28Z</time>
      </trkpt>
      <trkpt lat="47.17667" lon="-1.63563">
        <ele>21</ele>
        <time>2011-03-20T07:25:31Z</time>
      </trkpt>
      <trkpt lat="47.17669" lon="-1.63577">
        <ele>23</ele>
        <time>2011-03-20T07:25:35Z</time>
      </trkpt>
      <trkpt lat="47.17673" lon="-1.63586">
        <ele>23</ele>
        <time>2011-03-20T07:25:38Z</time>
      </trkpt>
      <trkpt lat="47.17679" lon="-1.63601">
        <ele>22</ele>
        <time>2011-03-20T07:25:42Z</time>
      </trkpt>
      <trkpt lat="47.17675" lon="-1.6362">
        <ele>21</ele>
        <time>2011-03-20T07:25:46Z</time>
      </trkpt>
      <trkpt lat="47.17672" lon="-1.63635">
        <ele>21</ele>
        <time>2011-03-20T07:25:49Z</time>
      </trkpt>
      <trkpt lat="47.17671" lon="-1.63647">
        <ele>22</ele>
        <time>2011-03-20T07:25:54Z</time>
      </trkpt>
      <trkpt lat="47.17672" lon="-1.63649">
        <ele>22</ele>
        <time>2011-03-20T07:25:57Z</time>
      </trkpt>
      <trkpt lat="47.17676" lon="-1.63652">
        <ele>22</ele>
        <time>2011-03-20T07:26:01Z</time>
      </trkpt>
      <trkpt lat="47.17677" lon="-1.63652">
        <ele>22</ele>
        <time>2011-03-20T07:26:02Z</time>
      </trkpt>
      <trkpt lat="47.17687" lon="-1.63663">
        <ele>22</ele>
        <time>2011-03-20T07:26:07Z</time>
      </trkpt>
      <trkpt lat="47.17688" lon="-1.63683">
        <ele>22</ele>
        <time>2011-03-20T07:26:11Z</time>
      </trkpt>
      <trkpt lat="47.17685" lon="-1.63697">
        <ele>22</ele>
        <time>2011-03-20T07:26:15Z</time>
      </trkpt>
      <trkpt lat="47.17687" lon="-1.63718">
        <ele>22</ele>
        <time>2011-03-20T07:26:19Z</time>
      </trkpt>
      <trkpt lat="47.17682" lon="-1.6373">
        <ele>22</ele>
        <time>2011-03-20T07:26:22Z</time>
      </trkpt>
      <trkpt lat="47.17677" lon="-1.63747">
        <ele>23</ele>
        <time>2011-03-20T07:26:26Z</time>
      </trkpt>
      <trkpt lat="47.17671" lon="-1.63756">
        <ele>23</ele>
        <time>2011-03-20T07:26:29Z</time>
      </trkpt>
      <trkpt lat="47.17658" lon="-1.63772">
        <ele>23</ele>
        <time>2011-03-20T07:26:34Z</time>
      </trkpt>
      <trkpt lat="47.17653" lon="-1.63777">
        <ele>23</ele>
        <time>2011-03-20T07:26:36Z</time>
      </trkpt>
      <trkpt lat="47.17644" lon="-1.63789">
        <ele>23</ele>
        <time>2011-03-20T07:26:40Z</time>
      </trkpt>
      <trkpt lat="47.17636" lon="-1.63805">
        <ele>22</ele>
        <time>2011-03-20T07:26:45Z</time>
      </trkpt>
      <trkpt lat="47.17626" lon="-1.63805">
        <ele>23</ele>
        <time>2011-03-20T07:26:49Z</time>
      </trkpt>
      <trkpt lat="47.17622" lon="-1.63803">
        <ele>23</ele>
        <time>2011-03-20T07:26:51Z</time>
      </trkpt>
      <trkpt lat="47.17613" lon="-1.63797">
        <ele>23</ele>
        <time>2011-03-20T07:26:56Z</time>
      </trkpt>
      <trkpt lat="47.17611" lon="-1.63792">
        <ele>23</ele>
        <time>2011-03-20T07:26:59Z</time>
      </trkpt>
      <trkpt lat="47.1761" lon="-1.63789">
        <ele>23</ele>
        <time>2011-03-20T07:27:00Z</time>
      </trkpt>
      <trkpt lat="47.17601" lon="-1.63772">
        <ele>24</ele>
        <time>2011-03-20T07:27:07Z</time>
      </trkpt>
      <trkpt lat="47.17587" lon="-1.63753">
        <ele>26</ele>
        <time>2011-03-20T07:27:14Z</time>
      </trkpt>
      <trkpt lat="47.17577" lon="-1.63739">
        <ele>26</ele>
        <time>2011-03-20T07:27:19Z</time>
      </trkpt>
      <trkpt lat="47.17572" lon="-1.63736">
        <ele>26</ele>
        <time>2011-03-20T07:27:21Z</time>
      </trkpt>
      <trkpt lat="47.17561" lon="-1.63748">
        <ele>26</ele>
        <time>2011-03-20T07:27:26Z</time>
      </trkpt>
      <trkpt lat="47.17554" lon="-1.63757">
        <ele>25</ele>
        <time>2011-03-20T07:27:28Z</time>
      </trkpt>
      <trkpt lat="47.17546" lon="-1.63765">
        <ele>25</ele>
        <time>2011-03-20T07:27:30Z</time>
      </trkpt>
      <trkpt lat="47.1752" lon="-1.63796">
        <ele>25</ele>
        <time>2011-03-20T07:27:37Z</time>
      </trkpt>
      <trkpt lat="47.17509" lon="-1.63808">
        <ele>25</ele>
        <time>2011-03-20T07:27:40Z</time>
      </trkpt>
      <trkpt lat="47.1749" lon="-1.63836">
        <ele>25</ele>
        <time>2011-03-20T07:27:46Z</time>
      </trkpt>
      <trkpt lat="47.17483" lon="-1.6385">
        <ele>24</ele>
        <time>2011-03-20T07:27:49Z</time>
      </trkpt>
      <trkpt lat="47.17465" lon="-1.63893">
        <ele>24</ele>
        <time>2011-03-20T07:27:56Z</time>
      </trkpt>
      <trkpt lat="47.17463" lon="-1.63917">
        <ele>23</ele>
        <time>2011-03-20T07:28:00Z</time>
      </trkpt>
      <trkpt lat="47.17463" lon="-1.63939">
        <ele>23</ele>
        <time>2011-03-20T07:28:03Z</time>
      </trkpt>
      <trkpt lat="47.17462" lon="-1.63946">
        <ele>23</ele>
        <time>2011-03-20T07:28:04Z</time>
      </trkpt>
      <trkpt lat="47.17463" lon="-1.63971">
        <ele>23</ele>
        <time>2011-03-20T07:28:07Z</time>
      </trkpt>
      <trkpt lat="47.1747" lon="-1.64016">
        <ele>24</ele>
        <time>2011-03-20T07:28:12Z</time>
      </trkpt>
      <trkpt lat="47.17473" lon="-1.64022">
        <ele>24</ele>
        <time>2011-03-20T07:28:13Z</time>
      </trkpt>
      <trkpt lat="47.17478" lon="-1.64033">
        <ele>25</ele>
        <time>2011-03-20T07:28:15Z</time>
      </trkpt>
      <trkpt lat="47.17482" lon="-1.64057">
        <ele>25</ele>
        <time>2011-03-20T07:28:19Z</time>
      </trkpt>
      <trkpt lat="47.17481" lon="-1.64069">
        <ele>26</ele>
        <time>2011-03-20T07:28:21Z</time>
      </trkpt>
      <trkpt lat="47.17486" lon="-1.64097">
        <ele>28</ele>
        <time>2011-03-20T07:28:26Z</time>
      </trkpt>
      <trkpt lat="47.17489" lon="-1.64101">
        <ele>28</ele>
        <time>2011-03-20T07:28:27Z</time>
      </trkpt>
      <trkpt lat="47.17508" lon="-1.64119">
        <ele>29</ele>
        <time>2011-03-20T07:28:33Z</time>
      </trkpt>
      <trkpt lat="47.17528" lon="-1.64134">
        <ele>30</ele>
        <time>2011-03-20T07:28:39Z</time>
      </trkpt>
      <trkpt lat="47.17541" lon="-1.64148">
        <ele>30</ele>
        <time>2011-03-20T07:28:44Z</time>
      </trkpt>
      <trkpt lat="47.17555" lon="-1.64165">
        <ele>31</ele>
        <time>2011-03-20T07:28:49Z</time>
      </trkpt>
      <trkpt lat="47.17573" lon="-1.64187">
        <ele>33</ele>
        <time>2011-03-20T07:28:55Z</time>
      </trkpt>
      <trkpt lat="47.17589" lon="-1.64209">
        <ele>34</ele>
        <time>2011-03-20T07:29:01Z</time>
      </trkpt>
      <trkpt lat="47.17609" lon="-1.64232">
        <ele>34</ele>
        <time>2011-03-20T07:29:07Z</time>
      </trkpt>
      <trkpt lat="47.1762" lon="-1.64252">
        <ele>36</ele>
        <time>2011-03-20T07:29:11Z</time>
      </trkpt>
      <trkpt lat="47.17631" lon="-1.64275">
        <ele>36</ele>
        <time>2011-03-20T07:29:16Z</time>
      </trkpt>
      <trkpt lat="47.17643" lon="-1.64305">
        <ele>36</ele>
        <time>2011-03-20T07:29:22Z</time>
      </trkpt>
      <trkpt lat="47.1765" lon="-1.6434">
        <ele>37</ele>
        <time>2011-03-20T07:29:28Z</time>
      </trkpt>
      <trkpt lat="47.17651" lon="-1.64363">
        <ele>38</ele>
        <time>2011-03-20T07:29:32Z</time>
      </trkpt>
      <trkpt lat="47.17652" lon="-1.64381">
        <ele>38</ele>
        <time>2011-03-20T07:29:35Z</time>
      </trkpt>
      <trkpt lat="47.17656" lon="-1.64413">
        <ele>39</ele>
        <time>2011-03-20T07:29:40Z</time>
      </trkpt>
      <trkpt lat="47.17656" lon="-1.64426">
        <ele>39</ele>
        <time>2011-03-20T07:29:42Z</time>
      </trkpt>
      <trkpt lat="47.17666" lon="-1.64446">
        <ele>38</ele>
        <time>2011-03-20T07:29:46Z</time>
      </trkpt>
      <trkpt lat="47.17668" lon="-1.64452">
        <ele>37</ele>
        <time>2011-03-20T07:29:47Z</time>
      </trkpt>
      <trkpt lat="47.17682" lon="-1.64505">
        <ele>35</ele>
        <time>2011-03-20T07:29:55Z</time>
      </trkpt>
      <trkpt lat="47.17694" lon="-1.64551">
        <ele>35</ele>
        <time>2011-03-20T07:30:02Z</time>
      </trkpt>
      <trkpt lat="47.17704" lon="-1.64575">
        <ele>35</ele>
        <time>2011-03-20T07:30:06Z</time>
      </trkpt>
      <trkpt lat="47.17716" lon="-1.64614">
        <ele>36</ele>
        <time>2011-03-20T07:30:12Z</time>
      </trkpt>
      <trkpt lat="47.17726" lon="-1.64646">
        <ele>37</ele>
        <time>2011-03-20T07:30:17Z</time>
      </trkpt>
      <trkpt lat="47.17743" lon="-1.64682">
        <ele>38</ele>
        <time>2011-03-20T07:30:23Z</time>
      </trkpt>
      <trkpt lat="47.17765" lon="-1.64731">
        <ele>38</ele>
        <time>2011-03-20T07:30:31Z</time>
      </trkpt>
      <trkpt lat="47.17783" lon="-1.64777">
        <ele>38</ele>
        <time>2011-03-20T07:30:38Z</time>
      </trkpt>
      <trkpt lat="47.17809" lon="-1.64823">
        <ele>37</ele>
        <time>2011-03-20T07:30:46Z</time>
      </trkpt>
      <trkpt lat="47.17812" lon="-1.64828">
        <ele>37</ele>
        <time>2011-03-20T07:30:47Z</time>
      </trkpt>
      <trkpt lat="47.17816" lon="-1.64855">
        <ele>37</ele>
        <time>2011-03-20T07:30:51Z</time>
      </trkpt>
      <trkpt lat="47.17813" lon="-1.64862">
        <ele>37</ele>
        <time>2011-03-20T07:30:52Z</time>
      </trkpt>
      <trkpt lat="47.17773" lon="-1.64928">
        <ele>37</ele>
        <time>2011-03-20T07:31:03Z</time>
      </trkpt>
      <trkpt lat="47.17732" lon="-1.64982">
        <ele>38</ele>
        <time>2011-03-20T07:31:13Z</time>
      </trkpt>
      <trkpt lat="47.17682" lon="-1.65046">
        <ele>39</ele>
        <time>2011-03-20T07:31:25Z</time>
      </trkpt>
      <trkpt lat="47.17653" lon="-1.65095">
        <ele>38</ele>
        <time>2011-03-20T07:31:33Z</time>
      </trkpt>
      <trkpt lat="47.17621" lon="-1.6515">
        <ele>37</ele>
        <time>2011-03-20T07:31:42Z</time>
      </trkpt>
      <trkpt lat="47.1761" lon="-1.65175">
        <ele>36</ele>
        <time>2011-03-20T07:31:46Z</time>
      </trkpt>
      <trkpt lat="47.17604" lon="-1.65186">
        <ele>36</ele>
        <time>2011-03-20T07:31:51Z</time>
      </trkpt>
      <trkpt lat="47.17595" lon="-1.65209">
        <ele>36</ele>
        <time>2011-03-20T07:31:55Z</time>
      </trkpt>
      <trkpt lat="47.17588" lon="-1.65221">
        <ele>35</ele>
        <time>2011-03-20T07:31:57Z</time>
      </trkpt>
      <trkpt lat="47.17567" lon="-1.65257">
        <ele>33</ele>
        <time>2011-03-20T07:32:02Z</time>
      </trkpt>
      <trkpt lat="47.17557" lon="-1.65272">
        <ele>33</ele>
        <time>2011-03-20T07:32:04Z</time>
      </trkpt>
      <trkpt lat="47.17527" lon="-1.65304">
        <ele>33</ele>
        <time>2011-03-20T07:32:09Z</time>
      </trkpt>
      <trkpt lat="47.17503" lon="-1.65327">
        <ele>33</ele>
        <time>2011-03-20T07:32:13Z</time>
      </trkpt>
      <trkpt lat="47.17499" lon="-1.65351">
        <ele>32</ele>
        <time>2011-03-20T07:32:17Z</time>
      </trkpt>
      <trkpt lat="47.17504" lon="-1.65354">
        <ele>33</ele>
        <time>2011-03-20T07:32:18Z</time>
      </trkpt>
      <trkpt lat="47.17527" lon="-1.65389">
        <ele>32</ele>
        <time>2011-03-20T07:32:24Z</time>
      </trkpt>
      <trkpt lat="47.17529" lon="-1.65397">
        <ele>32</ele>
        <time>2011-03-20T07:32:25Z</time>
      </trkpt>
      <trkpt lat="47.17534" lon="-1.65444">
        <ele>32</ele>
        <time>2011-03-20T07:32:31Z</time>
      </trkpt>
      <trkpt lat="47.17532" lon="-1.65492">
        <ele>32</ele>
        <time>2011-03-20T07:32:37Z</time>
      </trkpt>
      <trkpt lat="47.17536" lon="-1.65548">
        <ele>32</ele>
        <time>2011-03-20T07:32:44Z</time>
      </trkpt>
      <trkpt lat="47.17532" lon="-1.65574">
        <ele>32</ele>
        <time>2011-03-20T07:32:48Z</time>
      </trkpt>
      <trkpt lat="47.17515" lon="-1.65584">
        <ele>32</ele>
        <time>2011-03-20T07:32:51Z</time>
      </trkpt>
      <trkpt lat="47.17492" lon="-1.65609">
        <ele>31</ele>
        <time>2011-03-20T07:32:56Z</time>
      </trkpt>
      <trkpt lat="47.17467" lon="-1.65656">
        <ele>30</ele>
        <time>2011-03-20T07:33:03Z</time>
      </trkpt>
      <trkpt lat="47.17449" lon="-1.65695">
        <ele>30</ele>
        <time>2011-03-20T07:33:08Z</time>
      </trkpt>
      <trkpt lat="47.1745" lon="-1.6572">
        <ele>30</ele>
        <time>2011-03-20T07:33:11Z</time>
      </trkpt>
      <trkpt lat="47.17464" lon="-1.65737">
        <ele>30</ele>
        <time>2011-03-20T07:33:14Z</time>
      </trkpt>
      <trkpt lat="47.17475" lon="-1.65745">
        <ele>31</ele>
        <time>2011-03-20T07:33:16Z</time>
      </trkpt>
      <trkpt lat="47.17505" lon="-1.65756">
        <ele>31</ele>
        <time>2011-03-20T07:33:21Z</time>
      </trkpt>
      <trkpt lat="47.17512" lon="-1.6577">
        <ele>31</ele>
        <time>2011-03-20T07:33:24Z</time>
      </trkpt>
      <trkpt lat="47.17505" lon="-1.65786">
        <ele>31</ele>
        <time>2011-03-20T07:33:27Z</time>
      </trkpt>
      <trkpt lat="47.17505" lon="-1.65795">
        <ele>31</ele>
        <time>2011-03-20T07:33:29Z</time>
      </trkpt>
      <trkpt lat="47.17511" lon="-1.65799">
        <ele>31</ele>
        <time>2011-03-20T07:33:31Z</time>
      </trkpt>
      <trkpt lat="47.17534" lon="-1.65795">
        <ele>32</ele>
        <time>2011-03-20T07:33:36Z</time>
      </trkpt>
      <trkpt lat="47.17538" lon="-1.6579">
        <ele>32</ele>
        <time>2011-03-20T07:33:37Z</time>
      </trkpt>
      <trkpt lat="47.17545" lon="-1.6578">
        <ele>32</ele>
        <time>2011-03-20T07:33:39Z</time>
      </trkpt>
      <trkpt lat="47.17559" lon="-1.65782">
        <ele>32</ele>
        <time>2011-03-20T07:33:43Z</time>
      </trkpt>
      <trkpt lat="47.17583" lon="-1.65822">
        <ele>33</ele>
        <time>2011-03-20T07:33:50Z</time>
      </trkpt>
      <trkpt lat="47.17606" lon="-1.6587">
        <ele>33</ele>
        <time>2011-03-20T07:33:57Z</time>
      </trkpt>
      <trkpt lat="47.17627" lon="-1.65922">
        <ele>32</ele>
        <time>2011-03-20T07:34:04Z</time>
      </trkpt>
      <trkpt lat="47.1765" lon="-1.65955">
        <ele>32</ele>
        <time>2011-03-20T07:34:10Z</time>
      </trkpt>
      <trkpt lat="47.17662" lon="-1.65983">
        <ele>33</ele>
        <time>2011-03-20T07:34:14Z</time>
      </trkpt>
      <trkpt lat="47.1767" lon="-1.66039">
        <ele>33</ele>
        <time>2011-03-20T07:34:21Z</time>
      </trkpt>
      <trkpt lat="47.17675" lon="-1.66083">
        <ele>32</ele>
        <time>2011-03-20T07:34:26Z</time>
      </trkpt>
      <trkpt lat="47.17687" lon="-1.6616">
        <ele>33</ele>
        <time>2011-03-20T07:34:35Z</time>
      </trkpt>
      <trkpt lat="47.17697" lon="-1.66229">
        <ele>34</ele>
        <time>2011-03-20T07:34:43Z</time>
      </trkpt>
      <trkpt lat="47.177" lon="-1.66245">
        <ele>34</ele>
        <time>2011-03-20T07:34:45Z</time>
      </trkpt>
      <trkpt lat="47.1771" lon="-1.66318">
        <ele>35</ele>
        <time>2011-03-20T07:34:53Z</time>
      </trkpt>
      <trkpt lat="47.17715" lon="-1.66345">
        <ele>36</ele>
        <time>2011-03-20T07:34:56Z</time>
      </trkpt>
      <trkpt lat="47.17717" lon="-1.66363">
        <ele>36</ele>
        <time>2011-03-20T07:34:58Z</time>
      </trkpt>
      <trkpt lat="47.17728" lon="-1.66414">
        <ele>37</ele>
        <time>2011-03-20T07:35:04Z</time>
      </trkpt>
      <trkpt lat="47.17735" lon="-1.66439">
        <ele>38</ele>
        <time>2011-03-20T07:35:07Z</time>
      </trkpt>
      <trkpt lat="47.17742" lon="-1.66471">
        <ele>38</ele>
        <time>2011-03-20T07:35:11Z</time>
      </trkpt>
      <trkpt lat="47.17757" lon="-1.66525">
        <ele>37</ele>
        <time>2011-03-20T07:35:18Z</time>
      </trkpt>
      <trkpt lat="47.1777" lon="-1.6657">
        <ele>36</ele>
        <time>2011-03-20T07:35:24Z</time>
      </trkpt>
      <trkpt lat="47.17774" lon="-1.66583">
        <ele>36</ele>
        <time>2011-03-20T07:35:26Z</time>
      </trkpt>
      <trkpt lat="47.17781" lon="-1.66604">
        <ele>35</ele>
        <time>2011-03-20T07:35:29Z</time>
      </trkpt>
      <trkpt lat="47.17795" lon="-1.66651">
        <ele>35</ele>
        <time>2011-03-20T07:35:35Z</time>
      </trkpt>
      <trkpt lat="47.17809" lon="-1.66702">
        <ele>35</ele>
        <time>2011-03-20T07:35:42Z</time>
      </trkpt>
      <trkpt lat="47.17826" lon="-1.66716">
        <ele>35</ele>
        <time>2011-03-20T07:35:46Z</time>
      </trkpt>
      <trkpt lat="47.17836" lon="-1.66711">
        <ele>37</ele>
        <time>2011-03-20T07:35:48Z</time>
      </trkpt>
      <trkpt lat="47.17869" lon="-1.66687">
        <ele>38</ele>
        <time>2011-03-20T07:35:55Z</time>
      </trkpt>
      <trkpt lat="47.179" lon="-1.66664">
        <ele>38</ele>
        <time>2011-03-20T07:36:01Z</time>
      </trkpt>
      <trkpt lat="47.17911" lon="-1.66658">
        <ele>38</ele>
        <time>2011-03-20T07:36:03Z</time>
      </trkpt>
      <trkpt lat="47.1795" lon="-1.66643">
        <ele>38</ele>
        <time>2011-03-20T07:36:10Z</time>
      </trkpt>
      <trkpt lat="47.17983" lon="-1.66632">
        <ele>38</ele>
        <time>2011-03-20T07:36:16Z</time>
      </trkpt>
      <trkpt lat="47.18011" lon="-1.66624">
        <ele>38</ele>
        <time>2011-03-20T07:36:21Z</time>
      </trkpt>
      <trkpt lat="47.18045" lon="-1.66607">
        <ele>38</ele>
        <time>2011-03-20T07:36:27Z</time>
      </trkpt>
      <trkpt lat="47.18079" lon="-1.66588">
        <ele>39</ele>
        <time>2011-03-20T07:36:33Z</time>
      </trkpt>
      <trkpt lat="47.18112" lon="-1.66571">
        <ele>39</ele>
        <time>2011-03-20T07:36:39Z</time>
      </trkpt>
      <trkpt lat="47.18132" lon="-1.66559">
        <ele>39</ele>
        <time>2011-03-20T07:36:43Z</time>
      </trkpt>
      <trkpt lat="47.18174" lon="-1.66537">
        <ele>39</ele>
        <time>2011-03-20T07:36:51Z</time>
      </trkpt>
      <trkpt lat="47.18222" lon="-1.66519">
        <ele>39</ele>
        <time>2011-03-20T07:37:00Z</time>
      </trkpt>
      <trkpt lat="47.18228" lon="-1.66517">
        <ele>39</ele>
        <time>2011-03-20T07:37:01Z</time>
      </trkpt>
      <trkpt lat="47.1827" lon="-1.66494">
        <ele>39</ele>
        <time>2011-03-20T07:37:10Z</time>
      </trkpt>
      <trkpt lat="47.18279" lon="-1.66489">
        <ele>39</ele>
        <time>2011-03-20T07:37:12Z</time>
      </trkpt>
      <trkpt lat="47.18279" lon="-1.66475">
        <ele>39</ele>
        <time>2011-03-20T07:37:16Z</time>
      </trkpt>
      <trkpt lat="47.18275" lon="-1.66473">
        <ele>39</ele>
        <time>2011-03-20T07:37:17Z</time>
      </trkpt>
      <trkpt lat="47.1826" lon="-1.66465">
        <ele>39</ele>
        <time>2011-03-20T07:37:20Z</time>
      </trkpt>
      <trkpt lat="47.18226" lon="-1.66445">
        <ele>40</ele>
        <time>2011-03-20T07:37:26Z</time>
      </trkpt>
      <trkpt lat="47.18205" lon="-1.66418">
        <ele>40</ele>
        <time>2011-03-20T07:37:31Z</time>
      </trkpt>
      <trkpt lat="47.18195" lon="-1.66403">
        <ele>40</ele>
        <time>2011-03-20T07:37:34Z</time>
      </trkpt>
      <trkpt lat="47.182" lon="-1.66381">
        <ele>40</ele>
        <time>2011-03-20T07:37:38Z</time>
      </trkpt>
      <trkpt lat="47.18231" lon="-1.66334">
        <ele>40</ele>
        <time>2011-03-20T07:37:46Z</time>
      </trkpt>
      <trkpt lat="47.18255" lon="-1.66302">
        <ele>38</ele>
        <time>2011-03-20T07:37:52Z</time>
      </trkpt>
      <trkpt lat="47.18287" lon="-1.66267">
        <ele>38</ele>
        <time>2011-03-20T07:38:00Z</time>
      </trkpt>
      <trkpt lat="47.18306" lon="-1.6625">
        <ele>37</ele>
        <time>2011-03-20T07:38:05Z</time>
      </trkpt>
      <trkpt lat="47.18316" lon="-1.66241">
        <ele>38</ele>
        <time>2011-03-20T07:38:07Z</time>
      </trkpt>
      <trkpt lat="47.18356" lon="-1.66213">
        <ele>37</ele>
        <time>2011-03-20T07:38:14Z</time>
      </trkpt>
      <trkpt lat="47.18376" lon="-1.66207">
        <ele>36</ele>
        <time>2011-03-20T07:38:17Z</time>
      </trkpt>
      <trkpt lat="47.18404" lon="-1.66211">
        <ele>36</ele>
        <time>2011-03-20T07:38:21Z</time>
      </trkpt>
      <trkpt lat="47.1842" lon="-1.66198">
        <ele>33</ele>
        <time>2011-03-20T07:38:24Z</time>
      </trkpt>
      <trkpt lat="47.18423" lon="-1.66189">
        <ele>33</ele>
        <time>2011-03-20T07:38:25Z</time>
      </trkpt>
      <trkpt lat="47.1843" lon="-1.66172">
        <ele>34</ele>
        <time>2011-03-20T07:38:27Z</time>
      </trkpt>
      <trkpt lat="47.18449" lon="-1.66144">
        <ele>33</ele>
        <time>2011-03-20T07:38:31Z</time>
      </trkpt>
      <trkpt lat="47.18467" lon="-1.66124">
        <ele>32</ele>
        <time>2011-03-20T07:38:34Z</time>
      </trkpt>
      <trkpt lat="47.18481" lon="-1.6611">
        <ele>32</ele>
        <time>2011-03-20T07:38:36Z</time>
      </trkpt>
      <trkpt lat="47.18509" lon="-1.66082">
        <ele>32</ele>
        <time>2011-03-20T07:38:40Z</time>
      </trkpt>
      <trkpt lat="47.18515" lon="-1.66074">
        <ele>33</ele>
        <time>2011-03-20T07:38:41Z</time>
      </trkpt>
      <trkpt lat="47.18521" lon="-1.66067">
        <ele>33</ele>
        <time>2011-03-20T07:38:42Z</time>
      </trkpt>
      <trkpt lat="47.18524" lon="-1.66049">
        <ele>34</ele>
        <time>2011-03-20T07:38:45Z</time>
      </trkpt>
      <trkpt lat="47.18524" lon="-1.66044">
        <ele>34</ele>
        <time>2011-03-20T07:38:46Z</time>
      </trkpt>
      <trkpt lat="47.18524" lon="-1.66039">
        <ele>34</ele>
        <time>2011-03-20T07:38:47Z</time>
      </trkpt>
      <trkpt lat="47.18524" lon="-1.66023">
        <ele>35</ele>
        <time>2011-03-20T07:38:52Z</time>
      </trkpt>
      <trkpt lat="47.18524" lon="-1.66021">
        <ele>35</ele>
        <time>2011-03-20T07:38:53Z</time>
      </trkpt>
      <trkpt lat="47.18527" lon="-1.66003">
        <ele>36</ele>
        <time>2011-03-20T07:38:58Z</time>
      </trkpt>
      <trkpt lat="47.18528" lon="-1.65998">
        <ele>38</ele>
        <time>2011-03-20T07:39:00Z</time>
      </trkpt>
      <trkpt lat="47.18531" lon="-1.65995">
        <ele>38</ele>
        <time>2011-03-20T07:39:02Z</time>
      </trkpt>
      <trkpt lat="47.18537" lon="-1.65985">
        <ele>38</ele>
        <time>2011-03-20T07:39:08Z</time>
      </trkpt>
      <trkpt lat="47.18539" lon="-1.6598">
        <ele>38</ele>
        <time>2011-03-20T07:39:10Z</time>
      </trkpt>
      <trkpt lat="47.18553" lon="-1.65965">
        <ele>38</ele>
        <time>2011-03-20T07:39:15Z</time>
      </trkpt>
      <trkpt lat="47.18555" lon="-1.65961">
        <ele>38</ele>
        <time>2011-03-20T07:39:16Z</time>
      </trkpt>
      <trkpt lat="47.18553" lon="-1.65943">
        <ele>38</ele>
        <time>2011-03-20T07:39:21Z</time>
      </trkpt>
      <trkpt lat="47.18556" lon="-1.6593">
        <ele>38</ele>
        <time>2011-03-20T07:39:25Z</time>
      </trkpt>
      <trkpt lat="47.18549" lon="-1.65923">
        <ele>38</ele>
        <time>2011-03-20T07:39:29Z</time>
      </trkpt>
      <trkpt lat="47.18543" lon="-1.6592">
        <ele>38</ele>
        <time>2011-03-20T07:39:33Z</time>
      </trkpt>
      <trkpt lat="47.18542" lon="-1.65918">
        <ele>38</ele>
        <time>2011-03-20T07:39:34Z</time>
      </trkpt>
      <trkpt lat="47.18534" lon="-1.65902">
        <ele>38</ele>
        <time>2011-03-20T07:39:39Z</time>
      </trkpt>
      <trkpt lat="47.18535" lon="-1.65885">
        <ele>37</ele>
        <time>2011-03-20T07:39:43Z</time>
      </trkpt>
      <trkpt lat="47.18538" lon="-1.65872">
        <ele>37</ele>
        <time>2011-03-20T07:39:46Z</time>
      </trkpt>
      <trkpt lat="47.1854" lon="-1.65865">
        <ele>37</ele>
        <time>2011-03-20T07:39:48Z</time>
      </trkpt>
      <trkpt lat="47.18542" lon="-1.65854">
        <ele>37</ele>
        <time>2011-03-20T07:39:52Z</time>
      </trkpt>
      <trkpt lat="47.18528" lon="-1.65842">
        <ele>37</ele>
        <time>2011-03-20T07:39:57Z</time>
      </trkpt>
      <trkpt lat="47.18515" lon="-1.65833">
        <ele>36</ele>
        <time>2011-03-20T07:40:01Z</time>
      </trkpt>
      <trkpt lat="47.18493" lon="-1.65814">
        <ele>37</ele>
        <time>2011-03-20T07:40:07Z</time>
      </trkpt>
      <trkpt lat="47.1848" lon="-1.65794">
        <ele>37</ele>
        <time>2011-03-20T07:40:12Z</time>
      </trkpt>
      <trkpt lat="47.18473" lon="-1.65785">
        <ele>37</ele>
        <time>2011-03-20T07:40:14Z</time>
      </trkpt>
      <trkpt lat="47.18449" lon="-1.65752">
        <ele>36</ele>
        <time>2011-03-20T07:40:20Z</time>
      </trkpt>
      <trkpt lat="47.18431" lon="-1.6573">
        <ele>36</ele>
        <time>2011-03-20T07:40:26Z</time>
      </trkpt>
      <trkpt lat="47.18431" lon="-1.65728">
        <ele>36</ele>
        <time>2011-03-20T07:40:28Z</time>
      </trkpt>
      <trkpt lat="47.18438" lon="-1.65714">
        <ele>36</ele>
        <time>2011-03-20T07:40:34Z</time>
      </trkpt>
      <trkpt lat="47.18447" lon="-1.65706">
        <ele>36</ele>
        <time>2011-03-20T07:40:37Z</time>
      </trkpt>
      <trkpt lat="47.1847" lon="-1.6571">
        <ele>36</ele>
        <time>2011-03-20T07:40:44Z</time>
      </trkpt>
      <trkpt lat="47.18477" lon="-1.65716">
        <ele>36</ele>
        <time>2011-03-20T07:40:46Z</time>
      </trkpt>
      <trkpt lat="47.18485" lon="-1.65721">
        <ele>36</ele>
        <time>2011-03-20T07:40:48Z</time>
      </trkpt>
      <trkpt lat="47.18503" lon="-1.65726">
        <ele>30</ele>
        <time>2011-03-20T07:40:53Z</time>
      </trkpt>
      <trkpt lat="47.18511" lon="-1.65727">
        <ele>30</ele>
        <time>2011-03-20T07:40:55Z</time>
      </trkpt>
      <trkpt lat="47.18518" lon="-1.65736">
        <ele>30</ele>
        <time>2011-03-20T07:40:59Z</time>
      </trkpt>
      <trkpt lat="47.18518" lon="-1.65753">
        <ele>35</ele>
        <time>2011-03-20T07:41:03Z</time>
      </trkpt>
      <trkpt lat="47.18524" lon="-1.65763">
        <ele>33</ele>
        <time>2011-03-20T07:41:07Z</time>
      </trkpt>
      <trkpt lat="47.18528" lon="-1.65772">
        <ele>33</ele>
        <time>2011-03-20T07:41:10Z</time>
      </trkpt>
      <trkpt lat="47.18541" lon="-1.65779">
        <ele>32</ele>
        <time>2011-03-20T07:41:14Z</time>
      </trkpt>
      <trkpt lat="47.18556" lon="-1.65798">
        <ele>32</ele>
        <time>2011-03-20T07:41:18Z</time>
      </trkpt>
      <trkpt lat="47.18562" lon="-1.65821">
        <ele>32</ele>
        <time>2011-03-20T07:41:22Z</time>
      </trkpt>
      <trkpt lat="47.1857" lon="-1.65846">
        <ele>35</ele>
        <time>2011-03-20T07:41:26Z</time>
      </trkpt>
      <trkpt lat="47.18574" lon="-1.65871">
        <ele>36</ele>
        <time>2011-03-20T07:41:30Z</time>
      </trkpt>
      <trkpt lat="47.18579" lon="-1.65883">
        <ele>37</ele>
        <time>2011-03-20T07:41:32Z</time>
      </trkpt>
      <trkpt lat="47.18589" lon="-1.65899">
        <ele>33</ele>
        <time>2011-03-20T07:41:35Z</time>
      </trkpt>
      <trkpt lat="47.18617" lon="-1.65937">
        <ele>33</ele>
        <time>2011-03-20T07:41:43Z</time>
      </trkpt>
      <trkpt lat="47.18629" lon="-1.65942">
        <ele>32</ele>
        <time>2011-03-20T07:41:47Z</time>
      </trkpt>
      <trkpt lat="47.18639" lon="-1.65947">
        <ele>32</ele>
        <time>2011-03-20T07:41:50Z</time>
      </trkpt>
      <trkpt lat="47.18654" lon="-1.65957">
        <ele>31</ele>
        <time>2011-03-20T07:41:55Z</time>
      </trkpt>
      <trkpt lat="47.18657" lon="-1.65958">
        <ele>31</ele>
        <time>2011-03-20T07:41:56Z</time>
      </trkpt>
      <trkpt lat="47.1866" lon="-1.65974">
        <ele>32</ele>
        <time>2011-03-20T07:41:59Z</time>
      </trkpt>
      <trkpt lat="47.18665" lon="-1.65983">
        <ele>32</ele>
        <time>2011-03-20T07:42:01Z</time>
      </trkpt>
      <trkpt lat="47.18671" lon="-1.65989">
        <ele>27</ele>
        <time>2011-03-20T07:42:03Z</time>
      </trkpt>
      <trkpt lat="47.18696" lon="-1.66004">
        <ele>25</ele>
        <time>2011-03-20T07:42:09Z</time>
      </trkpt>
      <trkpt lat="47.18704" lon="-1.66017">
        <ele>24</ele>
        <time>2011-03-20T07:42:13Z</time>
      </trkpt>
      <trkpt lat="47.18707" lon="-1.6602">
        <ele>24</ele>
        <time>2011-03-20T07:42:14Z</time>
      </trkpt>
      <trkpt lat="47.18713" lon="-1.66028">
        <ele>23</ele>
        <time>2011-03-20T07:42:17Z</time>
      </trkpt>
      <trkpt lat="47.1871" lon="-1.66041">
        <ele>24</ele>
        <time>2011-03-20T07:42:21Z</time>
      </trkpt>
      <trkpt lat="47.18706" lon="-1.66042">
        <ele>24</ele>
        <time>2011-03-20T07:42:22Z</time>
      </trkpt>
      <trkpt lat="47.18691" lon="-1.66052">
        <ele>25</ele>
        <time>2011-03-20T07:42:27Z</time>
      </trkpt>
      <trkpt lat="47.18694" lon="-1.66061">
        <ele>25</ele>
        <time>2011-03-20T07:42:31Z</time>
      </trkpt>
      <trkpt lat="47.18696" lon="-1.66062">
        <ele>25</ele>
        <time>2011-03-20T07:42:32Z</time>
      </trkpt>
      <trkpt lat="47.18703" lon="-1.66065">
        <ele>25</ele>
        <time>2011-03-20T07:42:34Z</time>
      </trkpt>
      <trkpt lat="47.18715" lon="-1.66076">
        <ele>23</ele>
        <time>2011-03-20T07:42:37Z</time>
      </trkpt>
      <trkpt lat="47.18723" lon="-1.66081">
        <ele>23</ele>
        <time>2011-03-20T07:42:39Z</time>
      </trkpt>
      <trkpt lat="47.18731" lon="-1.66103">
        <ele>22</ele>
        <time>2011-03-20T07:42:44Z</time>
      </trkpt>
      <trkpt lat="47.18731" lon="-1.66116">
        <ele>22</ele>
        <time>2011-03-20T07:42:46Z</time>
      </trkpt>
      <trkpt lat="47.18729" lon="-1.6614">
        <ele>22</ele>
        <time>2011-03-20T07:42:50Z</time>
      </trkpt>
      <trkpt lat="47.18721" lon="-1.66142">
        <ele>23</ele>
        <time>2011-03-20T07:42:54Z</time>
      </trkpt>
      <trkpt lat="47.18721" lon="-1.66134">
        <ele>23</ele>
        <time>2011-03-20T07:42:57Z</time>
      </trkpt>
      <trkpt lat="47.18723" lon="-1.66122">
        <ele>23</ele>
        <time>2011-03-20T07:43:00Z</time>
      </trkpt>
      <trkpt lat="47.18721" lon="-1.66113">
        <ele>23</ele>
        <time>2011-03-20T07:43:03Z</time>
      </trkpt>
      <trkpt lat="47.18716" lon="-1.66098">
        <ele>23</ele>
        <time>2011-03-20T07:43:06Z</time>
      </trkpt>
      <trkpt lat="47.18708" lon="-1.66083">
        <ele>24</ele>
        <time>2011-03-20T07:43:11Z</time>
      </trkpt>
      <trkpt lat="47.18705" lon="-1.66082">
        <ele>25</ele>
        <time>2011-03-20T07:43:16Z</time>
      </trkpt>
      <trkpt lat="47.187" lon="-1.66082">
        <ele>25</ele>
        <time>2011-03-20T07:43:20Z</time>
      </trkpt>
      <trkpt lat="47.18695" lon="-1.66071">
        <ele>26</ele>
        <time>2011-03-20T07:43:27Z</time>
      </trkpt>
      <trkpt lat="47.18695" lon="-1.66071">
        <ele>26</ele>
        <time>2011-03-20T07:43:29Z</time>
      </trkpt>
      <trkpt lat="47.18695" lon="-1.6607">
        <ele>26</ele>
        <time>2011-03-20T07:43:32Z</time>
      </trkpt>
      <trkpt lat="47.18694" lon="-1.66067">
        <ele>26</ele>
        <time>2011-03-20T07:43:34Z</time>
      </trkpt>
      <trkpt lat="47.18693" lon="-1.66063">
        <ele>26</ele>
        <time>2011-03-20T07:43:38Z</time>
      </trkpt>
      <trkpt lat="47.18687" lon="-1.66059">
        <ele>26</ele>
        <time>2011-03-20T07:43:44Z</time>
      </trkpt>
      <trkpt lat="47.18686" lon="-1.66059">
        <ele>26</ele>
        <time>2011-03-20T07:43:46Z</time>
      </trkpt>
      <trkpt lat="47.18685" lon="-1.66059">
        <ele>26</ele>
        <time>2011-03-20T07:43:49Z</time>
      </trkpt>
      <trkpt lat="47.18683" lon="-1.66058">
        <ele>26</ele>
        <time>2011-03-20T07:43:50Z</time>
      </trkpt>
      <trkpt lat="47.18669" lon="-1.66053">
        <ele>27</ele>
        <time>2011-03-20T07:43:56Z</time>
      </trkpt>
      <trkpt lat="47.18664" lon="-1.66048">
        <ele>32</ele>
        <time>2011-03-20T07:43:58Z</time>
      </trkpt>
      <trkpt lat="47.18651" lon="-1.6603">
        <ele>32</ele>
        <time>2011-03-20T07:44:03Z</time>
      </trkpt>
      <trkpt lat="47.18638" lon="-1.66006">
        <ele>33</ele>
        <time>2011-03-20T07:44:08Z</time>
      </trkpt>
      <trkpt lat="47.18628" lon="-1.65981">
        <ele>33</ele>
        <time>2011-03-20T07:44:13Z</time>
      </trkpt>
      <trkpt lat="47.1862" lon="-1.65957">
        <ele>33</ele>
        <time>2011-03-20T07:44:18Z</time>
      </trkpt>
      <trkpt lat="47.18615" lon="-1.65947">
        <ele>33</ele>
        <time>2011-03-20T07:44:20Z</time>
      </trkpt>
      <trkpt lat="47.18607" lon="-1.6595">
        <ele>34</ele>
        <time>2011-03-20T07:44:23Z</time>
      </trkpt>
      <trkpt lat="47.18602" lon="-1.6596">
        <ele>34</ele>
        <time>2011-03-20T07:44:25Z</time>
      </trkpt>
      <trkpt lat="47.18583" lon="-1.65982">
        <ele>35</ele>
        <time>2011-03-20T07:44:31Z</time>
      </trkpt>
      <trkpt lat="47.18566" lon="-1.65986">
        <ele>37</ele>
        <time>2011-03-20T07:44:36Z</time>
      </trkpt>
      <trkpt lat="47.18555" lon="-1.65993">
        <ele>37</ele>
        <time>2011-03-20T07:44:39Z</time>
      </trkpt>
      <trkpt lat="47.1855" lon="-1.66012">
        <ele>35</ele>
        <time>2011-03-20T07:44:43Z</time>
      </trkpt>
      <trkpt lat="47.1855" lon="-1.66016">
        <ele>35</ele>
        <time>2011-03-20T07:44:44Z</time>
      </trkpt>
      <trkpt lat="47.18551" lon="-1.66028">
        <ele>35</ele>
        <time>2011-03-20T07:44:48Z</time>
      </trkpt>
      <trkpt lat="47.18547" lon="-1.66031">
        <ele>35</ele>
        <time>2011-03-20T07:44:50Z</time>
      </trkpt>
      <trkpt lat="47.18535" lon="-1.6604">
        <ele>34</ele>
        <time>2011-03-20T07:44:56Z</time>
      </trkpt>
      <trkpt lat="47.18536" lon="-1.6605">
        <ele>34</ele>
        <time>2011-03-20T07:45:00Z</time>
      </trkpt>
      <trkpt lat="47.18546" lon="-1.66052">
        <ele>34</ele>
        <time>2011-03-20T07:45:04Z</time>
      </trkpt>
      <trkpt lat="47.1855" lon="-1.66054">
        <ele>34</ele>
        <time>2011-03-20T07:45:05Z</time>
      </trkpt>
      <trkpt lat="47.18565" lon="-1.66061">
        <ele>34</ele>
        <time>2011-03-20T07:45:09Z</time>
      </trkpt>
      <trkpt lat="47.1858" lon="-1.66073">
        <ele>33</ele>
        <time>2011-03-20T07:45:13Z</time>
      </trkpt>
      <trkpt lat="47.18598" lon="-1.66092">
        <ele>31</ele>
        <time>2011-03-20T07:45:17Z</time>
      </trkpt>
      <trkpt lat="47.18614" lon="-1.66108">
        <ele>30</ele>
        <time>2011-03-20T07:45:20Z</time>
      </trkpt>
      <trkpt lat="47.18635" lon="-1.66132">
        <ele>30</ele>
        <time>2011-03-20T07:45:24Z</time>
      </trkpt>
      <trkpt lat="47.18671" lon="-1.66164">
        <ele>26</ele>
        <time>2011-03-20T07:45:30Z</time>
      </trkpt>
      <trkpt lat="47.18688" lon="-1.66175">
        <ele>23</ele>
        <time>2011-03-20T07:45:33Z</time>
      </trkpt>
      <trkpt lat="47.18718" lon="-1.66205">
        <ele>20</ele>
        <time>2011-03-20T07:45:39Z</time>
      </trkpt>
      <trkpt lat="47.18736" lon="-1.66223">
        <ele>19</ele>
        <time>2011-03-20T07:45:42Z</time>
      </trkpt>
      <trkpt lat="47.18741" lon="-1.66227">
        <ele>18</ele>
        <time>2011-03-20T07:45:43Z</time>
      </trkpt>
      <trkpt lat="47.18755" lon="-1.66234">
        <ele>13</ele>
        <time>2011-03-20T07:45:47Z</time>
      </trkpt>
      <trkpt lat="47.18755" lon="-1.66239">
        <ele>14</ele>
        <time>2011-03-20T07:45:51Z</time>
      </trkpt>
      <trkpt lat="47.18758" lon="-1.6624">
        <ele>14</ele>
        <time>2011-03-20T07:45:54Z</time>
      </trkpt>
      <trkpt lat="47.18765" lon="-1.66245">
        <ele>13</ele>
        <time>2011-03-20T07:45:58Z</time>
      </trkpt>
      <trkpt lat="47.18772" lon="-1.66248">
        <ele>13</ele>
        <time>2011-03-20T07:46:02Z</time>
      </trkpt>
      <trkpt lat="47.18777" lon="-1.66253">
        <ele>11</ele>
        <time>2011-03-20T07:46:05Z</time>
      </trkpt>
      <trkpt lat="47.18778" lon="-1.6626">
        <ele>11</ele>
        <time>2011-03-20T07:46:09Z</time>
      </trkpt>
      <trkpt lat="47.18778" lon="-1.66271">
        <ele>11</ele>
        <time>2011-03-20T07:46:14Z</time>
      </trkpt>
      <trkpt lat="47.18776" lon="-1.66293">
        <ele>10</ele>
        <time>2011-03-20T07:46:20Z</time>
      </trkpt>
      <trkpt lat="47.18773" lon="-1.66318">
        <ele>11</ele>
        <time>2011-03-20T07:46:25Z</time>
      </trkpt>
      <trkpt lat="47.18773" lon="-1.66324">
        <ele>11</ele>
        <time>2011-03-20T07:46:26Z</time>
      </trkpt>
      <trkpt lat="47.18778" lon="-1.66359">
        <ele>9</ele>
        <time>2011-03-20T07:46:30Z</time>
      </trkpt>
      <trkpt lat="47.18774" lon="-1.66397">
        <ele>9</ele>
        <time>2011-03-20T07:46:34Z</time>
      </trkpt>
      <trkpt lat="47.1877" lon="-1.66412">
        <ele>9</ele>
        <time>2011-03-20T07:46:36Z</time>
      </trkpt>
      <trkpt lat="47.18764" lon="-1.66427">
        <ele>9</ele>
        <time>2011-03-20T07:46:38Z</time>
      </trkpt>
      <trkpt lat="47.18751" lon="-1.66444">
        <ele>9</ele>
        <time>2011-03-20T07:46:42Z</time>
      </trkpt>
      <trkpt lat="47.1875" lon="-1.66459">
        <ele>13</ele>
        <time>2011-03-20T07:46:45Z</time>
      </trkpt>
      <trkpt lat="47.18757" lon="-1.66473">
        <ele>8</ele>
        <time>2011-03-20T07:46:47Z</time>
      </trkpt>
      <trkpt lat="47.18759" lon="-1.66495">
        <ele>8</ele>
        <time>2011-03-20T07:46:50Z</time>
      </trkpt>
      <trkpt lat="47.18751" lon="-1.66499">
        <ele>8</ele>
        <time>2011-03-20T07:46:52Z</time>
      </trkpt>
      <trkpt lat="47.18743" lon="-1.66502">
        <ele>10</ele>
        <time>2011-03-20T07:46:54Z</time>
      </trkpt>
      <trkpt lat="47.18714" lon="-1.66502">
        <ele>14</ele>
        <time>2011-03-20T07:47:01Z</time>
      </trkpt>
      <trkpt lat="47.18692" lon="-1.66503">
        <ele>16</ele>
        <time>2011-03-20T07:47:07Z</time>
      </trkpt>
      <trkpt lat="47.18662" lon="-1.66504">
        <ele>22</ele>
        <time>2011-03-20T07:47:16Z</time>
      </trkpt>
      <trkpt lat="47.18646" lon="-1.66498">
        <ele>23</ele>
        <time>2011-03-20T07:47:21Z</time>
      </trkpt>
      <trkpt lat="47.18643" lon="-1.66496">
        <ele>24</ele>
        <time>2011-03-20T07:47:22Z</time>
      </trkpt>
      <trkpt lat="47.18618" lon="-1.6648">
        <ele>25</ele>
        <time>2011-03-20T07:47:30Z</time>
      </trkpt>
      <trkpt lat="47.18604" lon="-1.66471">
        <ele>26</ele>
        <time>2011-03-20T07:47:35Z</time>
      </trkpt>
      <trkpt lat="47.18601" lon="-1.6647">
        <ele>26</ele>
        <time>2011-03-20T07:47:36Z</time>
      </trkpt>
      <trkpt lat="47.18587" lon="-1.66467">
        <ele>27</ele>
        <time>2011-03-20T07:47:41Z</time>
      </trkpt>
      <trkpt lat="47.18569" lon="-1.66463">
        <ele>32</ele>
        <time>2011-03-20T07:47:47Z</time>
      </trkpt>
      <trkpt lat="47.18557" lon="-1.6646">
        <ele>32</ele>
        <time>2011-03-20T07:47:51Z</time>
      </trkpt>
      <trkpt lat="47.18542" lon="-1.66458">
        <ele>32</ele>
        <time>2011-03-20T07:47:57Z</time>
      </trkpt>
      <trkpt lat="47.18524" lon="-1.66454">
        <ele>33</ele>
        <time>2011-03-20T07:48:04Z</time>
      </trkpt>
      <trkpt lat="47.18508" lon="-1.66446">
        <ele>33</ele>
        <time>2011-03-20T07:48:10Z</time>
      </trkpt>
      <trkpt lat="47.18491" lon="-1.66441">
        <ele>36</ele>
        <time>2011-03-20T07:48:17Z</time>
      </trkpt>
      <trkpt lat="47.18472" lon="-1.66442">
        <ele>37</ele>
        <time>2011-03-20T07:48:24Z</time>
      </trkpt>
      <trkpt lat="47.18452" lon="-1.66445">
        <ele>37</ele>
        <time>2011-03-20T07:48:32Z</time>
      </trkpt>
      <trkpt lat="47.18446" lon="-1.66444">
        <ele>37</ele>
        <time>2011-03-20T07:48:38Z</time>
      </trkpt>
      <trkpt lat="47.18446" lon="-1.66444">
        <ele>37</ele>
        <time>2011-03-20T07:48:39Z</time>
      </trkpt>
      <trkpt lat="47.18447" lon="-1.66444">
        <ele>37</ele>
        <time>2011-03-20T07:48:46Z</time>
      </trkpt>
      <trkpt lat="47.18447" lon="-1.66445">
        <ele>37</ele>
        <time>2011-03-20T07:48:48Z</time>
      </trkpt>
      <trkpt lat="47.18447" lon="-1.66445">
        <ele>37</ele>
        <time>2011-03-20T07:48:51Z</time>
      </trkpt>
      <trkpt lat="47.18448" lon="-1.66445">
        <ele>37</ele>
        <time>2011-03-20T07:48:52Z</time>
      </trkpt>
      <trkpt lat="47.18445" lon="-1.66446">
        <ele>37</ele>
        <time>2011-03-20T07:49:08Z</time>
      </trkpt>
      <trkpt lat="47.18446" lon="-1.66447">
        <ele>37</ele>
        <time>2011-03-20T07:49:11Z</time>
      </trkpt>
      <trkpt lat="47.18446" lon="-1.66448">
        <ele>37</ele>
        <time>2011-03-20T07:49:21Z</time>
      </trkpt>
      <trkpt lat="47.18449" lon="-1.66469">
        <ele>38</ele>
        <time>2011-03-20T07:49:28Z</time>
      </trkpt>
      <trkpt lat="47.18451" lon="-1.66494">
        <ele>38</ele>
        <time>2011-03-20T07:49:34Z</time>
      </trkpt>
      <trkpt lat="47.18459" lon="-1.66524">
        <ele>38</ele>
        <time>2011-03-20T07:49:40Z</time>
      </trkpt>
      <trkpt lat="47.18463" lon="-1.66559">
        <ele>38</ele>
        <time>2011-03-20T07:49:46Z</time>
      </trkpt>
      <trkpt lat="47.18463" lon="-1.66565">
        <ele>38</ele>
        <time>2011-03-20T07:49:47Z</time>
      </trkpt>
      <trkpt lat="47.18477" lon="-1.66622">
        <ele>38</ele>
        <time>2011-03-20T07:49:55Z</time>
      </trkpt>
      <trkpt lat="47.18486" lon="-1.66678">
        <ele>38</ele>
        <time>2011-03-20T07:50:02Z</time>
      </trkpt>
      <trkpt lat="47.18487" lon="-1.66685">
        <ele>38</ele>
        <time>2011-03-20T07:50:03Z</time>
      </trkpt>
      <trkpt lat="47.18496" lon="-1.66695">
        <ele>37</ele>
        <time>2011-03-20T07:50:06Z</time>
      </trkpt>
      <trkpt lat="47.18499" lon="-1.66692">
        <ele>38</ele>
        <time>2011-03-20T07:50:07Z</time>
      </trkpt>
      <trkpt lat="47.18516" lon="-1.66689">
        <ele>36</ele>
        <time>2011-03-20T07:50:12Z</time>
      </trkpt>
      <trkpt lat="47.18519" lon="-1.66699">
        <ele>36</ele>
        <time>2011-03-20T07:50:14Z</time>
      </trkpt>
      <trkpt lat="47.18524" lon="-1.6672">
        <ele>35</ele>
        <time>2011-03-20T07:50:17Z</time>
      </trkpt>
      <trkpt lat="47.18542" lon="-1.66767">
        <ele>32</ele>
        <time>2011-03-20T07:50:23Z</time>
      </trkpt>
      <trkpt lat="47.18545" lon="-1.66775">
        <ele>32</ele>
        <time>2011-03-20T07:50:24Z</time>
      </trkpt>
      <trkpt lat="47.18552" lon="-1.6679">
        <ele>31</ele>
        <time>2011-03-20T07:50:26Z</time>
      </trkpt>
      <trkpt lat="47.18568" lon="-1.66807">
        <ele>30</ele>
        <time>2011-03-20T07:50:31Z</time>
      </trkpt>
      <trkpt lat="47.18574" lon="-1.66801">
        <ele>30</ele>
        <time>2011-03-20T07:50:33Z</time>
      </trkpt>
      <trkpt lat="47.18583" lon="-1.66791">
        <ele>30</ele>
        <time>2011-03-20T07:50:35Z</time>
      </trkpt>
      <trkpt lat="47.18591" lon="-1.6678">
        <ele>27</ele>
        <time>2011-03-20T07:50:37Z</time>
      </trkpt>
      <trkpt lat="47.18603" lon="-1.66761">
        <ele>27</ele>
        <time>2011-03-20T07:50:40Z</time>
      </trkpt>
      <trkpt lat="47.18608" lon="-1.66749">
        <ele>28</ele>
        <time>2011-03-20T07:50:44Z</time>
      </trkpt>
      <trkpt lat="47.18612" lon="-1.66734">
        <ele>27</ele>
        <time>2011-03-20T07:50:49Z</time>
      </trkpt>
      <trkpt lat="47.18615" lon="-1.66721">
        <ele>27</ele>
        <time>2011-03-20T07:50:51Z</time>
      </trkpt>
      <trkpt lat="47.18625" lon="-1.66679">
        <ele>26</ele>
        <time>2011-03-20T07:50:56Z</time>
      </trkpt>
      <trkpt lat="47.18652" lon="-1.66645">
        <ele>24</ele>
        <time>2011-03-20T07:51:01Z</time>
      </trkpt>
      <trkpt lat="47.18658" lon="-1.66641">
        <ele>24</ele>
        <time>2011-03-20T07:51:02Z</time>
      </trkpt>
      <trkpt lat="47.18666" lon="-1.66633">
        <ele>25</ele>
        <time>2011-03-20T07:51:04Z</time>
      </trkpt>
      <trkpt lat="47.18676" lon="-1.66627">
        <ele>16</ele>
        <time>2011-03-20T07:51:06Z</time>
      </trkpt>
      <trkpt lat="47.18681" lon="-1.66623">
        <ele>16</ele>
        <time>2011-03-20T07:51:07Z</time>
      </trkpt>
      <trkpt lat="47.1869" lon="-1.66613">
        <ele>16</ele>
        <time>2011-03-20T07:51:09Z</time>
      </trkpt>
      <trkpt lat="47.18715" lon="-1.66584">
        <ele>13</ele>
        <time>2011-03-20T07:51:14Z</time>
      </trkpt>
      <trkpt lat="47.18738" lon="-1.66557">
        <ele>12</ele>
        <time>2011-03-20T07:51:18Z</time>
      </trkpt>
      <trkpt lat="47.18761" lon="-1.66544">
        <ele>7</ele>
        <time>2011-03-20T07:51:23Z</time>
      </trkpt>
      <trkpt lat="47.18769" lon="-1.66546">
        <ele>7</ele>
        <time>2011-03-20T07:51:25Z</time>
      </trkpt>
      <trkpt lat="47.18777" lon="-1.66568">
        <ele>7</ele>
        <time>2011-03-20T07:51:29Z</time>
      </trkpt>
      <trkpt lat="47.18782" lon="-1.66604">
        <ele>7</ele>
        <time>2011-03-20T07:51:35Z</time>
      </trkpt>
      <trkpt lat="47.18785" lon="-1.66622">
        <ele>7</ele>
        <time>2011-03-20T07:51:38Z</time>
      </trkpt>
      <trkpt lat="47.18793" lon="-1.66673">
        <ele>8</ele>
        <time>2011-03-20T07:51:46Z</time>
      </trkpt>
      <trkpt lat="47.18796" lon="-1.667">
        <ele>8</ele>
        <time>2011-03-20T07:51:50Z</time>
      </trkpt>
      <trkpt lat="47.18804" lon="-1.66749">
        <ele>8</ele>
        <time>2011-03-20T07:51:58Z</time>
      </trkpt>
      <trkpt lat="47.18811" lon="-1.66787">
        <ele>9</ele>
        <time>2011-03-20T07:52:03Z</time>
      </trkpt>
      <trkpt lat="47.18813" lon="-1.66795">
        <ele>9</ele>
        <time>2011-03-20T07:52:04Z</time>
      </trkpt>
      <trkpt lat="47.18825" lon="-1.66832">
        <ele>7</ele>
        <time>2011-03-20T07:52:09Z</time>
      </trkpt>
      <trkpt lat="47.18834" lon="-1.66886">
        <ele>8</ele>
        <time>2011-03-20T07:52:16Z</time>
      </trkpt>
      <trkpt lat="47.1884" lon="-1.66931">
        <ele>11</ele>
        <time>2011-03-20T07:52:22Z</time>
      </trkpt>
      <trkpt lat="47.18847" lon="-1.66969">
        <ele>11</ele>
        <time>2011-03-20T07:52:27Z</time>
      </trkpt>
      <trkpt lat="47.18857" lon="-1.67022">
        <ele>14</ele>
        <time>2011-03-20T07:52:33Z</time>
      </trkpt>
      <trkpt lat="47.1886" lon="-1.67038">
        <ele>13</ele>
        <time>2011-03-20T07:52:35Z</time>
      </trkpt>
      <trkpt lat="47.18868" lon="-1.67088">
        <ele>16</ele>
        <time>2011-03-20T07:52:41Z</time>
      </trkpt>
      <trkpt lat="47.18867" lon="-1.67106">
        <ele>16</ele>
        <time>2011-03-20T07:52:44Z</time>
      </trkpt>
      <trkpt lat="47.18859" lon="-1.67129">
        <ele>17</ele>
        <time>2011-03-20T07:52:48Z</time>
      </trkpt>
      <trkpt lat="47.18861" lon="-1.67148">
        <ele>17</ele>
        <time>2011-03-20T07:52:53Z</time>
      </trkpt>
      <trkpt lat="47.18861" lon="-1.67156">
        <ele>18</ele>
        <time>2011-03-20T07:52:57Z</time>
      </trkpt>
      <trkpt lat="47.18861" lon="-1.67158">
        <ele>18</ele>
        <time>2011-03-20T07:52:58Z</time>
      </trkpt>
      <trkpt lat="47.18864" lon="-1.67167">
        <ele>20</ele>
        <time>2011-03-20T07:53:02Z</time>
      </trkpt>
      <trkpt lat="47.18865" lon="-1.67175">
        <ele>20</ele>
        <time>2011-03-20T07:53:05Z</time>
      </trkpt>
      <trkpt lat="47.1886" lon="-1.67187">
        <ele>21</ele>
        <time>2011-03-20T07:53:10Z</time>
      </trkpt>
      <trkpt lat="47.18859" lon="-1.67191">
        <ele>21</ele>
        <time>2011-03-20T07:53:11Z</time>
      </trkpt>
      <trkpt lat="47.18854" lon="-1.67208">
        <ele>21</ele>
        <time>2011-03-20T07:53:17Z</time>
      </trkpt>
      <trkpt lat="47.18853" lon="-1.67222">
        <ele>22</ele>
        <time>2011-03-20T07:53:22Z</time>
      </trkpt>
      <trkpt lat="47.18857" lon="-1.67239">
        <ele>23</ele>
        <time>2011-03-20T07:53:28Z</time>
      </trkpt>
      <trkpt lat="47.1886" lon="-1.67253">
        <ele>26</ele>
        <time>2011-03-20T07:53:34Z</time>
      </trkpt>
      <trkpt lat="47.18863" lon="-1.67268">
        <ele>25</ele>
        <time>2011-03-20T07:53:39Z</time>
      </trkpt>
      <trkpt lat="47.18868" lon="-1.67283">
        <ele>25</ele>
        <time>2011-03-20T07:53:45Z</time>
      </trkpt>
      <trkpt lat="47.1887" lon="-1.673">
        <ele>25</ele>
        <time>2011-03-20T07:53:50Z</time>
      </trkpt>
      <trkpt lat="47.18871" lon="-1.67303">
        <ele>25</ele>
        <time>2011-03-20T07:53:51Z</time>
      </trkpt>
      <trkpt lat="47.18874" lon="-1.67335">
        <ele>28</ele>
        <time>2011-03-20T07:53:58Z</time>
      </trkpt>
      <trkpt lat="47.18878" lon="-1.67352">
        <ele>27</ele>
        <time>2011-03-20T07:54:02Z</time>
      </trkpt>
      <trkpt lat="47.18888" lon="-1.6739">
        <ele>27</ele>
        <time>2011-03-20T07:54:10Z</time>
      </trkpt>
      <trkpt lat="47.18897" lon="-1.67419">
        <ele>28</ele>
        <time>2011-03-20T07:54:16Z</time>
      </trkpt>
      <trkpt lat="47.18909" lon="-1.67439">
        <ele>29</ele>
        <time>2011-03-20T07:54:21Z</time>
      </trkpt>
      <trkpt lat="47.18919" lon="-1.67463">
        <ele>20</ele>
        <time>2011-03-20T07:54:26Z</time>
      </trkpt>
      <trkpt lat="47.18915" lon="-1.67483">
        <ele>30</ele>
        <time>2011-03-20T07:54:30Z</time>
      </trkpt>
      <trkpt lat="47.18914" lon="-1.67505">
        <ele>30</ele>
        <time>2011-03-20T07:54:34Z</time>
      </trkpt>
      <trkpt lat="47.18918" lon="-1.67545">
        <ele>22</ele>
        <time>2011-03-20T07:54:41Z</time>
      </trkpt>
      <trkpt lat="47.18927" lon="-1.67565">
        <ele>23</ele>
        <time>2011-03-20T07:54:46Z</time>
      </trkpt>
      <trkpt lat="47.18937" lon="-1.67588">
        <ele>24</ele>
        <time>2011-03-20T07:54:51Z</time>
      </trkpt>
      <trkpt lat="47.18931" lon="-1.67604">
        <ele>24</ele>
        <time>2011-03-20T07:54:55Z</time>
      </trkpt>
      <trkpt lat="47.18927" lon="-1.67619">
        <ele>23</ele>
        <time>2011-03-20T07:54:59Z</time>
      </trkpt>
      <trkpt lat="47.18924" lon="-1.67622">
        <ele>23</ele>
        <time>2011-03-20T07:55:00Z</time>
      </trkpt>
      <trkpt lat="47.18925" lon="-1.67625">
        <ele>23</ele>
        <time>2011-03-20T07:55:02Z</time>
      </trkpt>
      <trkpt lat="47.18924" lon="-1.67628">
        <ele>23</ele>
        <time>2011-03-20T07:55:07Z</time>
      </trkpt>
      <trkpt lat="47.18923" lon="-1.67634">
        <ele>24</ele>
        <time>2011-03-20T07:55:11Z</time>
      </trkpt>
      <trkpt lat="47.18923" lon="-1.67637">
        <ele>24</ele>
        <time>2011-03-20T07:55:14Z</time>
      </trkpt>
      <trkpt lat="47.18927" lon="-1.67659">
        <ele>27</ele>
        <time>2011-03-20T07:55:17Z</time>
      </trkpt>
      <trkpt lat="47.18934" lon="-1.67687">
        <ele>24</ele>
        <time>2011-03-20T07:55:21Z</time>
      </trkpt>
      <trkpt lat="47.18935" lon="-1.67705">
        <ele>23</ele>
        <time>2011-03-20T07:55:26Z</time>
      </trkpt>
      <trkpt lat="47.18932" lon="-1.67708">
        <ele>23</ele>
        <time>2011-03-20T07:55:30Z</time>
      </trkpt>
      <trkpt lat="47.18931" lon="-1.67709">
        <ele>24</ele>
        <time>2011-03-20T07:55:33Z</time>
      </trkpt>
      <trkpt lat="47.1893" lon="-1.67712">
        <ele>24</ele>
        <time>2011-03-20T07:55:34Z</time>
      </trkpt>
      <trkpt lat="47.18923" lon="-1.67717">
        <ele>24</ele>
        <time>2011-03-20T07:55:42Z</time>
      </trkpt>
      <trkpt lat="47.18923" lon="-1.67718">
        <ele>24</ele>
        <time>2011-03-20T07:55:45Z</time>
      </trkpt>
      <trkpt lat="47.18915" lon="-1.67723">
        <ele>33</ele>
        <time>2011-03-20T07:55:49Z</time>
      </trkpt>
      <trkpt lat="47.18904" lon="-1.67734">
        <ele>33</ele>
        <time>2011-03-20T07:55:55Z</time>
      </trkpt>
      <trkpt lat="47.18906" lon="-1.67752">
        <ele>32</ele>
        <time>2011-03-20T07:56:00Z</time>
      </trkpt>
      <trkpt lat="47.18909" lon="-1.6778">
        <ele>32</ele>
        <time>2011-03-20T07:56:06Z</time>
      </trkpt>
      <trkpt lat="47.18915" lon="-1.67811">
        <ele>31</ele>
        <time>2011-03-20T07:56:11Z</time>
      </trkpt>
      <trkpt lat="47.18918" lon="-1.67861">
        <ele>27</ele>
        <time>2011-03-20T07:56:17Z</time>
      </trkpt>
      <trkpt lat="47.1892" lon="-1.67882">
        <ele>28</ele>
        <time>2011-03-20T07:56:20Z</time>
      </trkpt>
      <trkpt lat="47.18934" lon="-1.67885">
        <ele>27</ele>
        <time>2011-03-20T07:56:24Z</time>
      </trkpt>
      <trkpt lat="47.1894" lon="-1.67882">
        <ele>27</ele>
        <time>2011-03-20T07:56:25Z</time>
      </trkpt>
      <trkpt lat="47.18958" lon="-1.67885">
        <ele>25</ele>
        <time>2011-03-20T07:56:28Z</time>
      </trkpt>
      <trkpt lat="47.18968" lon="-1.67899">
        <ele>25</ele>
        <time>2011-03-20T07:56:31Z</time>
      </trkpt>
      <trkpt lat="47.18971" lon="-1.67903">
        <ele>25</ele>
        <time>2011-03-20T07:56:32Z</time>
      </trkpt>
      <trkpt lat="47.18985" lon="-1.67929">
        <ele>28</ele>
        <time>2011-03-20T07:56:37Z</time>
      </trkpt>
      <trkpt lat="47.18986" lon="-1.67956">
        <ele>30</ele>
        <time>2011-03-20T07:56:41Z</time>
      </trkpt>
      <trkpt lat="47.18984" lon="-1.67961">
        <ele>30</ele>
        <time>2011-03-20T07:56:42Z</time>
      </trkpt>
      <trkpt lat="47.18981" lon="-1.67965">
        <ele>30</ele>
        <time>2011-03-20T07:56:43Z</time>
      </trkpt>
      <trkpt lat="47.18977" lon="-1.67971">
        <ele>31</ele>
        <time>2011-03-20T07:56:45Z</time>
      </trkpt>
      <trkpt lat="47.18987" lon="-1.67995">
        <ele>31</ele>
        <time>2011-03-20T07:56:51Z</time>
      </trkpt>
      <trkpt lat="47.18995" lon="-1.68018">
        <ele>33</ele>
        <time>2011-03-20T07:56:55Z</time>
      </trkpt>
      <trkpt lat="47.18997" lon="-1.68022">
        <ele>33</ele>
        <time>2011-03-20T07:56:56Z</time>
      </trkpt>
      <trkpt lat="47.19013" lon="-1.6802">
        <ele>29</ele>
        <time>2011-03-20T07:57:00Z</time>
      </trkpt>
      <trkpt lat="47.19032" lon="-1.6802">
        <ele>28</ele>
        <time>2011-03-20T07:57:03Z</time>
      </trkpt>
      <trkpt lat="47.1904" lon="-1.68023">
        <ele>27</ele>
        <time>2011-03-20T07:57:04Z</time>
      </trkpt>
      <trkpt lat="47.19069" lon="-1.68034">
        <ele>26</ele>
        <time>2011-03-20T07:57:08Z</time>
      </trkpt>
      <trkpt lat="47.19088" lon="-1.68057">
        <ele>20</ele>
        <time>2011-03-20T07:57:12Z</time>
      </trkpt>
      <trkpt lat="47.1909" lon="-1.68064">
        <ele>21</ele>
        <time>2011-03-20T07:57:13Z</time>
      </trkpt>
      <trkpt lat="47.1911" lon="-1.68122">
        <ele>23</ele>
        <time>2011-03-20T07:57:21Z</time>
      </trkpt>
      <trkpt lat="47.19121" lon="-1.68168">
        <ele>26</ele>
        <time>2011-03-20T07:57:27Z</time>
      </trkpt>
      <trkpt lat="47.19121" lon="-1.68199">
        <ele>26</ele>
        <time>2011-03-20T07:57:31Z</time>
      </trkpt>
      <trkpt lat="47.19119" lon="-1.6823">
        <ele>27</ele>
        <time>2011-03-20T07:57:35Z</time>
      </trkpt>
      <trkpt lat="47.19125" lon="-1.68259">
        <ele>29</ele>
        <time>2011-03-20T07:57:40Z</time>
      </trkpt>
      <trkpt lat="47.19131" lon="-1.6826">
        <ele>28</ele>
        <time>2011-03-20T07:57:43Z</time>
      </trkpt>
      <trkpt lat="47.19127" lon="-1.68251">
        <ele>29</ele>
        <time>2011-03-20T07:57:46Z</time>
      </trkpt>
      <trkpt lat="47.19122" lon="-1.68236">
        <ele>27</ele>
        <time>2011-03-20T07:57:49Z</time>
      </trkpt>
      <trkpt lat="47.19123" lon="-1.6823">
        <ele>26</ele>
        <time>2011-03-20T07:57:50Z</time>
      </trkpt>
      <trkpt lat="47.19126" lon="-1.68197">
        <ele>25</ele>
        <time>2011-03-20T07:57:55Z</time>
      </trkpt>
      <trkpt lat="47.19129" lon="-1.68191">
        <ele>25</ele>
        <time>2011-03-20T07:57:56Z</time>
      </trkpt>
      <trkpt lat="47.19139" lon="-1.68171">
        <ele>23</ele>
        <time>2011-03-20T07:58:00Z</time>
      </trkpt>
      <trkpt lat="47.19142" lon="-1.68168">
        <ele>22</ele>
        <time>2011-03-20T07:58:02Z</time>
      </trkpt>
      <trkpt lat="47.19146" lon="-1.68189">
        <ele>23</ele>
        <time>2011-03-20T07:58:05Z</time>
      </trkpt>
      <trkpt lat="47.1915" lon="-1.68208">
        <ele>23</ele>
        <time>2011-03-20T07:58:08Z</time>
      </trkpt>
      <trkpt lat="47.19162" lon="-1.68222">
        <ele>23</ele>
        <time>2011-03-20T07:58:11Z</time>
      </trkpt>
      <trkpt lat="47.19171" lon="-1.68221">
        <ele>14</ele>
        <time>2011-03-20T07:58:13Z</time>
      </trkpt>
      <trkpt lat="47.1918" lon="-1.68228">
        <ele>14</ele>
        <time>2011-03-20T07:58:17Z</time>
      </trkpt>
      <trkpt lat="47.19187" lon="-1.68227">
        <ele>13</ele>
        <time>2011-03-20T07:58:20Z</time>
      </trkpt>
      <trkpt lat="47.19192" lon="-1.68223">
        <ele>13</ele>
        <time>2011-03-20T07:58:22Z</time>
      </trkpt>
      <trkpt lat="47.19205" lon="-1.68214">
        <ele>11</ele>
        <time>2011-03-20T07:58:28Z</time>
      </trkpt>
      <trkpt lat="47.19207" lon="-1.68215">
        <ele>11</ele>
        <time>2011-03-20T07:58:32Z</time>
      </trkpt>
      <trkpt lat="47.19206" lon="-1.68216">
        <ele>11</ele>
        <time>2011-03-20T07:58:35Z</time>
      </trkpt>
      <trkpt lat="47.19206" lon="-1.68217">
        <ele>11</ele>
        <time>2011-03-20T07:58:36Z</time>
      </trkpt>
      <trkpt lat="47.19205" lon="-1.68216">
        <ele>11</ele>
        <time>2011-03-20T08:03:51Z</time>
      </trkpt>
      <trkpt lat="47.19205" lon="-1.68216">
        <ele>11</ele>
        <time>2011-03-20T08:03:52Z</time>
      </trkpt>
      <trkpt lat="47.19202" lon="-1.68218">
        <ele>12</ele>
        <time>2011-03-20T08:03:56Z</time>
      </trkpt>
      <trkpt lat="47.19202" lon="-1.68218">
        <ele>12</ele>
        <time>2011-03-20T08:03:57Z</time>
      </trkpt>
      <trkpt lat="47.19201" lon="-1.6822">
        <ele>12</ele>
        <time>2011-03-20T08:04:04Z</time>
      </trkpt>
      <trkpt lat="47.19197" lon="-1.68222">
        <ele>12</ele>
        <time>2011-03-20T08:04:06Z</time>
      </trkpt>
      <trkpt lat="47.19184" lon="-1.68234">
        <ele>14</ele>
        <time>2011-03-20T08:04:13Z</time>
      </trkpt>
      <trkpt lat="47.19185" lon="-1.68249">
        <ele>15</ele>
        <time>2011-03-20T08:04:17Z</time>
      </trkpt>
      <trkpt lat="47.19192" lon="-1.68271">
        <ele>16</ele>
        <time>2011-03-20T08:04:22Z</time>
      </trkpt>
      <trkpt lat="47.19198" lon="-1.68308">
        <ele>16</ele>
        <time>2011-03-20T08:04:29Z</time>
      </trkpt>
      <trkpt lat="47.19195" lon="-1.68339">
        <ele>20</ele>
        <time>2011-03-20T08:04:35Z</time>
      </trkpt>
      <trkpt lat="47.19194" lon="-1.68359">
        <ele>19</ele>
        <time>2011-03-20T08:04:39Z</time>
      </trkpt>
      <trkpt lat="47.19198" lon="-1.68389">
        <ele>19</ele>
        <time>2011-03-20T08:04:45Z</time>
      </trkpt>
      <trkpt lat="47.19202" lon="-1.68421">
        <ele>21</ele>
        <time>2011-03-20T08:04:51Z</time>
      </trkpt>
      <trkpt lat="47.19203" lon="-1.68454">
        <ele>21</ele>
        <time>2011-03-20T08:04:57Z</time>
      </trkpt>
      <trkpt lat="47.19201" lon="-1.68483">
        <ele>22</ele>
        <time>2011-03-20T08:05:02Z</time>
      </trkpt>
      <trkpt lat="47.19204" lon="-1.68504">
        <ele>25</ele>
        <time>2011-03-20T08:05:06Z</time>
      </trkpt>
      <trkpt lat="47.19209" lon="-1.68513">
        <ele>24</ele>
        <time>2011-03-20T08:05:08Z</time>
      </trkpt>
      <trkpt lat="47.19226" lon="-1.68527">
        <ele>23</ele>
        <time>2011-03-20T08:05:13Z</time>
      </trkpt>
      <trkpt lat="47.19236" lon="-1.68547">
        <ele>23</ele>
        <time>2011-03-20T08:05:17Z</time>
      </trkpt>
      <trkpt lat="47.1924" lon="-1.68577">
        <ele>23</ele>
        <time>2011-03-20T08:05:22Z</time>
      </trkpt>
      <trkpt lat="47.1924" lon="-1.686">
        <ele>25</ele>
        <time>2011-03-20T08:05:26Z</time>
      </trkpt>
      <trkpt lat="47.19245" lon="-1.68628">
        <ele>27</ele>
        <time>2011-03-20T08:05:31Z</time>
      </trkpt>
      <trkpt lat="47.19244" lon="-1.68654">
        <ele>27</ele>
        <time>2011-03-20T08:05:36Z</time>
      </trkpt>
      <trkpt lat="47.19239" lon="-1.68689">
        <ele>28</ele>
        <time>2011-03-20T08:05:42Z</time>
      </trkpt>
      <trkpt lat="47.19227" lon="-1.68724">
        <ele>30</ele>
        <time>2011-03-20T08:05:49Z</time>
      </trkpt>
      <trkpt lat="47.19234" lon="-1.68757">
        <ele>30</ele>
        <time>2011-03-20T08:05:55Z</time>
      </trkpt>
      <trkpt lat="47.19242" lon="-1.68804">
        <ele>31</ele>
        <time>2011-03-20T08:06:03Z</time>
      </trkpt>
      <trkpt lat="47.19243" lon="-1.68838">
        <ele>31</ele>
        <time>2011-03-20T08:06:09Z</time>
      </trkpt>
      <trkpt lat="47.19256" lon="-1.68864">
        <ele>28</ele>
        <time>2011-03-20T08:06:15Z</time>
      </trkpt>
      <trkpt lat="47.19266" lon="-1.68882">
        <ele>28</ele>
        <time>2011-03-20T08:06:19Z</time>
      </trkpt>
      <trkpt lat="47.19291" lon="-1.68931">
        <ele>29</ele>
        <time>2011-03-20T08:06:28Z</time>
      </trkpt>
      <trkpt lat="47.19318" lon="-1.68986">
        <ele>29</ele>
        <time>2011-03-20T08:06:37Z</time>
      </trkpt>
      <trkpt lat="47.19324" lon="-1.68999">
        <ele>28</ele>
        <time>2011-03-20T08:06:39Z</time>
      </trkpt>
      <trkpt lat="47.19343" lon="-1.69029">
        <ele>22</ele>
        <time>2011-03-20T08:06:44Z</time>
      </trkpt>
      <trkpt lat="47.19355" lon="-1.69065">
        <ele>21</ele>
        <time>2011-03-20T08:06:49Z</time>
      </trkpt>
      <trkpt lat="47.1936" lon="-1.69086">
        <ele>21</ele>
        <time>2011-03-20T08:06:52Z</time>
      </trkpt>
      <trkpt lat="47.19378" lon="-1.69152">
        <ele>19</ele>
        <time>2011-03-20T08:06:59Z</time>
      </trkpt>
      <trkpt lat="47.19385" lon="-1.69174">
        <ele>19</ele>
        <time>2011-03-20T08:07:01Z</time>
      </trkpt>
      <trkpt lat="47.19388" lon="-1.69192">
        <ele>20</ele>
        <time>2011-03-20T08:07:03Z</time>
      </trkpt>
      <trkpt lat="47.19383" lon="-1.69203">
        <ele>20</ele>
        <time>2011-03-20T08:07:05Z</time>
      </trkpt>
      <trkpt lat="47.19378" lon="-1.69206">
        <ele>21</ele>
        <time>2011-03-20T08:07:06Z</time>
      </trkpt>
      <trkpt lat="47.19347" lon="-1.69225">
        <ele>23</ele>
        <time>2011-03-20T08:07:13Z</time>
      </trkpt>
      <trkpt lat="47.19338" lon="-1.6923">
        <ele>23</ele>
        <time>2011-03-20T08:07:15Z</time>
      </trkpt>
      <trkpt lat="47.19315" lon="-1.69252">
        <ele>26</ele>
        <time>2011-03-20T08:07:21Z</time>
      </trkpt>
      <trkpt lat="47.19311" lon="-1.69256">
        <ele>26</ele>
        <time>2011-03-20T08:07:22Z</time>
      </trkpt>
      <trkpt lat="47.19304" lon="-1.69264">
        <ele>26</ele>
        <time>2011-03-20T08:07:24Z</time>
      </trkpt>
      <trkpt lat="47.19297" lon="-1.69272">
        <ele>26</ele>
        <time>2011-03-20T08:07:26Z</time>
      </trkpt>
      <trkpt lat="47.19269" lon="-1.69296">
        <ele>26</ele>
        <time>2011-03-20T08:07:33Z</time>
      </trkpt>
      <trkpt lat="47.19226" lon="-1.69311">
        <ele>27</ele>
        <time>2011-03-20T08:07:42Z</time>
      </trkpt>
      <trkpt lat="47.19189" lon="-1.69325">
        <ele>28</ele>
        <time>2011-03-20T08:07:49Z</time>
      </trkpt>
      <trkpt lat="47.19154" lon="-1.69356">
        <ele>25</ele>
        <time>2011-03-20T08:07:56Z</time>
      </trkpt>
      <trkpt lat="47.19122" lon="-1.6939">
        <ele>24</ele>
        <time>2011-03-20T08:08:02Z</time>
      </trkpt>
      <trkpt lat="47.19113" lon="-1.69399">
        <ele>24</ele>
        <time>2011-03-20T08:08:04Z</time>
      </trkpt>
      <trkpt lat="47.19094" lon="-1.6942">
        <ele>21</ele>
        <time>2011-03-20T08:08:09Z</time>
      </trkpt>
      <trkpt lat="47.19086" lon="-1.69426">
        <ele>21</ele>
        <time>2011-03-20T08:08:12Z</time>
      </trkpt>
      <trkpt lat="47.19069" lon="-1.69423">
        <ele>21</ele>
        <time>2011-03-20T08:08:17Z</time>
      </trkpt>
      <trkpt lat="47.19069" lon="-1.69435">
        <ele>21</ele>
        <time>2011-03-20T08:08:19Z</time>
      </trkpt>
      <trkpt lat="47.19078" lon="-1.69481">
        <ele>19</ele>
        <time>2011-03-20T08:08:24Z</time>
      </trkpt>
      <trkpt lat="47.1908" lon="-1.69492">
        <ele>18</ele>
        <time>2011-03-20T08:08:25Z</time>
      </trkpt>
      <trkpt lat="47.19083" lon="-1.69512">
        <ele>16</ele>
        <time>2011-03-20T08:08:27Z</time>
      </trkpt>
      <trkpt lat="47.19084" lon="-1.69529">
        <ele>16</ele>
        <time>2011-03-20T08:08:29Z</time>
      </trkpt>
      <trkpt lat="47.1908" lon="-1.69546">
        <ele>19</ele>
        <time>2011-03-20T08:08:31Z</time>
      </trkpt>
      <trkpt lat="47.19066" lon="-1.69575">
        <ele>20</ele>
        <time>2011-03-20T08:08:35Z</time>
      </trkpt>
      <trkpt lat="47.19047" lon="-1.69576">
        <ele>21</ele>
        <time>2011-03-20T08:08:40Z</time>
      </trkpt>
      <trkpt lat="47.19045" lon="-1.69574">
        <ele>21</ele>
        <time>2011-03-20T08:08:41Z</time>
      </trkpt>
      <trkpt lat="47.19043" lon="-1.69573">
        <ele>21</ele>
        <time>2011-03-20T08:08:42Z</time>
      </trkpt>
      <trkpt lat="47.19019" lon="-1.69566">
        <ele>22</ele>
        <time>2011-03-20T08:08:47Z</time>
      </trkpt>
      <trkpt lat="47.19014" lon="-1.69564">
        <ele>22</ele>
        <time>2011-03-20T08:08:48Z</time>
      </trkpt>
      <trkpt lat="47.18995" lon="-1.69541">
        <ele>24</ele>
        <time>2011-03-20T08:08:54Z</time>
      </trkpt>
      <trkpt lat="47.18979" lon="-1.69523">
        <ele>24</ele>
        <time>2011-03-20T08:08:59Z</time>
      </trkpt>
      <trkpt lat="47.18976" lon="-1.69518">
        <ele>24</ele>
        <time>2011-03-20T08:09:00Z</time>
      </trkpt>
      <trkpt lat="47.18961" lon="-1.69492">
        <ele>24</ele>
        <time>2011-03-20T08:09:07Z</time>
      </trkpt>
      <trkpt lat="47.18956" lon="-1.69481">
        <ele>24</ele>
        <time>2011-03-20T08:09:11Z</time>
      </trkpt>
      <trkpt lat="47.18954" lon="-1.69473">
        <ele>24</ele>
        <time>2011-03-20T08:09:14Z</time>
      </trkpt>
      <trkpt lat="47.18953" lon="-1.69464">
        <ele>24</ele>
        <time>2011-03-20T08:09:18Z</time>
      </trkpt>
      <trkpt lat="47.18951" lon="-1.69448">
        <ele>24</ele>
        <time>2011-03-20T08:09:23Z</time>
      </trkpt>
      <trkpt lat="47.18945" lon="-1.69425">
        <ele>24</ele>
        <time>2011-03-20T08:09:29Z</time>
      </trkpt>
      <trkpt lat="47.18931" lon="-1.69421">
        <ele>24</ele>
        <time>2011-03-20T08:09:34Z</time>
      </trkpt>
      <trkpt lat="47.18924" lon="-1.69436">
        <ele>24</ele>
        <time>2011-03-20T08:09:39Z</time>
      </trkpt>
      <trkpt lat="47.18914" lon="-1.69458">
        <ele>23</ele>
        <time>2011-03-20T08:09:43Z</time>
      </trkpt>
      <trkpt lat="47.18912" lon="-1.69464">
        <ele>23</ele>
        <time>2011-03-20T08:09:44Z</time>
      </trkpt>
      <trkpt lat="47.18892" lon="-1.69482">
        <ele>23</ele>
        <time>2011-03-20T08:09:50Z</time>
      </trkpt>
      <trkpt lat="47.18878" lon="-1.69498">
        <ele>23</ele>
        <time>2011-03-20T08:09:54Z</time>
      </trkpt>
      <trkpt lat="47.18877" lon="-1.695">
        <ele>24</ele>
        <time>2011-03-20T08:09:55Z</time>
      </trkpt>
      <trkpt lat="47.18873" lon="-1.69509">
        <ele>24</ele>
        <time>2011-03-20T08:09:57Z</time>
      </trkpt>
      <trkpt lat="47.18867" lon="-1.69525">
        <ele>24</ele>
        <time>2011-03-20T08:10:02Z</time>
      </trkpt>
      <trkpt lat="47.18866" lon="-1.69529">
        <ele>24</ele>
        <time>2011-03-20T08:10:04Z</time>
      </trkpt>
      <trkpt lat="47.18856" lon="-1.69529">
        <ele>25</ele>
        <time>2011-03-20T08:10:09Z</time>
      </trkpt>
      <trkpt lat="47.18844" lon="-1.69519">
        <ele>25</ele>
        <time>2011-03-20T08:10:14Z</time>
      </trkpt>
      <trkpt lat="47.18833" lon="-1.695">
        <ele>25</ele>
        <time>2011-03-20T08:10:19Z</time>
      </trkpt>
      <trkpt lat="47.18828" lon="-1.69483">
        <ele>25</ele>
        <time>2011-03-20T08:10:24Z</time>
      </trkpt>
      <trkpt lat="47.18827" lon="-1.69478">
        <ele>25</ele>
        <time>2011-03-20T08:10:25Z</time>
      </trkpt>
      <trkpt lat="47.1882" lon="-1.69476">
        <ele>25</ele>
        <time>2011-03-20T08:10:29Z</time>
      </trkpt>
      <trkpt lat="47.18819" lon="-1.69483">
        <ele>25</ele>
        <time>2011-03-20T08:10:32Z</time>
      </trkpt>
      <trkpt lat="47.1882" lon="-1.69491">
        <ele>25</ele>
        <time>2011-03-20T08:10:34Z</time>
      </trkpt>
      <trkpt lat="47.18815" lon="-1.69512">
        <ele>26</ele>
        <time>2011-03-20T08:10:40Z</time>
      </trkpt>
      <trkpt lat="47.18813" lon="-1.69519">
        <ele>26</ele>
        <time>2011-03-20T08:10:42Z</time>
      </trkpt>
      <trkpt lat="47.18819" lon="-1.69528">
        <ele>26</ele>
        <time>2011-03-20T08:10:46Z</time>
      </trkpt>
      <trkpt lat="47.18828" lon="-1.69534">
        <ele>26</ele>
        <time>2011-03-20T08:10:50Z</time>
      </trkpt>
      <trkpt lat="47.18831" lon="-1.69538">
        <ele>26</ele>
        <time>2011-03-20T08:10:53Z</time>
      </trkpt>
      <trkpt lat="47.18838" lon="-1.6954">
        <ele>25</ele>
        <time>2011-03-20T08:10:57Z</time>
      </trkpt>
      <trkpt lat="47.18843" lon="-1.69553">
        <ele>25</ele>
        <time>2011-03-20T08:11:02Z</time>
      </trkpt>
      <trkpt lat="47.18847" lon="-1.69558">
        <ele>25</ele>
        <time>2011-03-20T08:11:05Z</time>
      </trkpt>
      <trkpt lat="47.18856" lon="-1.69559">
        <ele>25</ele>
        <time>2011-03-20T08:11:09Z</time>
      </trkpt>
      <trkpt lat="47.18863" lon="-1.69555">
        <ele>25</ele>
        <time>2011-03-20T08:11:11Z</time>
      </trkpt>
      <trkpt lat="47.1888" lon="-1.69549">
        <ele>25</ele>
        <time>2011-03-20T08:11:15Z</time>
      </trkpt>
      <trkpt lat="47.18897" lon="-1.69557">
        <ele>25</ele>
        <time>2011-03-20T08:11:19Z</time>
      </trkpt>
      <trkpt lat="47.18906" lon="-1.69569">
        <ele>25</ele>
        <time>2011-03-20T08:11:22Z</time>
      </trkpt>
      <trkpt lat="47.18924" lon="-1.69572">
        <ele>25</ele>
        <time>2011-03-20T08:11:27Z</time>
      </trkpt>
      <trkpt lat="47.18938" lon="-1.69569">
        <ele>24</ele>
        <time>2011-03-20T08:11:31Z</time>
      </trkpt>
      <trkpt lat="47.18946" lon="-1.69571">
        <ele>24</ele>
        <time>2011-03-20T08:11:33Z</time>
      </trkpt>
      <trkpt lat="47.18959" lon="-1.69575">
        <ele>24</ele>
        <time>2011-03-20T08:11:36Z</time>
      </trkpt>
      <trkpt lat="47.18976" lon="-1.69589">
        <ele>25</ele>
        <time>2011-03-20T08:11:40Z</time>
      </trkpt>
      <trkpt lat="47.18991" lon="-1.69601">
        <ele>25</ele>
        <time>2011-03-20T08:11:44Z</time>
      </trkpt>
      <trkpt lat="47.19004" lon="-1.69605">
        <ele>23</ele>
        <time>2011-03-20T08:11:46Z</time>
      </trkpt>
      <trkpt lat="47.19016" lon="-1.69605">
        <ele>23</ele>
        <time>2011-03-20T08:11:48Z</time>
      </trkpt>
      <trkpt lat="47.1903" lon="-1.696">
        <ele>22</ele>
        <time>2011-03-20T08:11:50Z</time>
      </trkpt>
      <trkpt lat="47.1905" lon="-1.69595">
        <ele>21</ele>
        <time>2011-03-20T08:11:54Z</time>
      </trkpt>
      <trkpt lat="47.19058" lon="-1.69603">
        <ele>21</ele>
        <time>2011-03-20T08:11:58Z</time>
      </trkpt>
      <trkpt lat="47.1906" lon="-1.69605">
        <ele>21</ele>
        <time>2011-03-20T08:11:59Z</time>
      </trkpt>
      <trkpt lat="47.19068" lon="-1.69624">
        <ele>21</ele>
        <time>2011-03-20T08:12:06Z</time>
      </trkpt>
      <trkpt lat="47.19069" lon="-1.69635">
        <ele>21</ele>
        <time>2011-03-20T08:12:10Z</time>
      </trkpt>
      <trkpt lat="47.1907" lon="-1.69648">
        <ele>21</ele>
        <time>2011-03-20T08:12:14Z</time>
      </trkpt>
      <trkpt lat="47.19072" lon="-1.69655">
        <ele>21</ele>
        <time>2011-03-20T08:12:17Z</time>
      </trkpt>
      <trkpt lat="47.19083" lon="-1.69653">
        <ele>20</ele>
        <time>2011-03-20T08:12:22Z</time>
      </trkpt>
      <trkpt lat="47.19089" lon="-1.69654">
        <ele>18</ele>
        <time>2011-03-20T08:12:26Z</time>
      </trkpt>
      <trkpt lat="47.1909" lon="-1.69655">
        <ele>18</ele>
        <time>2011-03-20T08:12:27Z</time>
      </trkpt>
      <trkpt lat="47.19096" lon="-1.69661">
        <ele>18</ele>
        <time>2011-03-20T08:12:32Z</time>
      </trkpt>
      <trkpt lat="47.19095" lon="-1.69667">
        <ele>18</ele>
        <time>2011-03-20T08:12:34Z</time>
      </trkpt>
      <trkpt lat="47.19089" lon="-1.69684">
        <ele>17</ele>
        <time>2011-03-20T08:12:40Z</time>
      </trkpt>
      <trkpt lat="47.19087" lon="-1.69686">
        <ele>17</ele>
        <time>2011-03-20T08:12:41Z</time>
      </trkpt>
      <trkpt lat="47.19076" lon="-1.69687">
        <ele>20</ele>
        <time>2011-03-20T08:12:47Z</time>
      </trkpt>
      <trkpt lat="47.19068" lon="-1.69683">
        <ele>20</ele>
        <time>2011-03-20T08:12:51Z</time>
      </trkpt>
      <trkpt lat="47.19065" lon="-1.69682">
        <ele>20</ele>
        <time>2011-03-20T08:12:52Z</time>
      </trkpt>
      <trkpt lat="47.19053" lon="-1.69688">
        <ele>20</ele>
        <time>2011-03-20T08:12:57Z</time>
      </trkpt>
      <trkpt lat="47.19052" lon="-1.69699">
        <ele>20</ele>
        <time>2011-03-20T08:13:01Z</time>
      </trkpt>
      <trkpt lat="47.19052" lon="-1.69706">
        <ele>20</ele>
        <time>2011-03-20T08:13:03Z</time>
      </trkpt>
      <trkpt lat="47.19044" lon="-1.69732">
        <ele>19</ele>
        <time>2011-03-20T08:13:09Z</time>
      </trkpt>
      <trkpt lat="47.19049" lon="-1.69753">
        <ele>17</ele>
        <time>2011-03-20T08:13:13Z</time>
      </trkpt>
      <trkpt lat="47.19047" lon="-1.69769">
        <ele>17</ele>
        <time>2011-03-20T08:13:16Z</time>
      </trkpt>
      <trkpt lat="47.19044" lon="-1.69781">
        <ele>17</ele>
        <time>2011-03-20T08:13:19Z</time>
      </trkpt>
      <trkpt lat="47.19037" lon="-1.69792">
        <ele>17</ele>
        <time>2011-03-20T08:13:25Z</time>
      </trkpt>
      <trkpt lat="47.19034" lon="-1.69782">
        <ele>17</ele>
        <time>2011-03-20T08:13:28Z</time>
      </trkpt>
      <trkpt lat="47.1903" lon="-1.69767">
        <ele>18</ele>
        <time>2011-03-20T08:13:32Z</time>
      </trkpt>
      <trkpt lat="47.19029" lon="-1.69754">
        <ele>18</ele>
        <time>2011-03-20T08:13:36Z</time>
      </trkpt>
      <trkpt lat="47.19032" lon="-1.69744">
        <ele>20</ele>
        <time>2011-03-20T08:13:39Z</time>
      </trkpt>
      <trkpt lat="47.19035" lon="-1.69731">
        <ele>20</ele>
        <time>2011-03-20T08:13:43Z</time>
      </trkpt>
      <trkpt lat="47.19038" lon="-1.69714">
        <ele>20</ele>
        <time>2011-03-20T08:13:48Z</time>
      </trkpt>
      <trkpt lat="47.19045" lon="-1.69697">
        <ele>20</ele>
        <time>2011-03-20T08:13:53Z</time>
      </trkpt>
      <trkpt lat="47.19045" lon="-1.69692">
        <ele>20</ele>
        <time>2011-03-20T08:13:56Z</time>
      </trkpt>
      <trkpt lat="47.19051" lon="-1.6968">
        <ele>20</ele>
        <time>2011-03-20T08:14:00Z</time>
      </trkpt>
      <trkpt lat="47.19059" lon="-1.69655">
        <ele>21</ele>
        <time>2011-03-20T08:14:06Z</time>
      </trkpt>
      <trkpt lat="47.19059" lon="-1.69651">
        <ele>21</ele>
        <time>2011-03-20T08:14:07Z</time>
      </trkpt>
      <trkpt lat="47.19055" lon="-1.69635">
        <ele>21</ele>
        <time>2011-03-20T08:14:10Z</time>
      </trkpt>
      <trkpt lat="47.1905" lon="-1.69616">
        <ele>21</ele>
        <time>2011-03-20T08:14:14Z</time>
      </trkpt>
      <trkpt lat="47.19042" lon="-1.69612">
        <ele>21</ele>
        <time>2011-03-20T08:14:17Z</time>
      </trkpt>
      <trkpt lat="47.19039" lon="-1.69611">
        <ele>22</ele>
        <time>2011-03-20T08:14:18Z</time>
      </trkpt>
      <trkpt lat="47.19035" lon="-1.69613">
        <ele>22</ele>
        <time>2011-03-20T08:14:20Z</time>
      </trkpt>
      <trkpt lat="47.19025" lon="-1.69619">
        <ele>22</ele>
        <time>2011-03-20T08:14:26Z</time>
      </trkpt>
      <trkpt lat="47.19024" lon="-1.69616">
        <ele>22</ele>
        <time>2011-03-20T08:14:30Z</time>
      </trkpt>
      <trkpt lat="47.19023" lon="-1.69616">
        <ele>22</ele>
        <time>2011-03-20T08:14:33Z</time>
      </trkpt>
      <trkpt lat="47.19021" lon="-1.69614">
        <ele>22</ele>
        <time>2011-03-20T08:14:34Z</time>
      </trkpt>
      <trkpt lat="47.19019" lon="-1.69612">
        <ele>22</ele>
        <time>2011-03-20T08:14:35Z</time>
      </trkpt>
      <trkpt lat="47.19011" lon="-1.69613">
        <ele>23</ele>
        <time>2011-03-20T08:14:39Z</time>
      </trkpt>
      <trkpt lat="47.19004" lon="-1.6962">
        <ele>22</ele>
        <time>2011-03-20T08:14:44Z</time>
      </trkpt>
      <trkpt lat="47.19004" lon="-1.69625">
        <ele>22</ele>
        <time>2011-03-20T08:14:47Z</time>
      </trkpt>
      <trkpt lat="47.19008" lon="-1.69632">
        <ele>22</ele>
        <time>2011-03-20T08:14:51Z</time>
      </trkpt>
      <trkpt lat="47.19024" lon="-1.69649">
        <ele>22</ele>
        <time>2011-03-20T08:14:58Z</time>
      </trkpt>
      <trkpt lat="47.19033" lon="-1.69671">
        <ele>21</ele>
        <time>2011-03-20T08:15:03Z</time>
      </trkpt>
      <trkpt lat="47.19034" lon="-1.69675">
        <ele>21</ele>
        <time>2011-03-20T08:15:04Z</time>
      </trkpt>
      <trkpt lat="47.1903" lon="-1.69685">
        <ele>21</ele>
        <time>2011-03-20T08:15:09Z</time>
      </trkpt>
      <trkpt lat="47.19028" lon="-1.69687">
        <ele>21</ele>
        <time>2011-03-20T08:15:10Z</time>
      </trkpt>
      <trkpt lat="47.19018" lon="-1.69694">
        <ele>21</ele>
        <time>2011-03-20T08:15:15Z</time>
      </trkpt>
      <trkpt lat="47.19005" lon="-1.69709">
        <ele>21</ele>
        <time>2011-03-20T08:15:20Z</time>
      </trkpt>
      <trkpt lat="47.18993" lon="-1.6972">
        <ele>22</ele>
        <time>2011-03-20T08:15:25Z</time>
      </trkpt>
      <trkpt lat="47.18989" lon="-1.69723">
        <ele>22</ele>
        <time>2011-03-20T08:15:27Z</time>
      </trkpt>
      <trkpt lat="47.18978" lon="-1.6974">
        <ele>22</ele>
        <time>2011-03-20T08:15:32Z</time>
      </trkpt>
      <trkpt lat="47.18973" lon="-1.69747">
        <ele>22</ele>
        <time>2011-03-20T08:15:36Z</time>
      </trkpt>
      <trkpt lat="47.18971" lon="-1.69748">
        <ele>22</ele>
        <time>2011-03-20T08:15:39Z</time>
      </trkpt>
      <trkpt lat="47.18966" lon="-1.69752">
        <ele>21</ele>
        <time>2011-03-20T08:15:40Z</time>
      </trkpt>
      <trkpt lat="47.18951" lon="-1.69761">
        <ele>22</ele>
        <time>2011-03-20T08:15:45Z</time>
      </trkpt>
      <trkpt lat="47.18937" lon="-1.69773">
        <ele>22</ele>
        <time>2011-03-20T08:15:50Z</time>
      </trkpt>
      <trkpt lat="47.18911" lon="-1.69787">
        <ele>23</ele>
        <time>2011-03-20T08:15:57Z</time>
      </trkpt>
      <trkpt lat="47.18913" lon="-1.69802">
        <ele>23</ele>
        <time>2011-03-20T08:16:01Z</time>
      </trkpt>
      <trkpt lat="47.18926" lon="-1.69827">
        <ele>21</ele>
        <time>2011-03-20T08:16:05Z</time>
      </trkpt>
      <trkpt lat="47.18931" lon="-1.69838">
        <ele>20</ele>
        <time>2011-03-20T08:16:07Z</time>
      </trkpt>
      <trkpt lat="47.18943" lon="-1.6988">
        <ele>20</ele>
        <time>2011-03-20T08:16:13Z</time>
      </trkpt>
      <trkpt lat="47.18945" lon="-1.69893">
        <ele>20</ele>
        <time>2011-03-20T08:16:15Z</time>
      </trkpt>
      <trkpt lat="47.18952" lon="-1.69906">
        <ele>20</ele>
        <time>2011-03-20T08:16:18Z</time>
      </trkpt>
      <trkpt lat="47.18961" lon="-1.69927">
        <ele>18</ele>
        <time>2011-03-20T08:16:22Z</time>
      </trkpt>
      <trkpt lat="47.1897" lon="-1.6996">
        <ele>18</ele>
        <time>2011-03-20T08:16:28Z</time>
      </trkpt>
      <trkpt lat="47.1897" lon="-1.6997">
        <ele>18</ele>
        <time>2011-03-20T08:16:30Z</time>
      </trkpt>
      <trkpt lat="47.18962" lon="-1.69987">
        <ele>18</ele>
        <time>2011-03-20T08:16:34Z</time>
      </trkpt>
      <trkpt lat="47.18949" lon="-1.70003">
        <ele>17</ele>
        <time>2011-03-20T08:16:39Z</time>
      </trkpt>
      <trkpt lat="47.1895" lon="-1.70016">
        <ele>17</ele>
        <time>2011-03-20T08:16:42Z</time>
      </trkpt>
      <trkpt lat="47.18952" lon="-1.70037">
        <ele>17</ele>
        <time>2011-03-20T08:16:46Z</time>
      </trkpt>
      <trkpt lat="47.18958" lon="-1.70052">
        <ele>17</ele>
        <time>2011-03-20T08:16:50Z</time>
      </trkpt>
      <trkpt lat="47.1896" lon="-1.7007">
        <ele>16</ele>
        <time>2011-03-20T08:16:54Z</time>
      </trkpt>
      <trkpt lat="47.18963" lon="-1.70088">
        <ele>16</ele>
        <time>2011-03-20T08:16:58Z</time>
      </trkpt>
      <trkpt lat="47.18963" lon="-1.70091">
        <ele>16</ele>
        <time>2011-03-20T08:16:59Z</time>
      </trkpt>
      <trkpt lat="47.18962" lon="-1.70101">
        <ele>16</ele>
        <time>2011-03-20T08:17:01Z</time>
      </trkpt>
      <trkpt lat="47.18955" lon="-1.7012">
        <ele>16</ele>
        <time>2011-03-20T08:17:07Z</time>
      </trkpt>
      <trkpt lat="47.18949" lon="-1.70127">
        <ele>16</ele>
        <time>2011-03-20T08:17:11Z</time>
      </trkpt>
      <trkpt lat="47.1895" lon="-1.70134">
        <ele>16</ele>
        <time>2011-03-20T08:17:13Z</time>
      </trkpt>
      <trkpt lat="47.18955" lon="-1.70151">
        <ele>16</ele>
        <time>2011-03-20T08:17:16Z</time>
      </trkpt>
      <trkpt lat="47.18952" lon="-1.70181">
        <ele>17</ele>
        <time>2011-03-20T08:17:21Z</time>
      </trkpt>
      <trkpt lat="47.18943" lon="-1.70186">
        <ele>17</ele>
        <time>2011-03-20T08:17:23Z</time>
      </trkpt>
      <trkpt lat="47.18909" lon="-1.70194">
        <ele>23</ele>
        <time>2011-03-20T08:17:30Z</time>
      </trkpt>
      <trkpt lat="47.18904" lon="-1.70196">
        <ele>24</ele>
        <time>2011-03-20T08:17:31Z</time>
      </trkpt>
      <trkpt lat="47.18865" lon="-1.70204">
        <ele>26</ele>
        <time>2011-03-20T08:17:39Z</time>
      </trkpt>
      <trkpt lat="47.18845" lon="-1.70207">
        <ele>26</ele>
        <time>2011-03-20T08:17:43Z</time>
      </trkpt>
      <trkpt lat="47.1883" lon="-1.70209">
        <ele>29</ele>
        <time>2011-03-20T08:17:46Z</time>
      </trkpt>
      <trkpt lat="47.18819" lon="-1.70217">
        <ele>29</ele>
        <time>2011-03-20T08:17:49Z</time>
      </trkpt>
      <trkpt lat="47.18804" lon="-1.70231">
        <ele>29</ele>
        <time>2011-03-20T08:17:53Z</time>
      </trkpt>
      <trkpt lat="47.18798" lon="-1.70239">
        <ele>29</ele>
        <time>2011-03-20T08:17:55Z</time>
      </trkpt>
      <trkpt lat="47.18775" lon="-1.70256">
        <ele>28</ele>
        <time>2011-03-20T08:18:00Z</time>
      </trkpt>
      <trkpt lat="47.18749" lon="-1.70264">
        <ele>27</ele>
        <time>2011-03-20T08:18:06Z</time>
      </trkpt>
      <trkpt lat="47.18739" lon="-1.70264">
        <ele>26</ele>
        <time>2011-03-20T08:18:08Z</time>
      </trkpt>
      <trkpt lat="47.18707" lon="-1.70268">
        <ele>25</ele>
        <time>2011-03-20T08:18:14Z</time>
      </trkpt>
      <trkpt lat="47.18702" lon="-1.7027">
        <ele>25</ele>
        <time>2011-03-20T08:18:15Z</time>
      </trkpt>
      <trkpt lat="47.18676" lon="-1.70274">
        <ele>24</ele>
        <time>2011-03-20T08:18:21Z</time>
      </trkpt>
      <trkpt lat="47.18672" lon="-1.70276">
        <ele>24</ele>
        <time>2011-03-20T08:18:25Z</time>
      </trkpt>
      <trkpt lat="47.18671" lon="-1.7028">
        <ele>24</ele>
        <time>2011-03-20T08:18:29Z</time>
      </trkpt>
      <trkpt lat="47.18659" lon="-1.70283">
        <ele>22</ele>
        <time>2011-03-20T08:18:35Z</time>
      </trkpt>
      <trkpt lat="47.18647" lon="-1.70293">
        <ele>22</ele>
        <time>2011-03-20T08:18:39Z</time>
      </trkpt>
      <trkpt lat="47.18639" lon="-1.70298">
        <ele>22</ele>
        <time>2011-03-20T08:18:42Z</time>
      </trkpt>
      <trkpt lat="47.18626" lon="-1.703">
        <ele>22</ele>
        <time>2011-03-20T08:18:47Z</time>
      </trkpt>
      <trkpt lat="47.1862" lon="-1.70307">
        <ele>21</ele>
        <time>2011-03-20T08:18:50Z</time>
      </trkpt>
      <trkpt lat="47.18618" lon="-1.70307">
        <ele>21</ele>
        <time>2011-03-20T08:18:51Z</time>
      </trkpt>
      <trkpt lat="47.18606" lon="-1.70317">
        <ele>21</ele>
        <time>2011-03-20T08:18:55Z</time>
      </trkpt>
      <trkpt lat="47.18594" lon="-1.70322">
        <ele>21</ele>
        <time>2011-03-20T08:19:00Z</time>
      </trkpt>
      <trkpt lat="47.18585" lon="-1.70328">
        <ele>20</ele>
        <time>2011-03-20T08:19:03Z</time>
      </trkpt>
      <trkpt lat="47.18559" lon="-1.70338">
        <ele>20</ele>
        <time>2011-03-20T08:19:10Z</time>
      </trkpt>
      <trkpt lat="47.18545" lon="-1.70344">
        <ele>20</ele>
        <time>2011-03-20T08:19:14Z</time>
      </trkpt>
      <trkpt lat="47.18539" lon="-1.70334">
        <ele>21</ele>
        <time>2011-03-20T08:19:18Z</time>
      </trkpt>
      <trkpt lat="47.18532" lon="-1.70322">
        <ele>21</ele>
        <time>2011-03-20T08:19:22Z</time>
      </trkpt>
      <trkpt lat="47.18508" lon="-1.70319">
        <ele>21</ele>
        <time>2011-03-20T08:19:28Z</time>
      </trkpt>
      <trkpt lat="47.18475" lon="-1.70317">
        <ele>21</ele>
        <time>2011-03-20T08:19:36Z</time>
      </trkpt>
      <trkpt lat="47.18461" lon="-1.70314">
        <ele>21</ele>
        <time>2011-03-20T08:19:39Z</time>
      </trkpt>
      <trkpt lat="47.1843" lon="-1.70301">
        <ele>22</ele>
        <time>2011-03-20T08:19:46Z</time>
      </trkpt>
      <trkpt lat="47.18402" lon="-1.70294">
        <ele>22</ele>
        <time>2011-03-20T08:19:52Z</time>
      </trkpt>
      <trkpt lat="47.18385" lon="-1.70281">
        <ele>22</ele>
        <time>2011-03-20T08:19:56Z</time>
      </trkpt>
      <trkpt lat="47.18364" lon="-1.70252">
        <ele>23</ele>
        <time>2011-03-20T08:20:02Z</time>
      </trkpt>
      <trkpt lat="47.18344" lon="-1.70233">
        <ele>24</ele>
        <time>2011-03-20T08:20:07Z</time>
      </trkpt>
      <trkpt lat="47.18299" lon="-1.70222">
        <ele>25</ele>
        <time>2011-03-20T08:20:16Z</time>
      </trkpt>
      <trkpt lat="47.18261" lon="-1.70213">
        <ele>25</ele>
        <time>2011-03-20T08:20:24Z</time>
      </trkpt>
      <trkpt lat="47.18233" lon="-1.70223">
        <ele>26</ele>
        <time>2011-03-20T08:20:30Z</time>
      </trkpt>
      <trkpt lat="47.18196" lon="-1.70261">
        <ele>27</ele>
        <time>2011-03-20T08:20:39Z</time>
      </trkpt>
      <trkpt lat="47.18167" lon="-1.70294">
        <ele>27</ele>
        <time>2011-03-20T08:20:46Z</time>
      </trkpt>
      <trkpt lat="47.18152" lon="-1.70303">
        <ele>27</ele>
        <time>2011-03-20T08:20:49Z</time>
      </trkpt>
      <trkpt lat="47.18131" lon="-1.70307">
        <ele>27</ele>
        <time>2011-03-20T08:20:53Z</time>
      </trkpt>
      <trkpt lat="47.18082" lon="-1.70299">
        <ele>28</ele>
        <time>2011-03-20T08:21:02Z</time>
      </trkpt>
      <trkpt lat="47.18053" lon="-1.70297">
        <ele>28</ele>
        <time>2011-03-20T08:21:08Z</time>
      </trkpt>
      <trkpt lat="47.18048" lon="-1.70298">
        <ele>28</ele>
        <time>2011-03-20T08:21:09Z</time>
      </trkpt>
      <trkpt lat="47.18039" lon="-1.70316">
        <ele>27</ele>
        <time>2011-03-20T08:21:13Z</time>
      </trkpt>
      <trkpt lat="47.18038" lon="-1.70323">
        <ele>27</ele>
        <time>2011-03-20T08:21:14Z</time>
      </trkpt>
      <trkpt lat="47.18034" lon="-1.70408">
        <ele>28</ele>
        <time>2011-03-20T08:21:25Z</time>
      </trkpt>
      <trkpt lat="47.18029" lon="-1.70456">
        <ele>30</ele>
        <time>2011-03-20T08:21:31Z</time>
      </trkpt>
      <trkpt lat="47.18012" lon="-1.70487">
        <ele>30</ele>
        <time>2011-03-20T08:21:36Z</time>
      </trkpt>
      <trkpt lat="47.18001" lon="-1.70494">
        <ele>31</ele>
        <time>2011-03-20T08:21:38Z</time>
      </trkpt>
      <trkpt lat="47.17934" lon="-1.70519">
        <ele>30</ele>
        <time>2011-03-20T08:21:50Z</time>
      </trkpt>
      <trkpt lat="47.17884" lon="-1.70538">
        <ele>29</ele>
        <time>2011-03-20T08:21:59Z</time>
      </trkpt>
      <trkpt lat="47.17845" lon="-1.70553">
        <ele>29</ele>
        <time>2011-03-20T08:22:07Z</time>
      </trkpt>
      <trkpt lat="47.17835" lon="-1.70557">
        <ele>29</ele>
        <time>2011-03-20T08:22:09Z</time>
      </trkpt>
      <trkpt lat="47.17823" lon="-1.70577">
        <ele>28</ele>
        <time>2011-03-20T08:22:13Z</time>
      </trkpt>
      <trkpt lat="47.17824" lon="-1.7059">
        <ele>28</ele>
        <time>2011-03-20T08:22:15Z</time>
      </trkpt>
      <trkpt lat="47.17843" lon="-1.70648">
        <ele>28</ele>
        <time>2011-03-20T08:22:23Z</time>
      </trkpt>
      <trkpt lat="47.17846" lon="-1.70655">
        <ele>28</ele>
        <time>2011-03-20T08:22:24Z</time>
      </trkpt>
      <trkpt lat="47.17861" lon="-1.70686">
        <ele>28</ele>
        <time>2011-03-20T08:22:29Z</time>
      </trkpt>
      <trkpt lat="47.17858" lon="-1.70703">
        <ele>28</ele>
        <time>2011-03-20T08:22:32Z</time>
      </trkpt>
      <trkpt lat="47.17853" lon="-1.707">
        <ele>28</ele>
        <time>2011-03-20T08:22:35Z</time>
      </trkpt>
      <trkpt lat="47.17851" lon="-1.70695">
        <ele>28</ele>
        <time>2011-03-20T08:22:36Z</time>
      </trkpt>
      <trkpt lat="47.1783" lon="-1.70632">
        <ele>28</ele>
        <time>2011-03-20T08:22:45Z</time>
      </trkpt>
      <trkpt lat="47.17808" lon="-1.70557">
        <ele>29</ele>
        <time>2011-03-20T08:22:55Z</time>
      </trkpt>
      <trkpt lat="47.17797" lon="-1.70495">
        <ele>29</ele>
        <time>2011-03-20T08:23:03Z</time>
      </trkpt>
      <trkpt lat="47.17793" lon="-1.70416">
        <ele>29</ele>
        <time>2011-03-20T08:23:13Z</time>
      </trkpt>
      <trkpt lat="47.17791" lon="-1.70347">
        <ele>29</ele>
        <time>2011-03-20T08:23:22Z</time>
      </trkpt>
      <trkpt lat="47.17789" lon="-1.7031">
        <ele>29</ele>
        <time>2011-03-20T08:23:27Z</time>
      </trkpt>
      <trkpt lat="47.17781" lon="-1.70277">
        <ele>28</ele>
        <time>2011-03-20T08:23:32Z</time>
      </trkpt>
      <trkpt lat="47.17764" lon="-1.70251">
        <ele>28</ele>
        <time>2011-03-20T08:23:37Z</time>
      </trkpt>
      <trkpt lat="47.17758" lon="-1.70242">
        <ele>28</ele>
        <time>2011-03-20T08:23:39Z</time>
      </trkpt>
      <trkpt lat="47.17747" lon="-1.70245">
        <ele>28</ele>
        <time>2011-03-20T08:23:43Z</time>
      </trkpt>
      <trkpt lat="47.17731" lon="-1.70271">
        <ele>29</ele>
        <time>2011-03-20T08:23:48Z</time>
      </trkpt>
      <trkpt lat="47.17721" lon="-1.70275">
        <ele>29</ele>
        <time>2011-03-20T08:23:50Z</time>
      </trkpt>
      <trkpt lat="47.17701" lon="-1.70291">
        <ele>29</ele>
        <time>2011-03-20T08:23:54Z</time>
      </trkpt>
      <trkpt lat="47.17654" lon="-1.70347">
        <ele>29</ele>
        <time>2011-03-20T08:24:04Z</time>
      </trkpt>
      <trkpt lat="47.17635" lon="-1.70372">
        <ele>29</ele>
        <time>2011-03-20T08:24:08Z</time>
      </trkpt>
      <trkpt lat="47.17617" lon="-1.70414">
        <ele>28</ele>
        <time>2011-03-20T08:24:13Z</time>
      </trkpt>
      <trkpt lat="47.1761" lon="-1.70441">
        <ele>28</ele>
        <time>2011-03-20T08:24:16Z</time>
      </trkpt>
      <trkpt lat="47.17613" lon="-1.70478">
        <ele>28</ele>
        <time>2011-03-20T08:24:20Z</time>
      </trkpt>
      <trkpt lat="47.17617" lon="-1.70487">
        <ele>28</ele>
        <time>2011-03-20T08:24:21Z</time>
      </trkpt>
      <trkpt lat="47.17626" lon="-1.70502">
        <ele>28</ele>
        <time>2011-03-20T08:24:23Z</time>
      </trkpt>
      <trkpt lat="47.17667" lon="-1.70544">
        <ele>28</ele>
        <time>2011-03-20T08:24:30Z</time>
      </trkpt>
      <trkpt lat="47.17706" lon="-1.7058">
        <ele>28</ele>
        <time>2011-03-20T08:24:37Z</time>
      </trkpt>
      <trkpt lat="47.17731" lon="-1.70621">
        <ele>28</ele>
        <time>2011-03-20T08:24:43Z</time>
      </trkpt>
      <trkpt lat="47.17756" lon="-1.70688">
        <ele>27</ele>
        <time>2011-03-20T08:24:51Z</time>
      </trkpt>
      <trkpt lat="47.1779" lon="-1.70788">
        <ele>28</ele>
        <time>2011-03-20T08:25:03Z</time>
      </trkpt>
      <trkpt lat="47.1782" lon="-1.70879">
        <ele>27</ele>
        <time>2011-03-20T08:25:14Z</time>
      </trkpt>
      <trkpt lat="47.17852" lon="-1.70968">
        <ele>29</ele>
        <time>2011-03-20T08:25:25Z</time>
      </trkpt>
      <trkpt lat="47.17878" lon="-1.71019">
        <ele>29</ele>
        <time>2011-03-20T08:25:32Z</time>
      </trkpt>
      <trkpt lat="47.17897" lon="-1.71078">
        <ele>28</ele>
        <time>2011-03-20T08:25:39Z</time>
      </trkpt>
      <trkpt lat="47.17896" lon="-1.71113">
        <ele>28</ele>
        <time>2011-03-20T08:25:43Z</time>
      </trkpt>
      <trkpt lat="47.17869" lon="-1.71193">
        <ele>28</ele>
        <time>2011-03-20T08:25:52Z</time>
      </trkpt>
      <trkpt lat="47.17842" lon="-1.71266">
        <ele>28</ele>
        <time>2011-03-20T08:26:00Z</time>
      </trkpt>
      <trkpt lat="47.17814" lon="-1.71347">
        <ele>28</ele>
        <time>2011-03-20T08:26:09Z</time>
      </trkpt>
      <trkpt lat="47.17777" lon="-1.7146">
        <ele>27</ele>
        <time>2011-03-20T08:26:21Z</time>
      </trkpt>
      <trkpt lat="47.17748" lon="-1.71557">
        <ele>28</ele>
        <time>2011-03-20T08:26:31Z</time>
      </trkpt>
      <trkpt lat="47.17742" lon="-1.71575">
        <ele>28</ele>
        <time>2011-03-20T08:26:33Z</time>
      </trkpt>
      <trkpt lat="47.17742" lon="-1.71608">
        <ele>28</ele>
        <time>2011-03-20T08:26:37Z</time>
      </trkpt>
      <trkpt lat="47.1775" lon="-1.71622">
        <ele>28</ele>
        <time>2011-03-20T08:26:39Z</time>
      </trkpt>
      <trkpt lat="47.17771" lon="-1.71656">
        <ele>27</ele>
        <time>2011-03-20T08:26:44Z</time>
      </trkpt>
      <trkpt lat="47.17804" lon="-1.71712">
        <ele>27</ele>
        <time>2011-03-20T08:26:52Z</time>
      </trkpt>
      <trkpt lat="47.17844" lon="-1.71779">
        <ele>27</ele>
        <time>2011-03-20T08:27:02Z</time>
      </trkpt>
      <trkpt lat="47.17852" lon="-1.71812">
        <ele>27</ele>
        <time>2011-03-20T08:27:06Z</time>
      </trkpt>
      <trkpt lat="47.17858" lon="-1.71878">
        <ele>27</ele>
        <time>2011-03-20T08:27:13Z</time>
      </trkpt>
      <trkpt lat="47.17871" lon="-1.71972">
        <ele>26</ele>
        <time>2011-03-20T08:27:23Z</time>
      </trkpt>
      <trkpt lat="47.1788" lon="-1.72047">
        <ele>25</ele>
        <time>2011-03-20T08:27:31Z</time>
      </trkpt>
      <trkpt lat="47.17882" lon="-1.72139">
        <ele>26</ele>
        <time>2011-03-20T08:27:40Z</time>
      </trkpt>
      <trkpt lat="47.17884" lon="-1.72224">
        <ele>25</ele>
        <time>2011-03-20T08:27:48Z</time>
      </trkpt>
      <trkpt lat="47.17887" lon="-1.72264">
        <ele>25</ele>
        <time>2011-03-20T08:27:52Z</time>
      </trkpt>
      <trkpt lat="47.17899" lon="-1.72293">
        <ele>25</ele>
        <time>2011-03-20T08:27:56Z</time>
      </trkpt>
      <trkpt lat="47.17905" lon="-1.72297">
        <ele>25</ele>
        <time>2011-03-20T08:27:57Z</time>
      </trkpt>
      <trkpt lat="47.17924" lon="-1.7231">
        <ele>25</ele>
        <time>2011-03-20T08:28:00Z</time>
      </trkpt>
      <trkpt lat="47.17976" lon="-1.72365">
        <ele>23</ele>
        <time>2011-03-20T08:28:09Z</time>
      </trkpt>
      <trkpt lat="47.17999" lon="-1.72391">
        <ele>22</ele>
        <time>2011-03-20T08:28:13Z</time>
      </trkpt>
      <trkpt lat="47.18016" lon="-1.72428">
        <ele>21</ele>
        <time>2011-03-20T08:28:17Z</time>
      </trkpt>
      <trkpt lat="47.18024" lon="-1.72458">
        <ele>22</ele>
        <time>2011-03-20T08:28:20Z</time>
      </trkpt>
      <trkpt lat="47.18022" lon="-1.72492">
        <ele>21</ele>
        <time>2011-03-20T08:28:24Z</time>
      </trkpt>
      <trkpt lat="47.18009" lon="-1.725">
        <ele>21</ele>
        <time>2011-03-20T08:28:26Z</time>
      </trkpt>
      <trkpt lat="47.17937" lon="-1.7254">
        <ele>22</ele>
        <time>2011-03-20T08:28:36Z</time>
      </trkpt>
      <trkpt lat="47.17882" lon="-1.72575">
        <ele>22</ele>
        <time>2011-03-20T08:28:44Z</time>
      </trkpt>
      <trkpt lat="47.17844" lon="-1.72615">
        <ele>20</ele>
        <time>2011-03-20T08:28:50Z</time>
      </trkpt>
      <trkpt lat="47.17811" lon="-1.7265">
        <ele>19</ele>
        <time>2011-03-20T08:28:55Z</time>
      </trkpt>
      <trkpt lat="47.17768" lon="-1.72699">
        <ele>18</ele>
        <time>2011-03-20T08:29:02Z</time>
      </trkpt>
      <trkpt lat="47.1772" lon="-1.72754">
        <ele>17</ele>
        <time>2011-03-20T08:29:10Z</time>
      </trkpt>
      <trkpt lat="47.17695" lon="-1.72778">
        <ele>17</ele>
        <time>2011-03-20T08:29:14Z</time>
      </trkpt>
      <trkpt lat="47.1763" lon="-1.72816">
        <ele>16</ele>
        <time>2011-03-20T08:29:23Z</time>
      </trkpt>
      <trkpt lat="47.17569" lon="-1.72861">
        <ele>15</ele>
        <time>2011-03-20T08:29:32Z</time>
      </trkpt>
      <trkpt lat="47.17522" lon="-1.72891">
        <ele>15</ele>
        <time>2011-03-20T08:29:39Z</time>
      </trkpt>
      <trkpt lat="47.17493" lon="-1.729">
        <ele>15</ele>
        <time>2011-03-20T08:29:43Z</time>
      </trkpt>
      <trkpt lat="47.17453" lon="-1.72895">
        <ele>15</ele>
        <time>2011-03-20T08:29:49Z</time>
      </trkpt>
      <trkpt lat="47.17425" lon="-1.72877">
        <ele>15</ele>
        <time>2011-03-20T08:29:54Z</time>
      </trkpt>
      <trkpt lat="47.1741" lon="-1.72864">
        <ele>16</ele>
        <time>2011-03-20T08:29:57Z</time>
      </trkpt>
      <trkpt lat="47.17399" lon="-1.72862">
        <ele>16</ele>
        <time>2011-03-20T08:30:00Z</time>
      </trkpt>
      <trkpt lat="47.174" lon="-1.72872">
        <ele>16</ele>
        <time>2011-03-20T08:30:02Z</time>
      </trkpt>
      <trkpt lat="47.17426" lon="-1.72919">
        <ele>15</ele>
        <time>2011-03-20T08:30:09Z</time>
      </trkpt>
      <trkpt lat="47.17455" lon="-1.72987">
        <ele>16</ele>
        <time>2011-03-20T08:30:17Z</time>
      </trkpt>
      <trkpt lat="47.17476" lon="-1.73062">
        <ele>16</ele>
        <time>2011-03-20T08:30:25Z</time>
      </trkpt>
      <trkpt lat="47.175" lon="-1.73143">
        <ele>18</ele>
        <time>2011-03-20T08:30:34Z</time>
      </trkpt>
      <trkpt lat="47.17524" lon="-1.7321">
        <ele>20</ele>
        <time>2011-03-20T08:30:42Z</time>
      </trkpt>
      <trkpt lat="47.1753" lon="-1.73226">
        <ele>20</ele>
        <time>2011-03-20T08:30:44Z</time>
      </trkpt>
      <trkpt lat="47.17538" lon="-1.7325">
        <ele>20</ele>
        <time>2011-03-20T08:30:47Z</time>
      </trkpt>
      <trkpt lat="47.17558" lon="-1.73318">
        <ele>21</ele>
        <time>2011-03-20T08:30:56Z</time>
      </trkpt>
      <trkpt lat="47.17574" lon="-1.7337">
        <ele>22</ele>
        <time>2011-03-20T08:31:03Z</time>
      </trkpt>
      <trkpt lat="47.17599" lon="-1.73421">
        <ele>21</ele>
        <time>2011-03-20T08:31:10Z</time>
      </trkpt>
      <trkpt lat="47.1761" lon="-1.73442">
        <ele>21</ele>
        <time>2011-03-20T08:31:13Z</time>
      </trkpt>
      <trkpt lat="47.17625" lon="-1.7346">
        <ele>21</ele>
        <time>2011-03-20T08:31:16Z</time>
      </trkpt>
      <trkpt lat="47.17631" lon="-1.73481">
        <ele>21</ele>
        <time>2011-03-20T08:31:19Z</time>
      </trkpt>
      <trkpt lat="47.17629" lon="-1.73535">
        <ele>21</ele>
        <time>2011-03-20T08:31:25Z</time>
      </trkpt>
      <trkpt lat="47.17626" lon="-1.73604">
        <ele>20</ele>
        <time>2011-03-20T08:31:32Z</time>
      </trkpt>
      <trkpt lat="47.17625" lon="-1.73659">
        <ele>19</ele>
        <time>2011-03-20T08:31:37Z</time>
      </trkpt>
      <trkpt lat="47.17627" lon="-1.73734">
        <ele>16</ele>
        <time>2011-03-20T08:31:43Z</time>
      </trkpt>
      <trkpt lat="47.17627" lon="-1.73787">
        <ele>13</ele>
        <time>2011-03-20T08:31:47Z</time>
      </trkpt>
      <trkpt lat="47.17629" lon="-1.73824">
        <ele>12</ele>
        <time>2011-03-20T08:31:50Z</time>
      </trkpt>
      <trkpt lat="47.1763" lon="-1.73834">
        <ele>10</ele>
        <time>2011-03-20T08:31:51Z</time>
      </trkpt>
      <trkpt lat="47.17621" lon="-1.73858">
        <ele>10</ele>
        <time>2011-03-20T08:31:55Z</time>
      </trkpt>
      <trkpt lat="47.17603" lon="-1.73857">
        <ele>10</ele>
        <time>2011-03-20T08:31:58Z</time>
      </trkpt>
      <trkpt lat="47.17594" lon="-1.73862">
        <ele>10</ele>
        <time>2011-03-20T08:32:00Z</time>
      </trkpt>
      <trkpt lat="47.17593" lon="-1.73886">
        <ele>9</ele>
        <time>2011-03-20T08:32:03Z</time>
      </trkpt>
      <trkpt lat="47.17595" lon="-1.73932">
        <ele>8</ele>
        <time>2011-03-20T08:32:08Z</time>
      </trkpt>
      <trkpt lat="47.17584" lon="-1.7396">
        <ele>9</ele>
        <time>2011-03-20T08:32:12Z</time>
      </trkpt>
      <trkpt lat="47.17556" lon="-1.73986">
        <ele>6</ele>
        <time>2011-03-20T08:32:18Z</time>
      </trkpt>
      <trkpt lat="47.17533" lon="-1.74025">
        <ele>6</ele>
        <time>2011-03-20T08:32:24Z</time>
      </trkpt>
      <trkpt lat="47.17535" lon="-1.74055">
        <ele>6</ele>
        <time>2011-03-20T08:32:28Z</time>
      </trkpt>
      <trkpt lat="47.17538" lon="-1.74061">
        <ele>6</ele>
        <time>2011-03-20T08:32:29Z</time>
      </trkpt>
      <trkpt lat="47.1755" lon="-1.74091">
        <ele>7</ele>
        <time>2011-03-20T08:32:35Z</time>
      </trkpt>
      <trkpt lat="47.17559" lon="-1.7412">
        <ele>8</ele>
        <time>2011-03-20T08:32:40Z</time>
      </trkpt>
      <trkpt lat="47.17568" lon="-1.74139">
        <ele>8</ele>
        <time>2011-03-20T08:32:43Z</time>
      </trkpt>
      <trkpt lat="47.17572" lon="-1.74178">
        <ele>8</ele>
        <time>2011-03-20T08:32:47Z</time>
      </trkpt>
      <trkpt lat="47.17575" lon="-1.74215">
        <ele>7</ele>
        <time>2011-03-20T08:32:50Z</time>
      </trkpt>
      <trkpt lat="47.17582" lon="-1.7425">
        <ele>7</ele>
        <time>2011-03-20T08:32:53Z</time>
      </trkpt>
      <trkpt lat="47.17601" lon="-1.74288">
        <ele>8</ele>
        <time>2011-03-20T08:32:58Z</time>
      </trkpt>
      <trkpt lat="47.17621" lon="-1.74326">
        <ele>9</ele>
        <time>2011-03-20T08:33:04Z</time>
      </trkpt>
      <trkpt lat="47.1763" lon="-1.74347">
        <ele>8</ele>
        <time>2011-03-20T08:33:07Z</time>
      </trkpt>
      <trkpt lat="47.17637" lon="-1.74376">
        <ele>7</ele>
        <time>2011-03-20T08:33:11Z</time>
      </trkpt>
      <trkpt lat="47.17642" lon="-1.7439">
        <ele>7</ele>
        <time>2011-03-20T08:33:13Z</time>
      </trkpt>
      <trkpt lat="47.17645" lon="-1.74423">
        <ele>6</ele>
        <time>2011-03-20T08:33:18Z</time>
      </trkpt>
      <trkpt lat="47.17639" lon="-1.74439">
        <ele>6</ele>
        <time>2011-03-20T08:33:21Z</time>
      </trkpt>
      <trkpt lat="47.17642" lon="-1.74453">
        <ele>6</ele>
        <time>2011-03-20T08:33:23Z</time>
      </trkpt>
      <trkpt lat="47.17661" lon="-1.74517">
        <ele>6</ele>
        <time>2011-03-20T08:33:32Z</time>
      </trkpt>
      <trkpt lat="47.17663" lon="-1.74524">
        <ele>6</ele>
        <time>2011-03-20T08:33:33Z</time>
      </trkpt>
      <trkpt lat="47.17665" lon="-1.74553">
        <ele>7</ele>
        <time>2011-03-20T08:33:37Z</time>
      </trkpt>
      <trkpt lat="47.17662" lon="-1.74583">
        <ele>7</ele>
        <time>2011-03-20T08:33:41Z</time>
      </trkpt>
      <trkpt lat="47.17655" lon="-1.74636">
        <ele>9</ele>
        <time>2011-03-20T08:33:48Z</time>
      </trkpt>
      <trkpt lat="47.17654" lon="-1.74665">
        <ele>9</ele>
        <time>2011-03-20T08:33:52Z</time>
      </trkpt>
      <trkpt lat="47.17664" lon="-1.74679">
        <ele>11</ele>
        <time>2011-03-20T08:33:56Z</time>
      </trkpt>
      <trkpt lat="47.17674" lon="-1.74678">
        <ele>10</ele>
        <time>2011-03-20T08:33:58Z</time>
      </trkpt>
      <trkpt lat="47.17717" lon="-1.74676">
        <ele>10</ele>
        <time>2011-03-20T08:34:06Z</time>
      </trkpt>
      <trkpt lat="47.17733" lon="-1.7468">
        <ele>10</ele>
        <time>2011-03-20T08:34:09Z</time>
      </trkpt>
      <trkpt lat="47.17755" lon="-1.74679">
        <ele>10</ele>
        <time>2011-03-20T08:34:13Z</time>
      </trkpt>
      <trkpt lat="47.1781" lon="-1.74663">
        <ele>9</ele>
        <time>2011-03-20T08:34:23Z</time>
      </trkpt>
      <trkpt lat="47.17859" lon="-1.7465">
        <ele>9</ele>
        <time>2011-03-20T08:34:32Z</time>
      </trkpt>
      <trkpt lat="47.17897" lon="-1.74638">
        <ele>9</ele>
        <time>2011-03-20T08:34:39Z</time>
      </trkpt>
      <trkpt lat="47.17922" lon="-1.74643">
        <ele>9</ele>
        <time>2011-03-20T08:34:44Z</time>
      </trkpt>
      <trkpt lat="47.1793" lon="-1.74663">
        <ele>9</ele>
        <time>2011-03-20T08:34:47Z</time>
      </trkpt>
      <trkpt lat="47.17951" lon="-1.74756">
        <ele>13</ele>
        <time>2011-03-20T08:34:59Z</time>
      </trkpt>
      <trkpt lat="47.1797" lon="-1.74837">
        <ele>16</ele>
        <time>2011-03-20T08:35:09Z</time>
      </trkpt>
      <trkpt lat="47.17988" lon="-1.74908">
        <ele>17</ele>
        <time>2011-03-20T08:35:18Z</time>
      </trkpt>
      <trkpt lat="47.18004" lon="-1.74972">
        <ele>17</ele>
        <time>2011-03-20T08:35:26Z</time>
      </trkpt>
      <trkpt lat="47.18009" lon="-1.74995">
        <ele>17</ele>
        <time>2011-03-20T08:35:29Z</time>
      </trkpt>
      <trkpt lat="47.18004" lon="-1.75022">
        <ele>18</ele>
        <time>2011-03-20T08:35:33Z</time>
      </trkpt>
      <trkpt lat="47.17996" lon="-1.75032">
        <ele>18</ele>
        <time>2011-03-20T08:35:35Z</time>
      </trkpt>
      <trkpt lat="47.17975" lon="-1.75055">
        <ele>19</ele>
        <time>2011-03-20T08:35:40Z</time>
      </trkpt>
      <trkpt lat="47.1794" lon="-1.75095">
        <ele>19</ele>
        <time>2011-03-20T08:35:49Z</time>
      </trkpt>
      <trkpt lat="47.17899" lon="-1.75144">
        <ele>19</ele>
        <time>2011-03-20T08:36:00Z</time>
      </trkpt>
      <trkpt lat="47.1788" lon="-1.75164">
        <ele>19</ele>
        <time>2011-03-20T08:36:05Z</time>
      </trkpt>
      <trkpt lat="47.17842" lon="-1.75208">
        <ele>20</ele>
        <time>2011-03-20T08:36:15Z</time>
      </trkpt>
      <trkpt lat="47.17818" lon="-1.75233">
        <ele>22</ele>
        <time>2011-03-20T08:36:21Z</time>
      </trkpt>
      <trkpt lat="47.17802" lon="-1.75234">
        <ele>22</ele>
        <time>2011-03-20T08:36:25Z</time>
      </trkpt>
      <trkpt lat="47.17758" lon="-1.75209">
        <ele>22</ele>
        <time>2011-03-20T08:36:34Z</time>
      </trkpt>
      <trkpt lat="47.17709" lon="-1.75189">
        <ele>22</ele>
        <time>2011-03-20T08:36:43Z</time>
      </trkpt>
      <trkpt lat="47.17658" lon="-1.75181">
        <ele>21</ele>
        <time>2011-03-20T08:36:52Z</time>
      </trkpt>
      <trkpt lat="47.17625" lon="-1.75178">
        <ele>21</ele>
        <time>2011-03-20T08:36:58Z</time>
      </trkpt>
      <trkpt lat="47.17579" lon="-1.75173">
        <ele>21</ele>
        <time>2011-03-20T08:37:06Z</time>
      </trkpt>
      <trkpt lat="47.17545" lon="-1.75161">
        <ele>22</ele>
        <time>2011-03-20T08:37:12Z</time>
      </trkpt>
      <trkpt lat="47.17505" lon="-1.75143">
        <ele>22</ele>
        <time>2011-03-20T08:37:19Z</time>
      </trkpt>
      <trkpt lat="47.1747" lon="-1.75134">
        <ele>21</ele>
        <time>2011-03-20T08:37:25Z</time>
      </trkpt>
      <trkpt lat="47.17447" lon="-1.75134">
        <ele>21</ele>
        <time>2011-03-20T08:37:29Z</time>
      </trkpt>
      <trkpt lat="47.17435" lon="-1.75142">
        <ele>21</ele>
        <time>2011-03-20T08:37:32Z</time>
      </trkpt>
      <trkpt lat="47.17434" lon="-1.75149">
        <ele>21</ele>
        <time>2011-03-20T08:37:33Z</time>
      </trkpt>
      <trkpt lat="47.17436" lon="-1.75204">
        <ele>21</ele>
        <time>2011-03-20T08:37:39Z</time>
      </trkpt>
      <trkpt lat="47.17438" lon="-1.75271">
        <ele>19</ele>
        <time>2011-03-20T08:37:45Z</time>
      </trkpt>
      <trkpt lat="47.17447" lon="-1.75337">
        <ele>17</ele>
        <time>2011-03-20T08:37:51Z</time>
      </trkpt>
      <trkpt lat="47.17454" lon="-1.75369">
        <ele>17</ele>
        <time>2011-03-20T08:37:54Z</time>
      </trkpt>
      <trkpt lat="47.17453" lon="-1.75414">
        <ele>17</ele>
        <time>2011-03-20T08:37:58Z</time>
      </trkpt>
      <trkpt lat="47.17458" lon="-1.75461">
        <ele>15</ele>
        <time>2011-03-20T08:38:02Z</time>
      </trkpt>
      <trkpt lat="47.17488" lon="-1.75568">
        <ele>12</ele>
        <time>2011-03-20T08:38:11Z</time>
      </trkpt>
      <trkpt lat="47.17507" lon="-1.75634">
        <ele>13</ele>
        <time>2011-03-20T08:38:17Z</time>
      </trkpt>
      <trkpt lat="47.17526" lon="-1.75683">
        <ele>12</ele>
        <time>2011-03-20T08:38:22Z</time>
      </trkpt>
      <trkpt lat="47.17533" lon="-1.75721">
        <ele>12</ele>
        <time>2011-03-20T08:38:26Z</time>
      </trkpt>
      <trkpt lat="47.17523" lon="-1.75751">
        <ele>12</ele>
        <time>2011-03-20T08:38:29Z</time>
      </trkpt>
      <trkpt lat="47.17485" lon="-1.75827">
        <ele>12</ele>
        <time>2011-03-20T08:38:37Z</time>
      </trkpt>
      <trkpt lat="47.17444" lon="-1.75879">
        <ele>11</ele>
        <time>2011-03-20T08:38:44Z</time>
      </trkpt>
      <trkpt lat="47.17437" lon="-1.75886">
        <ele>11</ele>
        <time>2011-03-20T08:38:45Z</time>
      </trkpt>
      <trkpt lat="47.17431" lon="-1.75893">
        <ele>11</ele>
        <time>2011-03-20T08:38:46Z</time>
      </trkpt>
      <trkpt lat="47.17406" lon="-1.75942">
        <ele>9</ele>
        <time>2011-03-20T08:38:51Z</time>
      </trkpt>
      <trkpt lat="47.17387" lon="-1.75978">
        <ele>9</ele>
        <time>2011-03-20T08:38:55Z</time>
      </trkpt>
      <trkpt lat="47.1733" lon="-1.76048">
        <ele>5</ele>
        <time>2011-03-20T08:39:04Z</time>
      </trkpt>
      <trkpt lat="47.17318" lon="-1.76064">
        <ele>6</ele>
        <time>2011-03-20T08:39:06Z</time>
      </trkpt>
      <trkpt lat="47.17294" lon="-1.76072">
        <ele>6</ele>
        <time>2011-03-20T08:39:10Z</time>
      </trkpt>
      <trkpt lat="47.17283" lon="-1.76048">
        <ele>5</ele>
        <time>2011-03-20T08:39:13Z</time>
      </trkpt>
      <trkpt lat="47.17272" lon="-1.76037">
        <ele>5</ele>
        <time>2011-03-20T08:39:15Z</time>
      </trkpt>
      <trkpt lat="47.1725" lon="-1.76042">
        <ele>4</ele>
        <time>2011-03-20T08:39:18Z</time>
      </trkpt>
      <trkpt lat="47.17195" lon="-1.76082">
        <ele>4</ele>
        <time>2011-03-20T08:39:26Z</time>
      </trkpt>
      <trkpt lat="47.17189" lon="-1.76088">
        <ele>4</ele>
        <time>2011-03-20T08:39:27Z</time>
      </trkpt>
      <trkpt lat="47.17169" lon="-1.76119">
        <ele>5</ele>
        <time>2011-03-20T08:39:31Z</time>
      </trkpt>
      <trkpt lat="47.17161" lon="-1.76138">
        <ele>3</ele>
        <time>2011-03-20T08:39:33Z</time>
      </trkpt>
      <trkpt lat="47.17137" lon="-1.76168">
        <ele>4</ele>
        <time>2011-03-20T08:39:37Z</time>
      </trkpt>
      <trkpt lat="47.17111" lon="-1.76218">
        <ele>3</ele>
        <time>2011-03-20T08:39:43Z</time>
      </trkpt>
      <trkpt lat="47.17107" lon="-1.76227">
        <ele>3</ele>
        <time>2011-03-20T08:39:44Z</time>
      </trkpt>
      <trkpt lat="47.17085" lon="-1.76246">
        <ele>3</ele>
        <time>2011-03-20T08:39:48Z</time>
      </trkpt>
      <trkpt lat="47.17078" lon="-1.76244">
        <ele>3</ele>
        <time>2011-03-20T08:39:49Z</time>
      </trkpt>
      <trkpt lat="47.1703" lon="-1.76236">
        <ele>4</ele>
        <time>2011-03-20T08:39:55Z</time>
      </trkpt>
      <trkpt lat="47.17008" lon="-1.76231">
        <ele>4</ele>
        <time>2011-03-20T08:39:58Z</time>
      </trkpt>
      <trkpt lat="47.16981" lon="-1.76238">
        <ele>4</ele>
        <time>2011-03-20T08:40:02Z</time>
      </trkpt>
      <trkpt lat="47.16961" lon="-1.76261">
        <ele>4</ele>
        <time>2011-03-20T08:40:06Z</time>
      </trkpt>
      <trkpt lat="47.16955" lon="-1.76289">
        <ele>4</ele>
        <time>2011-03-20T08:40:09Z</time>
      </trkpt>
      <trkpt lat="47.16958" lon="-1.76316">
        <ele>4</ele>
        <time>2011-03-20T08:40:12Z</time>
      </trkpt>
      <trkpt lat="47.16961" lon="-1.76324">
        <ele>4</ele>
        <time>2011-03-20T08:40:13Z</time>
      </trkpt>
      <trkpt lat="47.16974" lon="-1.76344">
        <ele>4</ele>
        <time>2011-03-20T08:40:17Z</time>
      </trkpt>
      <trkpt lat="47.16975" lon="-1.76348">
        <ele>4</ele>
        <time>2011-03-20T08:40:20Z</time>
      </trkpt>
      <trkpt lat="47.16976" lon="-1.76346">
        <ele>4</ele>
        <time>2011-03-20T08:40:32Z</time>
      </trkpt>
      <trkpt lat="47.16976" lon="-1.76346">
        <ele>4</ele>
        <time>2011-03-20T08:40:33Z</time>
      </trkpt>
      <trkpt lat="47.16969" lon="-1.76334">
        <ele>4</ele>
        <time>2011-03-20T08:40:38Z</time>
      </trkpt>
      <trkpt lat="47.16957" lon="-1.76304">
        <ele>4</ele>
        <time>2011-03-20T08:40:45Z</time>
      </trkpt>
      <trkpt lat="47.16959" lon="-1.76276">
        <ele>4</ele>
        <time>2011-03-20T08:40:50Z</time>
      </trkpt>
      <trkpt lat="47.16969" lon="-1.7625">
        <ele>4</ele>
        <time>2011-03-20T08:40:55Z</time>
      </trkpt>
      <trkpt lat="47.16986" lon="-1.76232">
        <ele>4</ele>
        <time>2011-03-20T08:41:01Z</time>
      </trkpt>
      <trkpt lat="47.16997" lon="-1.76227">
        <ele>4</ele>
        <time>2011-03-20T08:41:04Z</time>
      </trkpt>
      <trkpt lat="47.17027" lon="-1.76228">
        <ele>4</ele>
        <time>2011-03-20T08:41:11Z</time>
      </trkpt>
      <trkpt lat="47.17057" lon="-1.76232">
        <ele>3</ele>
        <time>2011-03-20T08:41:17Z</time>
      </trkpt>
      <trkpt lat="47.1709" lon="-1.76238">
        <ele>3</ele>
        <time>2011-03-20T08:41:23Z</time>
      </trkpt>
      <trkpt lat="47.17108" lon="-1.7623">
        <ele>3</ele>
        <time>2011-03-20T08:41:27Z</time>
      </trkpt>
      <trkpt lat="47.17111" lon="-1.76223">
        <ele>3</ele>
        <time>2011-03-20T08:41:28Z</time>
      </trkpt>
      <trkpt lat="47.17135" lon="-1.76169">
        <ele>3</ele>
        <time>2011-03-20T08:41:36Z</time>
      </trkpt>
      <trkpt lat="47.17154" lon="-1.76149">
        <ele>3</ele>
        <time>2011-03-20T08:41:40Z</time>
      </trkpt>
      <trkpt lat="47.17168" lon="-1.76123">
        <ele>5</ele>
        <time>2011-03-20T08:41:45Z</time>
      </trkpt>
      <trkpt lat="47.17162" lon="-1.76113">
        <ele>3</ele>
        <time>2011-03-20T08:41:48Z</time>
      </trkpt>
      <trkpt lat="47.17158" lon="-1.76109">
        <ele>3</ele>
        <time>2011-03-20T08:41:49Z</time>
      </trkpt>
      <trkpt lat="47.17142" lon="-1.76094">
        <ele>3</ele>
        <time>2011-03-20T08:41:53Z</time>
      </trkpt>
      <trkpt lat="47.17129" lon="-1.7607">
        <ele>3</ele>
        <time>2011-03-20T08:41:57Z</time>
      </trkpt>
      <trkpt lat="47.17126" lon="-1.76063">
        <ele>3</ele>
        <time>2011-03-20T08:41:58Z</time>
      </trkpt>
      <trkpt lat="47.17109" lon="-1.76044">
        <ele>3</ele>
        <time>2011-03-20T08:42:02Z</time>
      </trkpt>
      <trkpt lat="47.17084" lon="-1.76012">
        <ele>4</ele>
        <time>2011-03-20T08:42:08Z</time>
      </trkpt>
      <trkpt lat="47.17054" lon="-1.75951">
        <ele>4</ele>
        <time>2011-03-20T08:42:17Z</time>
      </trkpt>
      <trkpt lat="47.17028" lon="-1.75918">
        <ele>3</ele>
        <time>2011-03-20T08:42:23Z</time>
      </trkpt>
      <trkpt lat="47.17016" lon="-1.7589">
        <ele>4</ele>
        <time>2011-03-20T08:42:27Z</time>
      </trkpt>
      <trkpt lat="47.17004" lon="-1.75826">
        <ele>5</ele>
        <time>2011-03-20T08:42:35Z</time>
      </trkpt>
      <trkpt lat="47.17002" lon="-1.75812">
        <ele>6</ele>
        <time>2011-03-20T08:42:37Z</time>
      </trkpt>
      <trkpt lat="47.17008" lon="-1.75787">
        <ele>6</ele>
        <time>2011-03-20T08:42:41Z</time>
      </trkpt>
      <trkpt lat="47.17013" lon="-1.7577">
        <ele>7</ele>
        <time>2011-03-20T08:42:44Z</time>
      </trkpt>
      <trkpt lat="47.1701" lon="-1.75759">
        <ele>7</ele>
        <time>2011-03-20T08:42:46Z</time>
      </trkpt>
      <trkpt lat="47.16984" lon="-1.75706">
        <ele>8</ele>
        <time>2011-03-20T08:42:55Z</time>
      </trkpt>
      <trkpt lat="47.16961" lon="-1.75649">
        <ele>11</ele>
        <time>2011-03-20T08:43:04Z</time>
      </trkpt>
      <trkpt lat="47.16941" lon="-1.75594">
        <ele>11</ele>
        <time>2011-03-20T08:43:12Z</time>
      </trkpt>
      <trkpt lat="47.16927" lon="-1.75557">
        <ele>12</ele>
        <time>2011-03-20T08:43:17Z</time>
      </trkpt>
      <trkpt lat="47.16911" lon="-1.75498">
        <ele>9</ele>
        <time>2011-03-20T08:43:24Z</time>
      </trkpt>
      <trkpt lat="47.1691" lon="-1.75488">
        <ele>9</ele>
        <time>2011-03-20T08:43:25Z</time>
      </trkpt>
      <trkpt lat="47.16909" lon="-1.7545">
        <ele>8</ele>
        <time>2011-03-20T08:43:29Z</time>
      </trkpt>
      <trkpt lat="47.16921" lon="-1.7542">
        <ele>10</ele>
        <time>2011-03-20T08:43:33Z</time>
      </trkpt>
      <trkpt lat="47.16926" lon="-1.75414">
        <ele>10</ele>
        <time>2011-03-20T08:43:34Z</time>
      </trkpt>
      <trkpt lat="47.16939" lon="-1.75399">
        <ele>11</ele>
        <time>2011-03-20T08:43:37Z</time>
      </trkpt>
      <trkpt lat="47.1695" lon="-1.75372">
        <ele>12</ele>
        <time>2011-03-20T08:43:41Z</time>
      </trkpt>
      <trkpt lat="47.16948" lon="-1.7535">
        <ele>12</ele>
        <time>2011-03-20T08:43:44Z</time>
      </trkpt>
      <trkpt lat="47.1693" lon="-1.75289">
        <ele>12</ele>
        <time>2011-03-20T08:43:52Z</time>
      </trkpt>
      <trkpt lat="47.16923" lon="-1.75266">
        <ele>12</ele>
        <time>2011-03-20T08:43:55Z</time>
      </trkpt>
      <trkpt lat="47.16922" lon="-1.7523">
        <ele>14</ele>
        <time>2011-03-20T08:44:00Z</time>
      </trkpt>
      <trkpt lat="47.16928" lon="-1.75217">
        <ele>16</ele>
        <time>2011-03-20T08:44:02Z</time>
      </trkpt>
      <trkpt lat="47.16935" lon="-1.75206">
        <ele>16</ele>
        <time>2011-03-20T08:44:04Z</time>
      </trkpt>
      <trkpt lat="47.16945" lon="-1.75172">
        <ele>17</ele>
        <time>2011-03-20T08:44:09Z</time>
      </trkpt>
      <trkpt lat="47.16946" lon="-1.75104">
        <ele>21</ele>
        <time>2011-03-20T08:44:18Z</time>
      </trkpt>
      <trkpt lat="47.1695" lon="-1.75057">
        <ele>22</ele>
        <time>2011-03-20T08:44:25Z</time>
      </trkpt>
      <trkpt lat="47.16953" lon="-1.75037">
        <ele>22</ele>
        <time>2011-03-20T08:44:28Z</time>
      </trkpt>
      <trkpt lat="47.16954" lon="-1.75017">
        <ele>22</ele>
        <time>2011-03-20T08:44:31Z</time>
      </trkpt>
      <trkpt lat="47.16948" lon="-1.74991">
        <ele>21</ele>
        <time>2011-03-20T08:44:35Z</time>
      </trkpt>
      <trkpt lat="47.16944" lon="-1.74986">
        <ele>20</ele>
        <time>2011-03-20T08:44:36Z</time>
      </trkpt>
      <trkpt lat="47.16921" lon="-1.74959">
        <ele>20</ele>
        <time>2011-03-20T08:44:41Z</time>
      </trkpt>
      <trkpt lat="47.16907" lon="-1.74941">
        <ele>17</ele>
        <time>2011-03-20T08:44:44Z</time>
      </trkpt>
      <trkpt lat="47.16893" lon="-1.74908">
        <ele>16</ele>
        <time>2011-03-20T08:44:48Z</time>
      </trkpt>
      <trkpt lat="47.1689" lon="-1.749">
        <ele>16</ele>
        <time>2011-03-20T08:44:49Z</time>
      </trkpt>
      <trkpt lat="47.16863" lon="-1.74839">
        <ele>15</ele>
        <time>2011-03-20T08:44:56Z</time>
      </trkpt>
      <trkpt lat="47.16833" lon="-1.74787">
        <ele>14</ele>
        <time>2011-03-20T08:45:02Z</time>
      </trkpt>
      <trkpt lat="47.16798" lon="-1.74743">
        <ele>10</ele>
        <time>2011-03-20T08:45:08Z</time>
      </trkpt>
      <trkpt lat="47.16757" lon="-1.74715">
        <ele>9</ele>
        <time>2011-03-20T08:45:14Z</time>
      </trkpt>
      <trkpt lat="47.1671" lon="-1.74696">
        <ele>7</ele>
        <time>2011-03-20T08:45:21Z</time>
      </trkpt>
      <trkpt lat="47.16698" lon="-1.74691">
        <ele>7</ele>
        <time>2011-03-20T08:45:23Z</time>
      </trkpt>
      <trkpt lat="47.16684" lon="-1.74674">
        <ele>6</ele>
        <time>2011-03-20T08:45:26Z</time>
      </trkpt>
      <trkpt lat="47.16684" lon="-1.74666">
        <ele>6</ele>
        <time>2011-03-20T08:45:27Z</time>
      </trkpt>
      <trkpt lat="47.16684" lon="-1.74636">
        <ele>6</ele>
        <time>2011-03-20T08:45:30Z</time>
      </trkpt>
      <trkpt lat="47.16696" lon="-1.74601">
        <ele>6</ele>
        <time>2011-03-20T08:45:34Z</time>
      </trkpt>
      <trkpt lat="47.16717" lon="-1.74587">
        <ele>7</ele>
        <time>2011-03-20T08:45:37Z</time>
      </trkpt>
      <trkpt lat="47.16764" lon="-1.74564">
        <ele>7</ele>
        <time>2011-03-20T08:45:44Z</time>
      </trkpt>
      <trkpt lat="47.16812" lon="-1.74551">
        <ele>7</ele>
        <time>2011-03-20T08:45:51Z</time>
      </trkpt>
      <trkpt lat="47.16857" lon="-1.74544">
        <ele>6</ele>
        <time>2011-03-20T08:45:58Z</time>
      </trkpt>
      <trkpt lat="47.16869" lon="-1.74544">
        <ele>6</ele>
        <time>2011-03-20T08:46:00Z</time>
      </trkpt>
      <trkpt lat="47.16893" lon="-1.74557">
        <ele>6</ele>
        <time>2011-03-20T08:46:04Z</time>
      </trkpt>
      <trkpt lat="47.1692" lon="-1.74583">
        <ele>6</ele>
        <time>2011-03-20T08:46:09Z</time>
      </trkpt>
      <trkpt lat="47.16945" lon="-1.74586">
        <ele>8</ele>
        <time>2011-03-20T08:46:13Z</time>
      </trkpt>
      <trkpt lat="47.16952" lon="-1.74585">
        <ele>8</ele>
        <time>2011-03-20T08:46:14Z</time>
      </trkpt>
      <trkpt lat="47.16977" lon="-1.74577">
        <ele>7</ele>
        <time>2011-03-20T08:46:18Z</time>
      </trkpt>
      <trkpt lat="47.17007" lon="-1.74556">
        <ele>7</ele>
        <time>2011-03-20T08:46:23Z</time>
      </trkpt>
      <trkpt lat="47.17017" lon="-1.74545">
        <ele>7</ele>
        <time>2011-03-20T08:46:25Z</time>
      </trkpt>
      <trkpt lat="47.17035" lon="-1.74517">
        <ele>7</ele>
        <time>2011-03-20T08:46:29Z</time>
      </trkpt>
      <trkpt lat="47.17066" lon="-1.74462">
        <ele>5</ele>
        <time>2011-03-20T08:46:36Z</time>
      </trkpt>
      <trkpt lat="47.17091" lon="-1.74395">
        <ele>7</ele>
        <time>2011-03-20T08:46:44Z</time>
      </trkpt>
      <trkpt lat="47.17091" lon="-1.74363">
        <ele>7</ele>
        <time>2011-03-20T08:46:48Z</time>
      </trkpt>
      <trkpt lat="47.17088" lon="-1.74347">
        <ele>6</ele>
        <time>2011-03-20T08:46:50Z</time>
      </trkpt>
      <trkpt lat="47.17078" lon="-1.74288">
        <ele>5</ele>
        <time>2011-03-20T08:46:57Z</time>
      </trkpt>
      <trkpt lat="47.17071" lon="-1.74236">
        <ele>4</ele>
        <time>2011-03-20T08:47:03Z</time>
      </trkpt>
      <trkpt lat="47.17058" lon="-1.74184">
        <ele>3</ele>
        <time>2011-03-20T08:47:09Z</time>
      </trkpt>
      <trkpt lat="47.17044" lon="-1.74122">
        <ele>3</ele>
        <time>2011-03-20T08:47:16Z</time>
      </trkpt>
      <trkpt lat="47.17034" lon="-1.74072">
        <ele>5</ele>
        <time>2011-03-20T08:47:22Z</time>
      </trkpt>
      <trkpt lat="47.17022" lon="-1.74061">
        <ele>5</ele>
        <time>2011-03-20T08:47:25Z</time>
      </trkpt>
      <trkpt lat="47.17018" lon="-1.74064">
        <ele>5</ele>
        <time>2011-03-20T08:47:26Z</time>
      </trkpt>
      <trkpt lat="47.16976" lon="-1.74095">
        <ele>4</ele>
        <time>2011-03-20T08:47:33Z</time>
      </trkpt>
      <trkpt lat="47.16914" lon="-1.74138">
        <ele>4</ele>
        <time>2011-03-20T08:47:43Z</time>
      </trkpt>
      <trkpt lat="47.1685" lon="-1.74175">
        <ele>4</ele>
        <time>2011-03-20T08:47:53Z</time>
      </trkpt>
      <trkpt lat="47.16824" lon="-1.74176">
        <ele>5</ele>
        <time>2011-03-20T08:47:57Z</time>
      </trkpt>
      <trkpt lat="47.1677" lon="-1.74189">
        <ele>4</ele>
        <time>2011-03-20T08:48:05Z</time>
      </trkpt>
      <trkpt lat="47.16744" lon="-1.74184">
        <ele>3</ele>
        <time>2011-03-20T08:48:09Z</time>
      </trkpt>
      <trkpt lat="47.16722" lon="-1.74159">
        <ele>3</ele>
        <time>2011-03-20T08:48:13Z</time>
      </trkpt>
      <trkpt lat="47.16689" lon="-1.74111">
        <ele>3</ele>
        <time>2011-03-20T08:48:20Z</time>
      </trkpt>
      <trkpt lat="47.16662" lon="-1.7408">
        <ele>2</ele>
        <time>2011-03-20T08:48:25Z</time>
      </trkpt>
      <trkpt lat="47.16619" lon="-1.74016">
        <ele>2</ele>
        <time>2011-03-20T08:48:34Z</time>
      </trkpt>
      <trkpt lat="47.16572" lon="-1.73936">
        <ele>3</ele>
        <time>2011-03-20T08:48:45Z</time>
      </trkpt>
      <trkpt lat="47.16561" lon="-1.73912">
        <ele>4</ele>
        <time>2011-03-20T08:48:48Z</time>
      </trkpt>
      <trkpt lat="47.16554" lon="-1.73867">
        <ele>5</ele>
        <time>2011-03-20T08:48:53Z</time>
      </trkpt>
      <trkpt lat="47.16562" lon="-1.7383">
        <ele>5</ele>
        <time>2011-03-20T08:48:57Z</time>
      </trkpt>
      <trkpt lat="47.16565" lon="-1.73821">
        <ele>5</ele>
        <time>2011-03-20T08:48:58Z</time>
      </trkpt>
      <trkpt lat="47.16573" lon="-1.73805">
        <ele>4</ele>
        <time>2011-03-20T08:49:00Z</time>
      </trkpt>
      <trkpt lat="47.16586" lon="-1.7375">
        <ele>5</ele>
        <time>2011-03-20T08:49:06Z</time>
      </trkpt>
      <trkpt lat="47.16599" lon="-1.73654">
        <ele>5</ele>
        <time>2011-03-20T08:49:16Z</time>
      </trkpt>
      <trkpt lat="47.16619" lon="-1.73592">
        <ele>5</ele>
        <time>2011-03-20T08:49:23Z</time>
      </trkpt>
      <trkpt lat="47.16639" lon="-1.73524">
        <ele>5</ele>
        <time>2011-03-20T08:49:31Z</time>
      </trkpt>
      <trkpt lat="47.16656" lon="-1.73453">
        <ele>4</ele>
        <time>2011-03-20T08:49:39Z</time>
      </trkpt>
      <trkpt lat="47.16658" lon="-1.73444">
        <ele>4</ele>
        <time>2011-03-20T08:49:40Z</time>
      </trkpt>
      <trkpt lat="47.16659" lon="-1.73408">
        <ele>4</ele>
        <time>2011-03-20T08:49:44Z</time>
      </trkpt>
      <trkpt lat="47.16651" lon="-1.7338">
        <ele>4</ele>
        <time>2011-03-20T08:49:48Z</time>
      </trkpt>
      <trkpt lat="47.16642" lon="-1.7336">
        <ele>4</ele>
        <time>2011-03-20T08:49:51Z</time>
      </trkpt>
      <trkpt lat="47.16634" lon="-1.73349">
        <ele>4</ele>
        <time>2011-03-20T08:49:53Z</time>
      </trkpt>
      <trkpt lat="47.16621" lon="-1.73311">
        <ele>5</ele>
        <time>2011-03-20T08:49:58Z</time>
      </trkpt>
      <trkpt lat="47.1662" lon="-1.73302">
        <ele>5</ele>
        <time>2011-03-20T08:49:59Z</time>
      </trkpt>
      <trkpt lat="47.16623" lon="-1.73229">
        <ele>6</ele>
        <time>2011-03-20T08:50:07Z</time>
      </trkpt>
      <trkpt lat="47.16626" lon="-1.7321">
        <ele>7</ele>
        <time>2011-03-20T08:50:09Z</time>
      </trkpt>
      <trkpt lat="47.16634" lon="-1.73148">
        <ele>8</ele>
        <time>2011-03-20T08:50:16Z</time>
      </trkpt>
      <trkpt lat="47.16628" lon="-1.73092">
        <ele>8</ele>
        <time>2011-03-20T08:50:22Z</time>
      </trkpt>
      <trkpt lat="47.16621" lon="-1.73057">
        <ele>9</ele>
        <time>2011-03-20T08:50:26Z</time>
      </trkpt>
      <trkpt lat="47.16601" lon="-1.72999">
        <ele>9</ele>
        <time>2011-03-20T08:50:33Z</time>
      </trkpt>
      <trkpt lat="47.16596" lon="-1.72984">
        <ele>9</ele>
        <time>2011-03-20T08:50:35Z</time>
      </trkpt>
      <trkpt lat="47.1658" lon="-1.72962">
        <ele>8</ele>
        <time>2011-03-20T08:50:39Z</time>
      </trkpt>
      <trkpt lat="47.16564" lon="-1.72948">
        <ele>9</ele>
        <time>2011-03-20T08:50:42Z</time>
      </trkpt>
      <trkpt lat="47.16547" lon="-1.72939">
        <ele>9</ele>
        <time>2011-03-20T08:50:45Z</time>
      </trkpt>
      <trkpt lat="47.16518" lon="-1.72926">
        <ele>10</ele>
        <time>2011-03-20T08:50:50Z</time>
      </trkpt>
      <trkpt lat="47.16512" lon="-1.72927">
        <ele>10</ele>
        <time>2011-03-20T08:50:51Z</time>
      </trkpt>
      <trkpt lat="47.16474" lon="-1.72931">
        <ele>12</ele>
        <time>2011-03-20T08:50:58Z</time>
      </trkpt>
      <trkpt lat="47.1647" lon="-1.72931">
        <ele>12</ele>
        <time>2011-03-20T08:50:59Z</time>
      </trkpt>
      <trkpt lat="47.16437" lon="-1.72921">
        <ele>13</ele>
        <time>2011-03-20T08:51:07Z</time>
      </trkpt>
      <trkpt lat="47.16405" lon="-1.72912">
        <ele>16</ele>
        <time>2011-03-20T08:51:15Z</time>
      </trkpt>
      <trkpt lat="47.16374" lon="-1.72905">
        <ele>17</ele>
        <time>2011-03-20T08:51:23Z</time>
      </trkpt>
      <trkpt lat="47.16344" lon="-1.72904">
        <ele>17</ele>
        <time>2011-03-20T08:51:30Z</time>
      </trkpt>
      <trkpt lat="47.16307" lon="-1.72911">
        <ele>18</ele>
        <time>2011-03-20T08:51:38Z</time>
      </trkpt>
      <trkpt lat="47.16262" lon="-1.72924">
        <ele>16</ele>
        <time>2011-03-20T08:51:47Z</time>
      </trkpt>
      <trkpt lat="47.16224" lon="-1.72929">
        <ele>17</ele>
        <time>2011-03-20T08:51:54Z</time>
      </trkpt>
      <trkpt lat="47.16164" lon="-1.72931">
        <ele>19</ele>
        <time>2011-03-20T08:52:05Z</time>
      </trkpt>
      <trkpt lat="47.16133" lon="-1.72928">
        <ele>19</ele>
        <time>2011-03-20T08:52:11Z</time>
      </trkpt>
      <trkpt lat="47.16122" lon="-1.72937">
        <ele>20</ele>
        <time>2011-03-20T08:52:14Z</time>
      </trkpt>
      <trkpt lat="47.16121" lon="-1.72944">
        <ele>19</ele>
        <time>2011-03-20T08:52:15Z</time>
      </trkpt>
      <trkpt lat="47.16112" lon="-1.72992">
        <ele>18</ele>
        <time>2011-03-20T08:52:21Z</time>
      </trkpt>
      <trkpt lat="47.16112" lon="-1.7303">
        <ele>16</ele>
        <time>2011-03-20T08:52:25Z</time>
      </trkpt>
      <trkpt lat="47.16128" lon="-1.73136">
        <ele>14</ele>
        <time>2011-03-20T08:52:36Z</time>
      </trkpt>
      <trkpt lat="47.16129" lon="-1.73155">
        <ele>14</ele>
        <time>2011-03-20T08:52:38Z</time>
      </trkpt>
      <trkpt lat="47.16123" lon="-1.7317">
        <ele>12</ele>
        <time>2011-03-20T08:52:40Z</time>
      </trkpt>
      <trkpt lat="47.16112" lon="-1.73178">
        <ele>12</ele>
        <time>2011-03-20T08:52:42Z</time>
      </trkpt>
      <trkpt lat="47.1606" lon="-1.73208">
        <ele>12</ele>
        <time>2011-03-20T08:52:50Z</time>
      </trkpt>
      <trkpt lat="47.16026" lon="-1.73238">
        <ele>12</ele>
        <time>2011-03-20T08:52:55Z</time>
      </trkpt>
      <trkpt lat="47.15996" lon="-1.73248">
        <ele>12</ele>
        <time>2011-03-20T08:52:59Z</time>
      </trkpt>
      <trkpt lat="47.15964" lon="-1.73272">
        <ele>13</ele>
        <time>2011-03-20T08:53:04Z</time>
      </trkpt>
      <trkpt lat="47.15928" lon="-1.73314">
        <ele>14</ele>
        <time>2011-03-20T08:53:11Z</time>
      </trkpt>
      <trkpt lat="47.15886" lon="-1.73349">
        <ele>16</ele>
        <time>2011-03-20T08:53:19Z</time>
      </trkpt>
      <trkpt lat="47.1585" lon="-1.73373">
        <ele>16</ele>
        <time>2011-03-20T08:53:26Z</time>
      </trkpt>
      <trkpt lat="47.15836" lon="-1.73392">
        <ele>16</ele>
        <time>2011-03-20T08:53:30Z</time>
      </trkpt>
      <trkpt lat="47.15823" lon="-1.734">
        <ele>17</ele>
        <time>2011-03-20T08:53:33Z</time>
      </trkpt>
      <trkpt lat="47.15796" lon="-1.73403">
        <ele>18</ele>
        <time>2011-03-20T08:53:39Z</time>
      </trkpt>
      <trkpt lat="47.15787" lon="-1.73406">
        <ele>18</ele>
        <time>2011-03-20T08:53:41Z</time>
      </trkpt>
      <trkpt lat="47.15754" lon="-1.73411">
        <ele>19</ele>
        <time>2011-03-20T08:53:48Z</time>
      </trkpt>
      <trkpt lat="47.15706" lon="-1.73419">
        <ele>19</ele>
        <time>2011-03-20T08:53:57Z</time>
      </trkpt>
      <trkpt lat="47.15701" lon="-1.73419">
        <ele>19</ele>
        <time>2011-03-20T08:53:58Z</time>
      </trkpt>
      <trkpt lat="47.15692" lon="-1.73433">
        <ele>19</ele>
        <time>2011-03-20T08:54:01Z</time>
      </trkpt>
      <trkpt lat="47.15693" lon="-1.73441">
        <ele>19</ele>
        <time>2011-03-20T08:54:02Z</time>
      </trkpt>
      <trkpt lat="47.15696" lon="-1.73517">
        <ele>18</ele>
        <time>2011-03-20T08:54:11Z</time>
      </trkpt>
      <trkpt lat="47.15699" lon="-1.73596">
        <ele>18</ele>
        <time>2011-03-20T08:54:20Z</time>
      </trkpt>
      <trkpt lat="47.15698" lon="-1.73683">
        <ele>17</ele>
        <time>2011-03-20T08:54:30Z</time>
      </trkpt>
      <trkpt lat="47.15687" lon="-1.73724">
        <ele>17</ele>
        <time>2011-03-20T08:54:35Z</time>
      </trkpt>
      <trkpt lat="47.15664" lon="-1.73787">
        <ele>17</ele>
        <time>2011-03-20T08:54:43Z</time>
      </trkpt>
      <trkpt lat="47.15632" lon="-1.73867">
        <ele>17</ele>
        <time>2011-03-20T08:54:53Z</time>
      </trkpt>
      <trkpt lat="47.15601" lon="-1.73935">
        <ele>16</ele>
        <time>2011-03-20T08:55:01Z</time>
      </trkpt>
      <trkpt lat="47.15551" lon="-1.74042">
        <ele>12</ele>
        <time>2011-03-20T08:55:13Z</time>
      </trkpt>
      <trkpt lat="47.15524" lon="-1.74099">
        <ele>11</ele>
        <time>2011-03-20T08:55:19Z</time>
      </trkpt>
      <trkpt lat="47.15508" lon="-1.74133">
        <ele>10</ele>
        <time>2011-03-20T08:55:22Z</time>
      </trkpt>
      <trkpt lat="47.15502" lon="-1.74145">
        <ele>10</ele>
        <time>2011-03-20T08:55:23Z</time>
      </trkpt>
      <trkpt lat="47.15486" lon="-1.74179">
        <ele>6</ele>
        <time>2011-03-20T08:55:26Z</time>
      </trkpt>
      <trkpt lat="47.15481" lon="-1.7419">
        <ele>6</ele>
        <time>2011-03-20T08:55:27Z</time>
      </trkpt>
      <trkpt lat="47.15455" lon="-1.74215">
        <ele>5</ele>
        <time>2011-03-20T08:55:31Z</time>
      </trkpt>
      <trkpt lat="47.15443" lon="-1.74206">
        <ele>5</ele>
        <time>2011-03-20T08:55:33Z</time>
      </trkpt>
      <trkpt lat="47.1544" lon="-1.74198">
        <ele>5</ele>
        <time>2011-03-20T08:55:34Z</time>
      </trkpt>
      <trkpt lat="47.15412" lon="-1.74136">
        <ele>4</ele>
        <time>2011-03-20T08:55:41Z</time>
      </trkpt>
      <trkpt lat="47.15393" lon="-1.74083">
        <ele>3</ele>
        <time>2011-03-20T08:55:47Z</time>
      </trkpt>
      <trkpt lat="47.1537" lon="-1.74061">
        <ele>3</ele>
        <time>2011-03-20T08:55:51Z</time>
      </trkpt>
      <trkpt lat="47.15357" lon="-1.74055">
        <ele>3</ele>
        <time>2011-03-20T08:55:53Z</time>
      </trkpt>
      <trkpt lat="47.15337" lon="-1.7403">
        <ele>3</ele>
        <time>2011-03-20T08:55:57Z</time>
      </trkpt>
      <trkpt lat="47.15315" lon="-1.74016">
        <ele>2</ele>
        <time>2011-03-20T08:56:01Z</time>
      </trkpt>
      <trkpt lat="47.15281" lon="-1.74023">
        <ele>2</ele>
        <time>2011-03-20T08:56:06Z</time>
      </trkpt>
      <trkpt lat="47.15236" lon="-1.74033">
        <ele>2</ele>
        <time>2011-03-20T08:56:13Z</time>
      </trkpt>
      <trkpt lat="47.15224" lon="-1.74035">
        <ele>2</ele>
        <time>2011-03-20T08:56:15Z</time>
      </trkpt>
      <trkpt lat="47.15206" lon="-1.74035">
        <ele>3</ele>
        <time>2011-03-20T08:56:18Z</time>
      </trkpt>
      <trkpt lat="47.1518" lon="-1.74026">
        <ele>3</ele>
        <time>2011-03-20T08:56:23Z</time>
      </trkpt>
      <trkpt lat="47.15175" lon="-1.74023">
        <ele>3</ele>
        <time>2011-03-20T08:56:24Z</time>
      </trkpt>
      <trkpt lat="47.1514" lon="-1.74003">
        <ele>5</ele>
        <time>2011-03-20T08:56:31Z</time>
      </trkpt>
      <trkpt lat="47.15125" lon="-1.73996">
        <ele>6</ele>
        <time>2011-03-20T08:56:35Z</time>
      </trkpt>
      <trkpt lat="47.15111" lon="-1.74">
        <ele>6</ele>
        <time>2011-03-20T08:56:40Z</time>
      </trkpt>
      <trkpt lat="47.15097" lon="-1.74007">
        <ele>7</ele>
        <time>2011-03-20T08:56:45Z</time>
      </trkpt>
      <trkpt lat="47.15085" lon="-1.74011">
        <ele>7</ele>
        <time>2011-03-20T08:56:51Z</time>
      </trkpt>
      <trkpt lat="47.15072" lon="-1.74013">
        <ele>10</ele>
        <time>2011-03-20T08:56:57Z</time>
      </trkpt>
      <trkpt lat="47.1506" lon="-1.74018">
        <ele>10</ele>
        <time>2011-03-20T08:57:02Z</time>
      </trkpt>
      <trkpt lat="47.15044" lon="-1.74026">
        <ele>11</ele>
        <time>2011-03-20T08:57:09Z</time>
      </trkpt>
      <trkpt lat="47.15032" lon="-1.74031">
        <ele>11</ele>
        <time>2011-03-20T08:57:15Z</time>
      </trkpt>
      <trkpt lat="47.15025" lon="-1.74032">
        <ele>12</ele>
        <time>2011-03-20T08:57:18Z</time>
      </trkpt>
      <trkpt lat="47.15008" lon="-1.74039">
        <ele>12</ele>
        <time>2011-03-20T08:57:24Z</time>
      </trkpt>
      <trkpt lat="47.14992" lon="-1.7404">
        <ele>15</ele>
        <time>2011-03-20T08:57:30Z</time>
      </trkpt>
      <trkpt lat="47.14975" lon="-1.74043">
        <ele>16</ele>
        <time>2011-03-20T08:57:37Z</time>
      </trkpt>
      <trkpt lat="47.14959" lon="-1.74043">
        <ele>16</ele>
        <time>2011-03-20T08:57:42Z</time>
      </trkpt>
      <trkpt lat="47.14952" lon="-1.74028">
        <ele>16</ele>
        <time>2011-03-20T08:57:47Z</time>
      </trkpt>
      <trkpt lat="47.14952" lon="-1.74021">
        <ele>16</ele>
        <time>2011-03-20T08:57:49Z</time>
      </trkpt>
      <trkpt lat="47.1495" lon="-1.73988">
        <ele>17</ele>
        <time>2011-03-20T08:57:57Z</time>
      </trkpt>
      <trkpt lat="47.14949" lon="-1.73963">
        <ele>17</ele>
        <time>2011-03-20T08:58:03Z</time>
      </trkpt>
      <trkpt lat="47.14948" lon="-1.73935">
        <ele>17</ele>
        <time>2011-03-20T08:58:09Z</time>
      </trkpt>
      <trkpt lat="47.14946" lon="-1.73899">
        <ele>16</ele>
        <time>2011-03-20T08:58:16Z</time>
      </trkpt>
      <trkpt lat="47.14947" lon="-1.73878">
        <ele>16</ele>
        <time>2011-03-20T08:58:21Z</time>
      </trkpt>
      <trkpt lat="47.14945" lon="-1.73865">
        <ele>16</ele>
        <time>2011-03-20T08:58:26Z</time>
      </trkpt>
      <trkpt lat="47.14944" lon="-1.73848">
        <ele>16</ele>
        <time>2011-03-20T08:58:31Z</time>
      </trkpt>
      <trkpt lat="47.14936" lon="-1.73844">
        <ele>16</ele>
        <time>2011-03-20T08:58:36Z</time>
      </trkpt>
      <trkpt lat="47.14921" lon="-1.73846">
        <ele>16</ele>
        <time>2011-03-20T08:58:41Z</time>
      </trkpt>
      <trkpt lat="47.14902" lon="-1.73849">
        <ele>18</ele>
        <time>2011-03-20T08:58:47Z</time>
      </trkpt>
      <trkpt lat="47.14888" lon="-1.73851">
        <ele>18</ele>
        <time>2011-03-20T08:58:52Z</time>
      </trkpt>
      <trkpt lat="47.14874" lon="-1.73853">
        <ele>19</ele>
        <time>2011-03-20T08:58:57Z</time>
      </trkpt>
      <trkpt lat="47.14864" lon="-1.73857">
        <ele>19</ele>
        <time>2011-03-20T08:59:02Z</time>
      </trkpt>
      <trkpt lat="47.14852" lon="-1.73861">
        <ele>19</ele>
        <time>2011-03-20T08:59:09Z</time>
      </trkpt>
      <trkpt lat="47.14833" lon="-1.73866">
        <ele>21</ele>
        <time>2011-03-20T08:59:15Z</time>
      </trkpt>
      <trkpt lat="47.14809" lon="-1.73867">
        <ele>21</ele>
        <time>2011-03-20T08:59:22Z</time>
      </trkpt>
      <trkpt lat="47.14787" lon="-1.73867">
        <ele>21</ele>
        <time>2011-03-20T08:59:28Z</time>
      </trkpt>
      <trkpt lat="47.14763" lon="-1.73876">
        <ele>21</ele>
        <time>2011-03-20T08:59:36Z</time>
      </trkpt>
      <trkpt lat="47.1476" lon="-1.73878">
        <ele>21</ele>
        <time>2011-03-20T08:59:37Z</time>
      </trkpt>
      <trkpt lat="47.14746" lon="-1.73876">
        <ele>23</ele>
        <time>2011-03-20T08:59:42Z</time>
      </trkpt>
      <trkpt lat="47.14742" lon="-1.73875">
        <ele>23</ele>
        <time>2011-03-20T08:59:43Z</time>
      </trkpt>
      <trkpt lat="47.14721" lon="-1.73877">
        <ele>23</ele>
        <time>2011-03-20T08:59:49Z</time>
      </trkpt>
      <trkpt lat="47.14709" lon="-1.73885">
        <ele>23</ele>
        <time>2011-03-20T08:59:52Z</time>
      </trkpt>
      <trkpt lat="47.14701" lon="-1.7389">
        <ele>23</ele>
        <time>2011-03-20T08:59:54Z</time>
      </trkpt>
      <trkpt lat="47.14686" lon="-1.73895">
        <ele>24</ele>
        <time>2011-03-20T08:59:58Z</time>
      </trkpt>
      <trkpt lat="47.14679" lon="-1.7388">
        <ele>24</ele>
        <time>2011-03-20T09:00:01Z</time>
      </trkpt>
      <trkpt lat="47.14658" lon="-1.7384">
        <ele>25</ele>
        <time>2011-03-20T09:00:09Z</time>
      </trkpt>
      <trkpt lat="47.14645" lon="-1.73811">
        <ele>24</ele>
        <time>2011-03-20T09:00:15Z</time>
      </trkpt>
      <trkpt lat="47.14643" lon="-1.73801">
        <ele>24</ele>
        <time>2011-03-20T09:00:17Z</time>
      </trkpt>
      <trkpt lat="47.14631" lon="-1.73796">
        <ele>24</ele>
        <time>2011-03-20T09:00:21Z</time>
      </trkpt>
      <trkpt lat="47.14628" lon="-1.73798">
        <ele>24</ele>
        <time>2011-03-20T09:00:22Z</time>
      </trkpt>
      <trkpt lat="47.14604" lon="-1.73818">
        <ele>24</ele>
        <time>2011-03-20T09:00:30Z</time>
      </trkpt>
      <trkpt lat="47.14581" lon="-1.73841">
        <ele>24</ele>
        <time>2011-03-20T09:00:37Z</time>
      </trkpt>
      <trkpt lat="47.1455" lon="-1.73866">
        <ele>25</ele>
        <time>2011-03-20T09:00:45Z</time>
      </trkpt>
      <trkpt lat="47.14523" lon="-1.7389">
        <ele>25</ele>
        <time>2011-03-20T09:00:52Z</time>
      </trkpt>
      <trkpt lat="47.14494" lon="-1.73906">
        <ele>26</ele>
        <time>2011-03-20T09:00:59Z</time>
      </trkpt>
      <trkpt lat="47.14454" lon="-1.73919">
        <ele>26</ele>
        <time>2011-03-20T09:01:08Z</time>
      </trkpt>
      <trkpt lat="47.14441" lon="-1.73922">
        <ele>26</ele>
        <time>2011-03-20T09:01:11Z</time>
      </trkpt>
      <trkpt lat="47.14423" lon="-1.73933">
        <ele>26</ele>
        <time>2011-03-20T09:01:16Z</time>
      </trkpt>
      <trkpt lat="47.1442" lon="-1.73935">
        <ele>26</ele>
        <time>2011-03-20T09:01:17Z</time>
      </trkpt>
      <trkpt lat="47.14406" lon="-1.73948">
        <ele>25</ele>
        <time>2011-03-20T09:01:22Z</time>
      </trkpt>
      <trkpt lat="47.14388" lon="-1.7396">
        <ele>25</ele>
        <time>2011-03-20T09:01:27Z</time>
      </trkpt>
      <trkpt lat="47.14365" lon="-1.7398">
        <ele>25</ele>
        <time>2011-03-20T09:01:34Z</time>
      </trkpt>
      <trkpt lat="47.1435" lon="-1.73994">
        <ele>25</ele>
        <time>2011-03-20T09:01:40Z</time>
      </trkpt>
      <trkpt lat="47.14337" lon="-1.74007">
        <ele>25</ele>
        <time>2011-03-20T09:01:46Z</time>
      </trkpt>
      <trkpt lat="47.14322" lon="-1.74019">
        <ele>25</ele>
        <time>2011-03-20T09:01:52Z</time>
      </trkpt>
      <trkpt lat="47.1431" lon="-1.74027">
        <ele>24</ele>
        <time>2011-03-20T09:01:57Z</time>
      </trkpt>
      <trkpt lat="47.1429" lon="-1.74041">
        <ele>24</ele>
        <time>2011-03-20T09:02:04Z</time>
      </trkpt>
      <trkpt lat="47.14283" lon="-1.74048">
        <ele>24</ele>
        <time>2011-03-20T09:02:07Z</time>
      </trkpt>
      <trkpt lat="47.14284" lon="-1.74062">
        <ele>24</ele>
        <time>2011-03-20T09:02:11Z</time>
      </trkpt>
      <trkpt lat="47.14295" lon="-1.74089">
        <ele>24</ele>
        <time>2011-03-20T09:02:18Z</time>
      </trkpt>
      <trkpt lat="47.14309" lon="-1.74127">
        <ele>24</ele>
        <time>2011-03-20T09:02:26Z</time>
      </trkpt>
      <trkpt lat="47.1431" lon="-1.74146">
        <ele>24</ele>
        <time>2011-03-20T09:02:30Z</time>
      </trkpt>
      <trkpt lat="47.14299" lon="-1.74159">
        <ele>24</ele>
        <time>2011-03-20T09:02:34Z</time>
      </trkpt>
      <trkpt lat="47.14273" lon="-1.74184">
        <ele>23</ele>
        <time>2011-03-20T09:02:41Z</time>
      </trkpt>
      <trkpt lat="47.14251" lon="-1.74204">
        <ele>23</ele>
        <time>2011-03-20T09:02:46Z</time>
      </trkpt>
      <trkpt lat="47.14227" lon="-1.74205">
        <ele>22</ele>
        <time>2011-03-20T09:02:51Z</time>
      </trkpt>
      <trkpt lat="47.1419" lon="-1.74206">
        <ele>22</ele>
        <time>2011-03-20T09:02:58Z</time>
      </trkpt>
      <trkpt lat="47.14164" lon="-1.7421">
        <ele>21</ele>
        <time>2011-03-20T09:03:03Z</time>
      </trkpt>
      <trkpt lat="47.14144" lon="-1.74201">
        <ele>21</ele>
        <time>2011-03-20T09:03:07Z</time>
      </trkpt>
      <trkpt lat="47.14108" lon="-1.74155">
        <ele>22</ele>
        <time>2011-03-20T09:03:15Z</time>
      </trkpt>
      <trkpt lat="47.14065" lon="-1.74098">
        <ele>22</ele>
        <time>2011-03-20T09:03:25Z</time>
      </trkpt>
      <trkpt lat="47.14034" lon="-1.74046">
        <ele>22</ele>
        <time>2011-03-20T09:03:33Z</time>
      </trkpt>
      <trkpt lat="47.14013" lon="-1.74007">
        <ele>22</ele>
        <time>2011-03-20T09:03:39Z</time>
      </trkpt>
      <trkpt lat="47.13999" lon="-1.73989">
        <ele>22</ele>
        <time>2011-03-20T09:03:43Z</time>
      </trkpt>
      <trkpt lat="47.13992" lon="-1.73966">
        <ele>21</ele>
        <time>2011-03-20T09:03:47Z</time>
      </trkpt>
      <trkpt lat="47.13995" lon="-1.73945">
        <ele>21</ele>
        <time>2011-03-20T09:03:50Z</time>
      </trkpt>
      <trkpt lat="47.14022" lon="-1.73886">
        <ele>21</ele>
        <time>2011-03-20T09:03:58Z</time>
      </trkpt>
      <trkpt lat="47.14028" lon="-1.73871">
        <ele>21</ele>
        <time>2011-03-20T09:04:00Z</time>
      </trkpt>
      <trkpt lat="47.14048" lon="-1.73805">
        <ele>19</ele>
        <time>2011-03-20T09:04:08Z</time>
      </trkpt>
      <trkpt lat="47.1406" lon="-1.73774">
        <ele>19</ele>
        <time>2011-03-20T09:04:12Z</time>
      </trkpt>
      <trkpt lat="47.14085" lon="-1.73699">
        <ele>18</ele>
        <time>2011-03-20T09:04:21Z</time>
      </trkpt>
      <trkpt lat="47.14104" lon="-1.7363">
        <ele>19</ele>
        <time>2011-03-20T09:04:29Z</time>
      </trkpt>
      <trkpt lat="47.14134" lon="-1.73549">
        <ele>19</ele>
        <time>2011-03-20T09:04:39Z</time>
      </trkpt>
      <trkpt lat="47.14141" lon="-1.73534">
        <ele>20</ele>
        <time>2011-03-20T09:04:41Z</time>
      </trkpt>
      <trkpt lat="47.1416" lon="-1.73474">
        <ele>21</ele>
        <time>2011-03-20T09:04:49Z</time>
      </trkpt>
      <trkpt lat="47.14173" lon="-1.73419">
        <ele>21</ele>
        <time>2011-03-20T09:04:56Z</time>
      </trkpt>
      <trkpt lat="47.14187" lon="-1.73356">
        <ele>21</ele>
        <time>2011-03-20T09:05:04Z</time>
      </trkpt>
      <trkpt lat="47.14204" lon="-1.73289">
        <ele>22</ele>
        <time>2011-03-20T09:05:13Z</time>
      </trkpt>
      <trkpt lat="47.14222" lon="-1.73234">
        <ele>23</ele>
        <time>2011-03-20T09:05:21Z</time>
      </trkpt>
      <trkpt lat="47.14249" lon="-1.73184">
        <ele>24</ele>
        <time>2011-03-20T09:05:29Z</time>
      </trkpt>
      <trkpt lat="47.14285" lon="-1.73136">
        <ele>25</ele>
        <time>2011-03-20T09:05:38Z</time>
      </trkpt>
      <trkpt lat="47.14324" lon="-1.73094">
        <ele>26</ele>
        <time>2011-03-20T09:05:47Z</time>
      </trkpt>
      <trkpt lat="47.14357" lon="-1.73056">
        <ele>26</ele>
        <time>2011-03-20T09:05:55Z</time>
      </trkpt>
      <trkpt lat="47.14378" lon="-1.73029">
        <ele>26</ele>
        <time>2011-03-20T09:06:01Z</time>
      </trkpt>
      <trkpt lat="47.1441" lon="-1.72992">
        <ele>26</ele>
        <time>2011-03-20T09:06:09Z</time>
      </trkpt>
      <trkpt lat="47.14449" lon="-1.72948">
        <ele>25</ele>
        <time>2011-03-20T09:06:18Z</time>
      </trkpt>
      <trkpt lat="47.14485" lon="-1.72907">
        <ele>25</ele>
        <time>2011-03-20T09:06:26Z</time>
      </trkpt>
      <trkpt lat="47.14494" lon="-1.72898">
        <ele>25</ele>
        <time>2011-03-20T09:06:28Z</time>
      </trkpt>
      <trkpt lat="47.14541" lon="-1.72849">
        <ele>24</ele>
        <time>2011-03-20T09:06:38Z</time>
      </trkpt>
      <trkpt lat="47.1458" lon="-1.72806">
        <ele>24</ele>
        <time>2011-03-20T09:06:46Z</time>
      </trkpt>
      <trkpt lat="47.14613" lon="-1.72766">
        <ele>25</ele>
        <time>2011-03-20T09:06:53Z</time>
      </trkpt>
      <trkpt lat="47.14622" lon="-1.72756">
        <ele>25</ele>
        <time>2011-03-20T09:06:55Z</time>
      </trkpt>
      <trkpt lat="47.14653" lon="-1.72716">
        <ele>25</ele>
        <time>2011-03-20T09:07:02Z</time>
      </trkpt>
      <trkpt lat="47.14679" lon="-1.7267">
        <ele>25</ele>
        <time>2011-03-20T09:07:09Z</time>
      </trkpt>
      <trkpt lat="47.14718" lon="-1.72604">
        <ele>25</ele>
        <time>2011-03-20T09:07:19Z</time>
      </trkpt>
      <trkpt lat="47.14725" lon="-1.72589">
        <ele>25</ele>
        <time>2011-03-20T09:07:21Z</time>
      </trkpt>
      <trkpt lat="47.14752" lon="-1.72527">
        <ele>24</ele>
        <time>2011-03-20T09:07:29Z</time>
      </trkpt>
      <trkpt lat="47.14778" lon="-1.72464">
        <ele>23</ele>
        <time>2011-03-20T09:07:37Z</time>
      </trkpt>
      <trkpt lat="47.14808" lon="-1.72394">
        <ele>22</ele>
        <time>2011-03-20T09:07:46Z</time>
      </trkpt>
      <trkpt lat="47.14842" lon="-1.72311">
        <ele>21</ele>
        <time>2011-03-20T09:07:56Z</time>
      </trkpt>
      <trkpt lat="47.14882" lon="-1.72218">
        <ele>20</ele>
        <time>2011-03-20T09:08:07Z</time>
      </trkpt>
      <trkpt lat="47.14892" lon="-1.72193">
        <ele>20</ele>
        <time>2011-03-20T09:08:10Z</time>
      </trkpt>
      <trkpt lat="47.14911" lon="-1.72169">
        <ele>20</ele>
        <time>2011-03-20T09:08:14Z</time>
      </trkpt>
      <trkpt lat="47.1494" lon="-1.72134">
        <ele>21</ele>
        <time>2011-03-20T09:08:20Z</time>
      </trkpt>
      <trkpt lat="47.14967" lon="-1.721">
        <ele>21</ele>
        <time>2011-03-20T09:08:26Z</time>
      </trkpt>
      <trkpt lat="47.14985" lon="-1.72069">
        <ele>22</ele>
        <time>2011-03-20T09:08:31Z</time>
      </trkpt>
      <trkpt lat="47.14988" lon="-1.72062">
        <ele>22</ele>
        <time>2011-03-20T09:08:32Z</time>
      </trkpt>
      <trkpt lat="47.15016" lon="-1.71999">
        <ele>22</ele>
        <time>2011-03-20T09:08:41Z</time>
      </trkpt>
      <trkpt lat="47.15038" lon="-1.7195">
        <ele>23</ele>
        <time>2011-03-20T09:08:48Z</time>
      </trkpt>
      <trkpt lat="47.15063" lon="-1.71903">
        <ele>24</ele>
        <time>2011-03-20T09:08:55Z</time>
      </trkpt>
      <trkpt lat="47.15097" lon="-1.71844">
        <ele>23</ele>
        <time>2011-03-20T09:09:03Z</time>
      </trkpt>
      <trkpt lat="47.15127" lon="-1.71806">
        <ele>23</ele>
        <time>2011-03-20T09:09:09Z</time>
      </trkpt>
      <trkpt lat="47.15167" lon="-1.71759">
        <ele>23</ele>
        <time>2011-03-20T09:09:17Z</time>
      </trkpt>
      <trkpt lat="47.15207" lon="-1.71711">
        <ele>24</ele>
        <time>2011-03-20T09:09:25Z</time>
      </trkpt>
      <trkpt lat="47.15225" lon="-1.71684">
        <ele>24</ele>
        <time>2011-03-20T09:09:29Z</time>
      </trkpt>
      <trkpt lat="47.15233" lon="-1.7167">
        <ele>24</ele>
        <time>2011-03-20T09:09:31Z</time>
      </trkpt>
      <trkpt lat="47.15247" lon="-1.71659">
        <ele>24</ele>
        <time>2011-03-20T09:09:35Z</time>
      </trkpt>
      <trkpt lat="47.1525" lon="-1.71663">
        <ele>24</ele>
        <time>2011-03-20T09:09:36Z</time>
      </trkpt>
      <trkpt lat="47.15277" lon="-1.71693">
        <ele>25</ele>
        <time>2011-03-20T09:09:44Z</time>
      </trkpt>
      <trkpt lat="47.15298" lon="-1.7172">
        <ele>26</ele>
        <time>2011-03-20T09:09:49Z</time>
      </trkpt>
      <trkpt lat="47.15317" lon="-1.71749">
        <ele>26</ele>
        <time>2011-03-20T09:09:54Z</time>
      </trkpt>
      <trkpt lat="47.1532" lon="-1.71755">
        <ele>25</ele>
        <time>2011-03-20T09:09:55Z</time>
      </trkpt>
      <trkpt lat="47.15337" lon="-1.71769">
        <ele>25</ele>
        <time>2011-03-20T09:09:59Z</time>
      </trkpt>
      <trkpt lat="47.15358" lon="-1.71761">
        <ele>24</ele>
        <time>2011-03-20T09:10:03Z</time>
      </trkpt>
      <trkpt lat="47.15368" lon="-1.71755">
        <ele>24</ele>
        <time>2011-03-20T09:10:05Z</time>
      </trkpt>
      <trkpt lat="47.15393" lon="-1.71739">
        <ele>24</ele>
        <time>2011-03-20T09:10:11Z</time>
      </trkpt>
      <trkpt lat="47.15407" lon="-1.71725">
        <ele>24</ele>
        <time>2011-03-20T09:10:17Z</time>
      </trkpt>
      <trkpt lat="47.15418" lon="-1.71712">
        <ele>23</ele>
        <time>2011-03-20T09:10:21Z</time>
      </trkpt>
      <trkpt lat="47.1544" lon="-1.71699">
        <ele>23</ele>
        <time>2011-03-20T09:10:27Z</time>
      </trkpt>
      <trkpt lat="47.15459" lon="-1.71699">
        <ele>24</ele>
        <time>2011-03-20T09:10:33Z</time>
      </trkpt>
      <trkpt lat="47.15468" lon="-1.71703">
        <ele>24</ele>
        <time>2011-03-20T09:10:38Z</time>
      </trkpt>
      <trkpt lat="47.15475" lon="-1.71707">
        <ele>24</ele>
        <time>2011-03-20T09:10:43Z</time>
      </trkpt>
      <trkpt lat="47.15478" lon="-1.71709">
        <ele>24</ele>
        <time>2011-03-20T09:10:49Z</time>
      </trkpt>
      <trkpt lat="47.15488" lon="-1.71714">
        <ele>24</ele>
        <time>2011-03-20T09:10:58Z</time>
      </trkpt>
      <trkpt lat="47.1549" lon="-1.71714">
        <ele>24</ele>
        <time>2011-03-20T09:10:59Z</time>
      </trkpt>
      <trkpt lat="47.15496" lon="-1.71704">
        <ele>24</ele>
        <time>2011-03-20T09:11:04Z</time>
      </trkpt>
      <trkpt lat="47.15496" lon="-1.717">
        <ele>24</ele>
        <time>2011-03-20T09:11:05Z</time>
      </trkpt>
      <trkpt lat="47.15491" lon="-1.71651">
        <ele>24</ele>
        <time>2011-03-20T09:11:14Z</time>
      </trkpt>
      <trkpt lat="47.1549" lon="-1.71595">
        <ele>23</ele>
        <time>2011-03-20T09:11:23Z</time>
      </trkpt>
      <trkpt lat="47.15489" lon="-1.71556">
        <ele>23</ele>
        <time>2011-03-20T09:11:29Z</time>
      </trkpt>
      <trkpt lat="47.15489" lon="-1.71549">
        <ele>23</ele>
        <time>2011-03-20T09:11:30Z</time>
      </trkpt>
      <trkpt lat="47.15489" lon="-1.71483">
        <ele>23</ele>
        <time>2011-03-20T09:11:39Z</time>
      </trkpt>
      <trkpt lat="47.15482" lon="-1.71434">
        <ele>24</ele>
        <time>2011-03-20T09:11:46Z</time>
      </trkpt>
      <trkpt lat="47.15472" lon="-1.71401">
        <ele>24</ele>
        <time>2011-03-20T09:11:51Z</time>
      </trkpt>
      <trkpt lat="47.1547" lon="-1.71376">
        <ele>24</ele>
        <time>2011-03-20T09:11:55Z</time>
      </trkpt>
      <trkpt lat="47.15477" lon="-1.71352">
        <ele>24</ele>
        <time>2011-03-20T09:11:59Z</time>
      </trkpt>
      <trkpt lat="47.15472" lon="-1.71342">
        <ele>24</ele>
        <time>2011-03-20T09:12:01Z</time>
      </trkpt>
      <trkpt lat="47.15447" lon="-1.713">
        <ele>24</ele>
        <time>2011-03-20T09:12:08Z</time>
      </trkpt>
      <trkpt lat="47.15418" lon="-1.71251">
        <ele>24</ele>
        <time>2011-03-20T09:12:16Z</time>
      </trkpt>
      <trkpt lat="47.15389" lon="-1.71209">
        <ele>24</ele>
        <time>2011-03-20T09:12:23Z</time>
      </trkpt>
      <trkpt lat="47.15355" lon="-1.71171">
        <ele>24</ele>
        <time>2011-03-20T09:12:30Z</time>
      </trkpt>
      <trkpt lat="47.15319" lon="-1.71128">
        <ele>24</ele>
        <time>2011-03-20T09:12:37Z</time>
      </trkpt>
      <trkpt lat="47.15286" lon="-1.71088">
        <ele>24</ele>
        <time>2011-03-20T09:12:43Z</time>
      </trkpt>
      <trkpt lat="47.15238" lon="-1.71011">
        <ele>23</ele>
        <time>2011-03-20T09:12:53Z</time>
      </trkpt>
      <trkpt lat="47.15219" lon="-1.70969">
        <ele>24</ele>
        <time>2011-03-20T09:12:58Z</time>
      </trkpt>
      <trkpt lat="47.15202" lon="-1.70958">
        <ele>24</ele>
        <time>2011-03-20T09:13:01Z</time>
      </trkpt>
      <trkpt lat="47.1519" lon="-1.70965">
        <ele>24</ele>
        <time>2011-03-20T09:13:03Z</time>
      </trkpt>
      <trkpt lat="47.15144" lon="-1.70994">
        <ele>24</ele>
        <time>2011-03-20T09:13:10Z</time>
      </trkpt>
      <trkpt lat="47.151" lon="-1.71026">
        <ele>23</ele>
        <time>2011-03-20T09:13:17Z</time>
      </trkpt>
      <trkpt lat="47.15094" lon="-1.71031">
        <ele>23</ele>
        <time>2011-03-20T09:13:18Z</time>
      </trkpt>
      <trkpt lat="47.15071" lon="-1.71034">
        <ele>23</ele>
        <time>2011-03-20T09:13:22Z</time>
      </trkpt>
      <trkpt lat="47.15061" lon="-1.71011">
        <ele>23</ele>
        <time>2011-03-20T09:13:25Z</time>
      </trkpt>
      <trkpt lat="47.15041" lon="-1.70944">
        <ele>23</ele>
        <time>2011-03-20T09:13:32Z</time>
      </trkpt>
      <trkpt lat="47.15016" lon="-1.70858">
        <ele>23</ele>
        <time>2011-03-20T09:13:41Z</time>
      </trkpt>
      <trkpt lat="47.14987" lon="-1.70768">
        <ele>22</ele>
        <time>2011-03-20T09:13:51Z</time>
      </trkpt>
      <trkpt lat="47.14985" lon="-1.70732">
        <ele>21</ele>
        <time>2011-03-20T09:13:55Z</time>
      </trkpt>
      <trkpt lat="47.15005" lon="-1.70636">
        <ele>21</ele>
        <time>2011-03-20T09:14:05Z</time>
      </trkpt>
      <trkpt lat="47.15017" lon="-1.70569">
        <ele>21</ele>
        <time>2011-03-20T09:14:12Z</time>
      </trkpt>
      <trkpt lat="47.15019" lon="-1.70559">
        <ele>21</ele>
        <time>2011-03-20T09:14:13Z</time>
      </trkpt>
      <trkpt lat="47.15016" lon="-1.70522">
        <ele>20</ele>
        <time>2011-03-20T09:14:17Z</time>
      </trkpt>
      <trkpt lat="47.15" lon="-1.70491">
        <ele>20</ele>
        <time>2011-03-20T09:14:21Z</time>
      </trkpt>
      <trkpt lat="47.14995" lon="-1.70484">
        <ele>20</ele>
        <time>2011-03-20T09:14:22Z</time>
      </trkpt>
      <trkpt lat="47.14933" lon="-1.70414">
        <ele>20</ele>
        <time>2011-03-20T09:14:34Z</time>
      </trkpt>
      <trkpt lat="47.14882" lon="-1.70374">
        <ele>20</ele>
        <time>2011-03-20T09:14:43Z</time>
      </trkpt>
      <trkpt lat="47.14825" lon="-1.70338">
        <ele>20</ele>
        <time>2011-03-20T09:14:53Z</time>
      </trkpt>
      <trkpt lat="47.14793" lon="-1.70314">
        <ele>21</ele>
        <time>2011-03-20T09:14:59Z</time>
      </trkpt>
      <trkpt lat="47.14767" lon="-1.70275">
        <ele>21</ele>
        <time>2011-03-20T09:15:05Z</time>
      </trkpt>
      <trkpt lat="47.14741" lon="-1.70237">
        <ele>21</ele>
        <time>2011-03-20T09:15:11Z</time>
      </trkpt>
      <trkpt lat="47.14706" lon="-1.70182">
        <ele>20</ele>
        <time>2011-03-20T09:15:19Z</time>
      </trkpt>
      <trkpt lat="47.14694" lon="-1.70157">
        <ele>19</ele>
        <time>2011-03-20T09:15:22Z</time>
      </trkpt>
      <trkpt lat="47.14666" lon="-1.70086">
        <ele>18</ele>
        <time>2011-03-20T09:15:29Z</time>
      </trkpt>
      <trkpt lat="47.14631" lon="-1.69994">
        <ele>14</ele>
        <time>2011-03-20T09:15:38Z</time>
      </trkpt>
      <trkpt lat="47.14608" lon="-1.69929">
        <ele>15</ele>
        <time>2011-03-20T09:15:45Z</time>
      </trkpt>
      <trkpt lat="47.14597" lon="-1.69918">
        <ele>16</ele>
        <time>2011-03-20T09:15:48Z</time>
      </trkpt>
      <trkpt lat="47.14592" lon="-1.69924">
        <ele>16</ele>
        <time>2011-03-20T09:15:50Z</time>
      </trkpt>
      <trkpt lat="47.14587" lon="-1.69931">
        <ele>16</ele>
        <time>2011-03-20T09:15:53Z</time>
      </trkpt>
      <trkpt lat="47.14584" lon="-1.69931">
        <ele>16</ele>
        <time>2011-03-20T09:15:56Z</time>
      </trkpt>
      <trkpt lat="47.14584" lon="-1.69932">
        <ele>16</ele>
        <time>2011-03-20T09:16:00Z</time>
      </trkpt>
      <trkpt lat="47.14583" lon="-1.69932">
        <ele>16</ele>
        <time>2011-03-20T09:16:02Z</time>
      </trkpt>
      <trkpt lat="47.14592" lon="-1.69936">
        <ele>15</ele>
        <time>2011-03-20T09:22:44Z</time>
      </trkpt>
      <trkpt lat="47.14592" lon="-1.69935">
        <ele>15</ele>
        <time>2011-03-20T09:22:45Z</time>
      </trkpt>
      <trkpt lat="47.14594" lon="-1.69933">
        <ele>15</ele>
        <time>2011-03-20T09:22:49Z</time>
      </trkpt>
      <trkpt lat="47.14594" lon="-1.69932">
        <ele>15</ele>
        <time>2011-03-20T09:22:53Z</time>
      </trkpt>
      <trkpt lat="47.14594" lon="-1.69932">
        <ele>15</ele>
        <time>2011-03-20T09:22:54Z</time>
      </trkpt>
      <trkpt lat="47.14593" lon="-1.6993">
        <ele>16</ele>
        <time>2011-03-20T09:25:14Z</time>
      </trkpt>
      <trkpt lat="47.14601" lon="-1.69921">
        <ele>16</ele>
        <time>2011-03-20T09:25:19Z</time>
      </trkpt>
      <trkpt lat="47.14604" lon="-1.69919">
        <ele>15</ele>
        <time>2011-03-20T09:25:21Z</time>
      </trkpt>
      <trkpt lat="47.14611" lon="-1.69913">
        <ele>16</ele>
        <time>2011-03-20T09:25:24Z</time>
      </trkpt>
      <trkpt lat="47.1462" lon="-1.69921">
        <ele>15</ele>
        <time>2011-03-20T09:25:28Z</time>
      </trkpt>
      <trkpt lat="47.14626" lon="-1.69939">
        <ele>14</ele>
        <time>2011-03-20T09:25:33Z</time>
      </trkpt>
      <trkpt lat="47.14636" lon="-1.69944">
        <ele>14</ele>
        <time>2011-03-20T09:25:37Z</time>
      </trkpt>
      <trkpt lat="47.14651" lon="-1.69938">
        <ele>14</ele>
        <time>2011-03-20T09:25:41Z</time>
      </trkpt>
      <trkpt lat="47.14665" lon="-1.69919">
        <ele>13</ele>
        <time>2011-03-20T09:25:45Z</time>
      </trkpt>
      <trkpt lat="47.14676" lon="-1.69898">
        <ele>13</ele>
        <time>2011-03-20T09:25:49Z</time>
      </trkpt>
      <trkpt lat="47.14683" lon="-1.69869">
        <ele>14</ele>
        <time>2011-03-20T09:25:54Z</time>
      </trkpt>
      <trkpt lat="47.14686" lon="-1.69841">
        <ele>14</ele>
        <time>2011-03-20T09:25:58Z</time>
      </trkpt>
      <trkpt lat="47.14693" lon="-1.69803">
        <ele>16</ele>
        <time>2011-03-20T09:26:04Z</time>
      </trkpt>
      <trkpt lat="47.14713" lon="-1.69764">
        <ele>16</ele>
        <time>2011-03-20T09:26:11Z</time>
      </trkpt>
      <trkpt lat="47.14724" lon="-1.69739">
        <ele>17</ele>
        <time>2011-03-20T09:26:15Z</time>
      </trkpt>
      <trkpt lat="47.14739" lon="-1.69709">
        <ele>18</ele>
        <time>2011-03-20T09:26:21Z</time>
      </trkpt>
      <trkpt lat="47.14764" lon="-1.6971">
        <ele>15</ele>
        <time>2011-03-20T09:26:25Z</time>
      </trkpt>
      <trkpt lat="47.14771" lon="-1.6971">
        <ele>15</ele>
        <time>2011-03-20T09:26:26Z</time>
      </trkpt>
      <trkpt lat="47.14807" lon="-1.69712">
        <ele>14</ele>
        <time>2011-03-20T09:26:31Z</time>
      </trkpt>
      <trkpt lat="47.14821" lon="-1.69711">
        <ele>14</ele>
        <time>2011-03-20T09:26:33Z</time>
      </trkpt>
      <trkpt lat="47.14858" lon="-1.69718">
        <ele>13</ele>
        <time>2011-03-20T09:26:39Z</time>
      </trkpt>
      <trkpt lat="47.14887" lon="-1.69716">
        <ele>14</ele>
        <time>2011-03-20T09:26:44Z</time>
      </trkpt>
      <trkpt lat="47.14903" lon="-1.69718">
        <ele>14</ele>
        <time>2011-03-20T09:26:47Z</time>
      </trkpt>
      <trkpt lat="47.14922" lon="-1.6973">
        <ele>16</ele>
        <time>2011-03-20T09:26:51Z</time>
      </trkpt>
      <trkpt lat="47.1493" lon="-1.69739">
        <ele>16</ele>
        <time>2011-03-20T09:26:53Z</time>
      </trkpt>
      <trkpt lat="47.14947" lon="-1.69748">
        <ele>16</ele>
        <time>2011-03-20T09:26:57Z</time>
      </trkpt>
      <trkpt lat="47.14964" lon="-1.69753">
        <ele>17</ele>
        <time>2011-03-20T09:27:02Z</time>
      </trkpt>
      <trkpt lat="47.14979" lon="-1.6976">
        <ele>17</ele>
        <time>2011-03-20T09:27:06Z</time>
      </trkpt>
      <trkpt lat="47.1499" lon="-1.69757">
        <ele>18</ele>
        <time>2011-03-20T09:27:10Z</time>
      </trkpt>
      <trkpt lat="47.14995" lon="-1.6975">
        <ele>19</ele>
        <time>2011-03-20T09:27:13Z</time>
      </trkpt>
      <trkpt lat="47.14995" lon="-1.69732">
        <ele>18</ele>
        <time>2011-03-20T09:27:18Z</time>
      </trkpt>
      <trkpt lat="47.15" lon="-1.69714">
        <ele>17</ele>
        <time>2011-03-20T09:27:22Z</time>
      </trkpt>
      <trkpt lat="47.15028" lon="-1.69674">
        <ele>19</ele>
        <time>2011-03-20T09:27:31Z</time>
      </trkpt>
      <trkpt lat="47.15059" lon="-1.69636">
        <ele>20</ele>
        <time>2011-03-20T09:27:41Z</time>
      </trkpt>
      <trkpt lat="47.15084" lon="-1.69607">
        <ele>22</ele>
        <time>2011-03-20T09:27:49Z</time>
      </trkpt>
      <trkpt lat="47.15108" lon="-1.6958">
        <ele>23</ele>
        <time>2011-03-20T09:27:57Z</time>
      </trkpt>
      <trkpt lat="47.15134" lon="-1.6955">
        <ele>24</ele>
        <time>2011-03-20T09:28:05Z</time>
      </trkpt>
      <trkpt lat="47.1516" lon="-1.69524">
        <ele>25</ele>
        <time>2011-03-20T09:28:13Z</time>
      </trkpt>
      <trkpt lat="47.15174" lon="-1.69511">
        <ele>25</ele>
        <time>2011-03-20T09:28:17Z</time>
      </trkpt>
      <trkpt lat="47.15192" lon="-1.69493">
        <ele>25</ele>
        <time>2011-03-20T09:28:23Z</time>
      </trkpt>
      <trkpt lat="47.15201" lon="-1.69485">
        <ele>25</ele>
        <time>2011-03-20T09:28:26Z</time>
      </trkpt>
      <trkpt lat="47.15219" lon="-1.69467">
        <ele>25</ele>
        <time>2011-03-20T09:28:31Z</time>
      </trkpt>
      <trkpt lat="47.15235" lon="-1.6945">
        <ele>25</ele>
        <time>2011-03-20T09:28:36Z</time>
      </trkpt>
      <trkpt lat="47.15259" lon="-1.69423">
        <ele>24</ele>
        <time>2011-03-20T09:28:43Z</time>
      </trkpt>
      <trkpt lat="47.15286" lon="-1.69394">
        <ele>24</ele>
        <time>2011-03-20T09:28:50Z</time>
      </trkpt>
      <trkpt lat="47.15295" lon="-1.69386">
        <ele>24</ele>
        <time>2011-03-20T09:28:52Z</time>
      </trkpt>
      <trkpt lat="47.15327" lon="-1.69349">
        <ele>25</ele>
        <time>2011-03-20T09:29:00Z</time>
      </trkpt>
      <trkpt lat="47.15358" lon="-1.69316">
        <ele>25</ele>
        <time>2011-03-20T09:29:07Z</time>
      </trkpt>
      <trkpt lat="47.15414" lon="-1.69252">
        <ele>25</ele>
        <time>2011-03-20T09:29:19Z</time>
      </trkpt>
      <trkpt lat="47.15456" lon="-1.69201">
        <ele>25</ele>
        <time>2011-03-20T09:29:28Z</time>
      </trkpt>
      <trkpt lat="47.15461" lon="-1.69195">
        <ele>25</ele>
        <time>2011-03-20T09:29:29Z</time>
      </trkpt>
      <trkpt lat="47.15485" lon="-1.69167">
        <ele>25</ele>
        <time>2011-03-20T09:29:34Z</time>
      </trkpt>
      <trkpt lat="47.15538" lon="-1.69104">
        <ele>24</ele>
        <time>2011-03-20T09:29:45Z</time>
      </trkpt>
      <trkpt lat="47.15579" lon="-1.69053">
        <ele>25</ele>
        <time>2011-03-20T09:29:54Z</time>
      </trkpt>
      <trkpt lat="47.15587" lon="-1.69039">
        <ele>25</ele>
        <time>2011-03-20T09:29:56Z</time>
      </trkpt>
      <trkpt lat="47.15593" lon="-1.68999">
        <ele>25</ele>
        <time>2011-03-20T09:30:01Z</time>
      </trkpt>
      <trkpt lat="47.15583" lon="-1.68978">
        <ele>25</ele>
        <time>2011-03-20T09:30:04Z</time>
      </trkpt>
      <trkpt lat="47.15544" lon="-1.68937">
        <ele>24</ele>
        <time>2011-03-20T09:30:12Z</time>
      </trkpt>
      <trkpt lat="47.15511" lon="-1.689">
        <ele>25</ele>
        <time>2011-03-20T09:30:19Z</time>
      </trkpt>
      <trkpt lat="47.15468" lon="-1.68839">
        <ele>27</ele>
        <time>2011-03-20T09:30:29Z</time>
      </trkpt>
      <trkpt lat="47.15437" lon="-1.68811">
        <ele>27</ele>
        <time>2011-03-20T09:30:35Z</time>
      </trkpt>
      <trkpt lat="47.15382" lon="-1.68776">
        <ele>27</ele>
        <time>2011-03-20T09:30:45Z</time>
      </trkpt>
      <trkpt lat="47.15326" lon="-1.68743">
        <ele>27</ele>
        <time>2011-03-20T09:30:55Z</time>
      </trkpt>
      <trkpt lat="47.15287" lon="-1.68726">
        <ele>27</ele>
        <time>2011-03-20T09:31:02Z</time>
      </trkpt>
      <trkpt lat="47.15268" lon="-1.68708">
        <ele>27</ele>
        <time>2011-03-20T09:31:06Z</time>
      </trkpt>
      <trkpt lat="47.1526" lon="-1.687">
        <ele>27</ele>
        <time>2011-03-20T09:31:08Z</time>
      </trkpt>
      <trkpt lat="47.15259" lon="-1.68682">
        <ele>28</ele>
        <time>2011-03-20T09:31:11Z</time>
      </trkpt>
      <trkpt lat="47.15262" lon="-1.68677">
        <ele>28</ele>
        <time>2011-03-20T09:31:12Z</time>
      </trkpt>
      <trkpt lat="47.15268" lon="-1.68647">
        <ele>28</ele>
        <time>2011-03-20T09:31:16Z</time>
      </trkpt>
      <trkpt lat="47.15273" lon="-1.6859">
        <ele>27</ele>
        <time>2011-03-20T09:31:23Z</time>
      </trkpt>
      <trkpt lat="47.15278" lon="-1.68548">
        <ele>27</ele>
        <time>2011-03-20T09:31:28Z</time>
      </trkpt>
      <trkpt lat="47.15278" lon="-1.68514">
        <ele>27</ele>
        <time>2011-03-20T09:31:32Z</time>
      </trkpt>
      <trkpt lat="47.15279" lon="-1.68506">
        <ele>27</ele>
        <time>2011-03-20T09:31:33Z</time>
      </trkpt>
      <trkpt lat="47.15292" lon="-1.6844">
        <ele>27</ele>
        <time>2011-03-20T09:31:41Z</time>
      </trkpt>
      <trkpt lat="47.15317" lon="-1.68353">
        <ele>26</ele>
        <time>2011-03-20T09:31:52Z</time>
      </trkpt>
      <trkpt lat="47.15346" lon="-1.68263">
        <ele>28</ele>
        <time>2011-03-20T09:32:04Z</time>
      </trkpt>
      <trkpt lat="47.15368" lon="-1.68193">
        <ele>28</ele>
        <time>2011-03-20T09:32:13Z</time>
      </trkpt>
      <trkpt lat="47.15399" lon="-1.68111">
        <ele>29</ele>
        <time>2011-03-20T09:32:23Z</time>
      </trkpt>
      <trkpt lat="47.15408" lon="-1.68088">
        <ele>28</ele>
        <time>2011-03-20T09:32:26Z</time>
      </trkpt>
      <trkpt lat="47.15428" lon="-1.68073">
        <ele>28</ele>
        <time>2011-03-20T09:32:30Z</time>
      </trkpt>
      <trkpt lat="47.15443" lon="-1.68075">
        <ele>28</ele>
        <time>2011-03-20T09:32:33Z</time>
      </trkpt>
      <trkpt lat="47.15443" lon="-1.68065">
        <ele>28</ele>
        <time>2011-03-20T09:32:35Z</time>
      </trkpt>
      <trkpt lat="47.15434" lon="-1.6805">
        <ele>28</ele>
        <time>2011-03-20T09:32:38Z</time>
      </trkpt>
      <trkpt lat="47.15434" lon="-1.68027">
        <ele>28</ele>
        <time>2011-03-20T09:32:41Z</time>
      </trkpt>
      <trkpt lat="47.15436" lon="-1.68012">
        <ele>27</ele>
        <time>2011-03-20T09:32:44Z</time>
      </trkpt>
      <trkpt lat="47.15426" lon="-1.68003">
        <ele>27</ele>
        <time>2011-03-20T09:32:48Z</time>
      </trkpt>
      <trkpt lat="47.15418" lon="-1.68">
        <ele>27</ele>
        <time>2011-03-20T09:32:50Z</time>
      </trkpt>
      <trkpt lat="47.1541" lon="-1.67987">
        <ele>28</ele>
        <time>2011-03-20T09:32:53Z</time>
      </trkpt>
      <trkpt lat="47.15411" lon="-1.67981">
        <ele>28</ele>
        <time>2011-03-20T09:32:54Z</time>
      </trkpt>
      <trkpt lat="47.15428" lon="-1.67909">
        <ele>29</ele>
        <time>2011-03-20T09:33:04Z</time>
      </trkpt>
      <trkpt lat="47.15446" lon="-1.67839">
        <ele>30</ele>
        <time>2011-03-20T09:33:13Z</time>
      </trkpt>
      <trkpt lat="47.15457" lon="-1.67791">
        <ele>31</ele>
        <time>2011-03-20T09:33:19Z</time>
      </trkpt>
      <trkpt lat="47.15458" lon="-1.67783">
        <ele>31</ele>
        <time>2011-03-20T09:33:20Z</time>
      </trkpt>
      <trkpt lat="47.15469" lon="-1.67691">
        <ele>32</ele>
        <time>2011-03-20T09:33:30Z</time>
      </trkpt>
      <trkpt lat="47.15479" lon="-1.67606">
        <ele>33</ele>
        <time>2011-03-20T09:33:39Z</time>
      </trkpt>
      <trkpt lat="47.15493" lon="-1.67534">
        <ele>34</ele>
        <time>2011-03-20T09:33:47Z</time>
      </trkpt>
      <trkpt lat="47.15508" lon="-1.67453">
        <ele>31</ele>
        <time>2011-03-20T09:33:56Z</time>
      </trkpt>
      <trkpt lat="47.15523" lon="-1.67371">
        <ele>30</ele>
        <time>2011-03-20T09:34:05Z</time>
      </trkpt>
      <trkpt lat="47.15542" lon="-1.67288">
        <ele>30</ele>
        <time>2011-03-20T09:34:14Z</time>
      </trkpt>
      <trkpt lat="47.15551" lon="-1.67233">
        <ele>30</ele>
        <time>2011-03-20T09:34:20Z</time>
      </trkpt>
      <trkpt lat="47.15559" lon="-1.67207">
        <ele>29</ele>
        <time>2011-03-20T09:34:24Z</time>
      </trkpt>
      <trkpt lat="47.15574" lon="-1.67203">
        <ele>29</ele>
        <time>2011-03-20T09:34:27Z</time>
      </trkpt>
      <trkpt lat="47.15627" lon="-1.67192">
        <ele>29</ele>
        <time>2011-03-20T09:34:36Z</time>
      </trkpt>
      <trkpt lat="47.15689" lon="-1.67178">
        <ele>29</ele>
        <time>2011-03-20T09:34:47Z</time>
      </trkpt>
      <trkpt lat="47.15723" lon="-1.6717">
        <ele>29</ele>
        <time>2011-03-20T09:34:54Z</time>
      </trkpt>
      <trkpt lat="47.15728" lon="-1.67169">
        <ele>29</ele>
        <time>2011-03-20T09:34:55Z</time>
      </trkpt>
      <trkpt lat="47.15739" lon="-1.67154">
        <ele>29</ele>
        <time>2011-03-20T09:34:59Z</time>
      </trkpt>
      <trkpt lat="47.15739" lon="-1.67147">
        <ele>29</ele>
        <time>2011-03-20T09:35:00Z</time>
      </trkpt>
      <trkpt lat="47.15738" lon="-1.67083">
        <ele>29</ele>
        <time>2011-03-20T09:35:09Z</time>
      </trkpt>
      <trkpt lat="47.15739" lon="-1.67061">
        <ele>29</ele>
        <time>2011-03-20T09:35:12Z</time>
      </trkpt>
      <trkpt lat="47.15738" lon="-1.67015">
        <ele>29</ele>
        <time>2011-03-20T09:35:19Z</time>
      </trkpt>
      <trkpt lat="47.15737" lon="-1.6701">
        <ele>29</ele>
        <time>2011-03-20T09:35:20Z</time>
      </trkpt>
      <trkpt lat="47.15731" lon="-1.66997">
        <ele>29</ele>
        <time>2011-03-20T09:35:24Z</time>
      </trkpt>
      <trkpt lat="47.15728" lon="-1.66974">
        <ele>29</ele>
        <time>2011-03-20T09:35:29Z</time>
      </trkpt>
      <trkpt lat="47.15728" lon="-1.66929">
        <ele>29</ele>
        <time>2011-03-20T09:35:35Z</time>
      </trkpt>
      <trkpt lat="47.15729" lon="-1.66865">
        <ele>29</ele>
        <time>2011-03-20T09:35:43Z</time>
      </trkpt>
      <trkpt lat="47.15731" lon="-1.66792">
        <ele>29</ele>
        <time>2011-03-20T09:35:52Z</time>
      </trkpt>
      <trkpt lat="47.15731" lon="-1.66737">
        <ele>28</ele>
        <time>2011-03-20T09:35:59Z</time>
      </trkpt>
      <trkpt lat="47.15738" lon="-1.6672">
        <ele>28</ele>
        <time>2011-03-20T09:36:02Z</time>
      </trkpt>
      <trkpt lat="47.15748" lon="-1.66705">
        <ele>28</ele>
        <time>2011-03-20T09:36:05Z</time>
      </trkpt>
      <trkpt lat="47.15749" lon="-1.66691">
        <ele>28</ele>
        <time>2011-03-20T09:36:07Z</time>
      </trkpt>
      <trkpt lat="47.15747" lon="-1.66622">
        <ele>29</ele>
        <time>2011-03-20T09:36:16Z</time>
      </trkpt>
      <trkpt lat="47.15748" lon="-1.66569">
        <ele>30</ele>
        <time>2011-03-20T09:36:23Z</time>
      </trkpt>
      <trkpt lat="47.1575" lon="-1.66547">
        <ele>31</ele>
        <time>2011-03-20T09:36:26Z</time>
      </trkpt>
      <trkpt lat="47.15763" lon="-1.66531">
        <ele>31</ele>
        <time>2011-03-20T09:36:30Z</time>
      </trkpt>
      <trkpt lat="47.15809" lon="-1.66525">
        <ele>31</ele>
        <time>2011-03-20T09:36:39Z</time>
      </trkpt>
      <trkpt lat="47.15854" lon="-1.66515">
        <ele>31</ele>
        <time>2011-03-20T09:36:47Z</time>
      </trkpt>
      <trkpt lat="47.15907" lon="-1.665">
        <ele>32</ele>
        <time>2011-03-20T09:36:56Z</time>
      </trkpt>
      <trkpt lat="47.15948" lon="-1.66493">
        <ele>31</ele>
        <time>2011-03-20T09:37:03Z</time>
      </trkpt>
      <trkpt lat="47.16002" lon="-1.665">
        <ele>30</ele>
        <time>2011-03-20T09:37:12Z</time>
      </trkpt>
      <trkpt lat="47.16054" lon="-1.66509">
        <ele>30</ele>
        <time>2011-03-20T09:37:21Z</time>
      </trkpt>
      <trkpt lat="47.16072" lon="-1.66494">
        <ele>30</ele>
        <time>2011-03-20T09:37:25Z</time>
      </trkpt>
      <trkpt lat="47.16073" lon="-1.66468">
        <ele>30</ele>
        <time>2011-03-20T09:37:28Z</time>
      </trkpt>
      <trkpt lat="47.16064" lon="-1.66376">
        <ele>30</ele>
        <time>2011-03-20T09:37:38Z</time>
      </trkpt>
      <trkpt lat="47.16057" lon="-1.66283">
        <ele>30</ele>
        <time>2011-03-20T09:37:48Z</time>
      </trkpt>
      <trkpt lat="47.16046" lon="-1.66195">
        <ele>30</ele>
        <time>2011-03-20T09:37:58Z</time>
      </trkpt>
      <trkpt lat="47.16034" lon="-1.6611">
        <ele>29</ele>
        <time>2011-03-20T09:38:08Z</time>
      </trkpt>
      <trkpt lat="47.16023" lon="-1.66034">
        <ele>28</ele>
        <time>2011-03-20T09:38:17Z</time>
      </trkpt>
      <trkpt lat="47.16012" lon="-1.65958">
        <ele>28</ele>
        <time>2011-03-20T09:38:26Z</time>
      </trkpt>
      <trkpt lat="47.16007" lon="-1.65882">
        <ele>28</ele>
        <time>2011-03-20T09:38:35Z</time>
      </trkpt>
      <trkpt lat="47.16007" lon="-1.65874">
        <ele>28</ele>
        <time>2011-03-20T09:38:36Z</time>
      </trkpt>
      <trkpt lat="47.16007" lon="-1.65849">
        <ele>28</ele>
        <time>2011-03-20T09:38:39Z</time>
      </trkpt>
      <trkpt lat="47.16017" lon="-1.65824">
        <ele>28</ele>
        <time>2011-03-20T09:38:43Z</time>
      </trkpt>
      <trkpt lat="47.16039" lon="-1.65822">
        <ele>28</ele>
        <time>2011-03-20T09:38:47Z</time>
      </trkpt>
      <trkpt lat="47.16045" lon="-1.65821">
        <ele>28</ele>
        <time>2011-03-20T09:38:48Z</time>
      </trkpt>
      <trkpt lat="47.16102" lon="-1.65809">
        <ele>28</ele>
        <time>2011-03-20T09:38:58Z</time>
      </trkpt>
      <trkpt lat="47.16144" lon="-1.65793">
        <ele>29</ele>
        <time>2011-03-20T09:39:05Z</time>
      </trkpt>
      <trkpt lat="47.1619" lon="-1.65774">
        <ele>29</ele>
        <time>2011-03-20T09:39:13Z</time>
      </trkpt>
      <trkpt lat="47.16234" lon="-1.65753">
        <ele>30</ele>
        <time>2011-03-20T09:39:21Z</time>
      </trkpt>
      <trkpt lat="47.16281" lon="-1.65728">
        <ele>29</ele>
        <time>2011-03-20T09:39:30Z</time>
      </trkpt>
      <trkpt lat="47.16325" lon="-1.65705">
        <ele>29</ele>
        <time>2011-03-20T09:39:38Z</time>
      </trkpt>
      <trkpt lat="47.16362" lon="-1.65693">
        <ele>29</ele>
        <time>2011-03-20T09:39:44Z</time>
      </trkpt>
      <trkpt lat="47.1638" lon="-1.65689">
        <ele>29</ele>
        <time>2011-03-20T09:39:47Z</time>
      </trkpt>
      <trkpt lat="47.1641" lon="-1.65671">
        <ele>30</ele>
        <time>2011-03-20T09:39:53Z</time>
      </trkpt>
      <trkpt lat="47.16446" lon="-1.65643">
        <ele>29</ele>
        <time>2011-03-20T09:40:00Z</time>
      </trkpt>
      <trkpt lat="47.16451" lon="-1.65639">
        <ele>29</ele>
        <time>2011-03-20T09:40:01Z</time>
      </trkpt>
      <trkpt lat="47.16456" lon="-1.65621">
        <ele>29</ele>
        <time>2011-03-20T09:40:05Z</time>
      </trkpt>
      <trkpt lat="47.16447" lon="-1.65614">
        <ele>29</ele>
        <time>2011-03-20T09:40:07Z</time>
      </trkpt>
      <trkpt lat="47.16422" lon="-1.65595">
        <ele>28</ele>
        <time>2011-03-20T09:40:11Z</time>
      </trkpt>
      <trkpt lat="47.16416" lon="-1.6559">
        <ele>28</ele>
        <time>2011-03-20T09:40:12Z</time>
      </trkpt>
      <trkpt lat="47.164" lon="-1.65562">
        <ele>28</ele>
        <time>2011-03-20T09:40:16Z</time>
      </trkpt>
      <trkpt lat="47.16393" lon="-1.65546">
        <ele>28</ele>
        <time>2011-03-20T09:40:18Z</time>
      </trkpt>
      <trkpt lat="47.16386" lon="-1.6553">
        <ele>28</ele>
        <time>2011-03-20T09:40:20Z</time>
      </trkpt>
      <trkpt lat="47.16372" lon="-1.65498">
        <ele>28</ele>
        <time>2011-03-20T09:40:24Z</time>
      </trkpt>
      <trkpt lat="47.16365" lon="-1.65484">
        <ele>28</ele>
        <time>2011-03-20T09:40:26Z</time>
      </trkpt>
      <trkpt lat="47.16341" lon="-1.65445">
        <ele>28</ele>
        <time>2011-03-20T09:40:32Z</time>
      </trkpt>
      <trkpt lat="47.16318" lon="-1.65397">
        <ele>29</ele>
        <time>2011-03-20T09:40:39Z</time>
      </trkpt>
      <trkpt lat="47.16305" lon="-1.6538">
        <ele>29</ele>
        <time>2011-03-20T09:40:42Z</time>
      </trkpt>
      <trkpt lat="47.16292" lon="-1.65343">
        <ele>30</ele>
        <time>2011-03-20T09:40:47Z</time>
      </trkpt>
      <trkpt lat="47.16292" lon="-1.65335">
        <ele>30</ele>
        <time>2011-03-20T09:40:48Z</time>
      </trkpt>
      <trkpt lat="47.1629" lon="-1.65264">
        <ele>29</ele>
        <time>2011-03-20T09:40:56Z</time>
      </trkpt>
      <trkpt lat="47.16291" lon="-1.65192">
        <ele>27</ele>
        <time>2011-03-20T09:41:04Z</time>
      </trkpt>
      <trkpt lat="47.16289" lon="-1.65117">
        <ele>27</ele>
        <time>2011-03-20T09:41:12Z</time>
      </trkpt>
      <trkpt lat="47.16286" lon="-1.65037">
        <ele>26</ele>
        <time>2011-03-20T09:41:21Z</time>
      </trkpt>
      <trkpt lat="47.16285" lon="-1.65011">
        <ele>26</ele>
        <time>2011-03-20T09:41:24Z</time>
      </trkpt>
      <trkpt lat="47.16274" lon="-1.64986">
        <ele>26</ele>
        <time>2011-03-20T09:41:28Z</time>
      </trkpt>
      <trkpt lat="47.16261" lon="-1.64988">
        <ele>26</ele>
        <time>2011-03-20T09:41:30Z</time>
      </trkpt>
      <trkpt lat="47.16196" lon="-1.65013">
        <ele>26</ele>
        <time>2011-03-20T09:41:40Z</time>
      </trkpt>
      <trkpt lat="47.16154" lon="-1.65025">
        <ele>25</ele>
        <time>2011-03-20T09:41:46Z</time>
      </trkpt>
      <trkpt lat="47.16129" lon="-1.65018">
        <ele>25</ele>
        <time>2011-03-20T09:41:50Z</time>
      </trkpt>
      <trkpt lat="47.16113" lon="-1.65003">
        <ele>25</ele>
        <time>2011-03-20T09:41:53Z</time>
      </trkpt>
      <trkpt lat="47.16092" lon="-1.64988">
        <ele>25</ele>
        <time>2011-03-20T09:41:58Z</time>
      </trkpt>
      <trkpt lat="47.16087" lon="-1.64985">
        <ele>25</ele>
        <time>2011-03-20T09:41:59Z</time>
      </trkpt>
      <trkpt lat="47.16048" lon="-1.64962">
        <ele>24</ele>
        <time>2011-03-20T09:42:05Z</time>
      </trkpt>
      <trkpt lat="47.16025" lon="-1.64925">
        <ele>24</ele>
        <time>2011-03-20T09:42:10Z</time>
      </trkpt>
      <trkpt lat="47.16022" lon="-1.64905">
        <ele>23</ele>
        <time>2011-03-20T09:42:12Z</time>
      </trkpt>
      <trkpt lat="47.16021" lon="-1.64884">
        <ele>24</ele>
        <time>2011-03-20T09:42:14Z</time>
      </trkpt>
      <trkpt lat="47.1602" lon="-1.64833">
        <ele>24</ele>
        <time>2011-03-20T09:42:19Z</time>
      </trkpt>
      <trkpt lat="47.1603" lon="-1.64784">
        <ele>24</ele>
        <time>2011-03-20T09:42:24Z</time>
      </trkpt>
      <trkpt lat="47.16032" lon="-1.64763">
        <ele>24</ele>
        <time>2011-03-20T09:42:26Z</time>
      </trkpt>
      <trkpt lat="47.16026" lon="-1.64712">
        <ele>24</ele>
        <time>2011-03-20T09:42:31Z</time>
      </trkpt>
      <trkpt lat="47.16" lon="-1.64627">
        <ele>22</ele>
        <time>2011-03-20T09:42:40Z</time>
      </trkpt>
      <trkpt lat="47.15977" lon="-1.64555">
        <ele>22</ele>
        <time>2011-03-20T09:42:48Z</time>
      </trkpt>
      <trkpt lat="47.15968" lon="-1.645">
        <ele>21</ele>
        <time>2011-03-20T09:42:54Z</time>
      </trkpt>
      <trkpt lat="47.15958" lon="-1.64456">
        <ele>22</ele>
        <time>2011-03-20T09:42:59Z</time>
      </trkpt>
      <trkpt lat="47.15959" lon="-1.64423">
        <ele>22</ele>
        <time>2011-03-20T09:43:03Z</time>
      </trkpt>
      <trkpt lat="47.15963" lon="-1.64416">
        <ele>22</ele>
        <time>2011-03-20T09:43:04Z</time>
      </trkpt>
      <trkpt lat="47.16003" lon="-1.64377">
        <ele>22</ele>
        <time>2011-03-20T09:43:11Z</time>
      </trkpt>
      <trkpt lat="47.16043" lon="-1.64328">
        <ele>21</ele>
        <time>2011-03-20T09:43:19Z</time>
      </trkpt>
      <trkpt lat="47.1607" lon="-1.64309">
        <ele>21</ele>
        <time>2011-03-20T09:43:24Z</time>
      </trkpt>
      <trkpt lat="47.16093" lon="-1.64288">
        <ele>22</ele>
        <time>2011-03-20T09:43:29Z</time>
      </trkpt>
      <trkpt lat="47.16106" lon="-1.64271">
        <ele>23</ele>
        <time>2011-03-20T09:43:33Z</time>
      </trkpt>
      <trkpt lat="47.16116" lon="-1.64258">
        <ele>23</ele>
        <time>2011-03-20T09:43:36Z</time>
      </trkpt>
      <trkpt lat="47.16136" lon="-1.64197">
        <ele>24</ele>
        <time>2011-03-20T09:43:45Z</time>
      </trkpt>
      <trkpt lat="47.16147" lon="-1.64152">
        <ele>24</ele>
        <time>2011-03-20T09:43:52Z</time>
      </trkpt>
      <trkpt lat="47.1615" lon="-1.64139">
        <ele>24</ele>
        <time>2011-03-20T09:43:54Z</time>
      </trkpt>
      <trkpt lat="47.16156" lon="-1.6412">
        <ele>24</ele>
        <time>2011-03-20T09:43:57Z</time>
      </trkpt>
      <trkpt lat="47.16165" lon="-1.64105">
        <ele>25</ele>
        <time>2011-03-20T09:44:00Z</time>
      </trkpt>
      <trkpt lat="47.16175" lon="-1.64093">
        <ele>26</ele>
        <time>2011-03-20T09:44:03Z</time>
      </trkpt>
      <trkpt lat="47.16191" lon="-1.64071">
        <ele>26</ele>
        <time>2011-03-20T09:44:08Z</time>
      </trkpt>
      <trkpt lat="47.16206" lon="-1.64058">
        <ele>26</ele>
        <time>2011-03-20T09:44:12Z</time>
      </trkpt>
      <trkpt lat="47.16221" lon="-1.64042">
        <ele>26</ele>
        <time>2011-03-20T09:44:16Z</time>
      </trkpt>
      <trkpt lat="47.1626" lon="-1.64011">
        <ele>28</ele>
        <time>2011-03-20T09:44:26Z</time>
      </trkpt>
      <trkpt lat="47.16264" lon="-1.64007">
        <ele>28</ele>
        <time>2011-03-20T09:44:27Z</time>
      </trkpt>
      <trkpt lat="47.1629" lon="-1.6399">
        <ele>29</ele>
        <time>2011-03-20T09:44:33Z</time>
      </trkpt>
      <trkpt lat="47.16313" lon="-1.63974">
        <ele>29</ele>
        <time>2011-03-20T09:44:38Z</time>
      </trkpt>
      <trkpt lat="47.16341" lon="-1.63954">
        <ele>30</ele>
        <time>2011-03-20T09:44:44Z</time>
      </trkpt>
      <trkpt lat="47.1638" lon="-1.63925">
        <ele>30</ele>
        <time>2011-03-20T09:44:52Z</time>
      </trkpt>
      <trkpt lat="47.16405" lon="-1.63907">
        <ele>30</ele>
        <time>2011-03-20T09:44:57Z</time>
      </trkpt>
      <trkpt lat="47.16451" lon="-1.63877">
        <ele>29</ele>
        <time>2011-03-20T09:45:06Z</time>
      </trkpt>
      <trkpt lat="47.16484" lon="-1.63856">
        <ele>28</ele>
        <time>2011-03-20T09:45:13Z</time>
      </trkpt>
      <trkpt lat="47.16491" lon="-1.63839">
        <ele>28</ele>
        <time>2011-03-20T09:45:16Z</time>
      </trkpt>
      <trkpt lat="47.16483" lon="-1.63808">
        <ele>28</ele>
        <time>2011-03-20T09:45:20Z</time>
      </trkpt>
      <trkpt lat="47.16477" lon="-1.63783">
        <ele>28</ele>
        <time>2011-03-20T09:45:23Z</time>
      </trkpt>
      <trkpt lat="47.16464" lon="-1.63742">
        <ele>29</ele>
        <time>2011-03-20T09:45:28Z</time>
      </trkpt>
      <trkpt lat="47.16455" lon="-1.63706">
        <ele>29</ele>
        <time>2011-03-20T09:45:32Z</time>
      </trkpt>
      <trkpt lat="47.16442" lon="-1.63672">
        <ele>29</ele>
        <time>2011-03-20T09:45:36Z</time>
      </trkpt>
      <trkpt lat="47.16419" lon="-1.63621">
        <ele>28</ele>
        <time>2011-03-20T09:45:42Z</time>
      </trkpt>
      <trkpt lat="47.16407" lon="-1.63586">
        <ele>27</ele>
        <time>2011-03-20T09:45:46Z</time>
      </trkpt>
      <trkpt lat="47.16387" lon="-1.63564">
        <ele>28</ele>
        <time>2011-03-20T09:45:50Z</time>
      </trkpt>
      <trkpt lat="47.1638" lon="-1.63563">
        <ele>28</ele>
        <time>2011-03-20T09:45:51Z</time>
      </trkpt>
      <trkpt lat="47.16361" lon="-1.63565">
        <ele>28</ele>
        <time>2011-03-20T09:45:54Z</time>
      </trkpt>
      <trkpt lat="47.16337" lon="-1.63554">
        <ele>28</ele>
        <time>2011-03-20T09:45:58Z</time>
      </trkpt>
      <trkpt lat="47.16328" lon="-1.63541">
        <ele>28</ele>
        <time>2011-03-20T09:46:00Z</time>
      </trkpt>
      <trkpt lat="47.163" lon="-1.63502">
        <ele>28</ele>
        <time>2011-03-20T09:46:06Z</time>
      </trkpt>
      <trkpt lat="47.16285" lon="-1.63485">
        <ele>27</ele>
        <time>2011-03-20T09:46:09Z</time>
      </trkpt>
      <trkpt lat="47.16254" lon="-1.63437">
        <ele>27</ele>
        <time>2011-03-20T09:46:16Z</time>
      </trkpt>
      <trkpt lat="47.16236" lon="-1.63396">
        <ele>26</ele>
        <time>2011-03-20T09:46:21Z</time>
      </trkpt>
      <trkpt lat="47.16214" lon="-1.63319">
        <ele>26</ele>
        <time>2011-03-20T09:46:29Z</time>
      </trkpt>
      <trkpt lat="47.162" lon="-1.63257">
        <ele>26</ele>
        <time>2011-03-20T09:46:35Z</time>
      </trkpt>
      <trkpt lat="47.16184" lon="-1.63196">
        <ele>25</ele>
        <time>2011-03-20T09:46:41Z</time>
      </trkpt>
      <trkpt lat="47.16169" lon="-1.63148">
        <ele>25</ele>
        <time>2011-03-20T09:46:46Z</time>
      </trkpt>
      <trkpt lat="47.16149" lon="-1.63092">
        <ele>23</ele>
        <time>2011-03-20T09:46:52Z</time>
      </trkpt>
      <trkpt lat="47.16145" lon="-1.6305">
        <ele>22</ele>
        <time>2011-03-20T09:46:57Z</time>
      </trkpt>
      <trkpt lat="47.16149" lon="-1.63042">
        <ele>22</ele>
        <time>2011-03-20T09:46:58Z</time>
      </trkpt>
      <trkpt lat="47.1618" lon="-1.62974">
        <ele>23</ele>
        <time>2011-03-20T09:47:06Z</time>
      </trkpt>
      <trkpt lat="47.16194" lon="-1.62944">
        <ele>24</ele>
        <time>2011-03-20T09:47:10Z</time>
      </trkpt>
      <trkpt lat="47.16215" lon="-1.62897">
        <ele>25</ele>
        <time>2011-03-20T09:47:16Z</time>
      </trkpt>
      <trkpt lat="47.16245" lon="-1.6285">
        <ele>25</ele>
        <time>2011-03-20T09:47:23Z</time>
      </trkpt>
      <trkpt lat="47.16259" lon="-1.62836">
        <ele>26</ele>
        <time>2011-03-20T09:47:26Z</time>
      </trkpt>
      <trkpt lat="47.16274" lon="-1.62824">
        <ele>25</ele>
        <time>2011-03-20T09:47:29Z</time>
      </trkpt>
      <trkpt lat="47.16295" lon="-1.62791">
        <ele>25</ele>
        <time>2011-03-20T09:47:34Z</time>
      </trkpt>
      <trkpt lat="47.16304" lon="-1.62749">
        <ele>24</ele>
        <time>2011-03-20T09:47:40Z</time>
      </trkpt>
      <trkpt lat="47.163" lon="-1.62731">
        <ele>24</ele>
        <time>2011-03-20T09:47:43Z</time>
      </trkpt>
      <trkpt lat="47.16298" lon="-1.62696">
        <ele>25</ele>
        <time>2011-03-20T09:47:48Z</time>
      </trkpt>
      <trkpt lat="47.163" lon="-1.62689">
        <ele>25</ele>
        <time>2011-03-20T09:47:49Z</time>
      </trkpt>
      <trkpt lat="47.16316" lon="-1.62624">
        <ele>25</ele>
        <time>2011-03-20T09:47:58Z</time>
      </trkpt>
      <trkpt lat="47.16318" lon="-1.62616">
        <ele>25</ele>
        <time>2011-03-20T09:47:59Z</time>
      </trkpt>
      <trkpt lat="47.16322" lon="-1.62583">
        <ele>25</ele>
        <time>2011-03-20T09:48:03Z</time>
      </trkpt>
      <trkpt lat="47.16334" lon="-1.6257">
        <ele>25</ele>
        <time>2011-03-20T09:48:06Z</time>
      </trkpt>
      <trkpt lat="47.1634" lon="-1.62572">
        <ele>25</ele>
        <time>2011-03-20T09:48:07Z</time>
      </trkpt>
      <trkpt lat="47.16361" lon="-1.62582">
        <ele>25</ele>
        <time>2011-03-20T09:48:12Z</time>
      </trkpt>
      <trkpt lat="47.16375" lon="-1.62573">
        <ele>25</ele>
        <time>2011-03-20T09:48:16Z</time>
      </trkpt>
      <trkpt lat="47.16399" lon="-1.62556">
        <ele>25</ele>
        <time>2011-03-20T09:48:22Z</time>
      </trkpt>
      <trkpt lat="47.16413" lon="-1.6254">
        <ele>24</ele>
        <time>2011-03-20T09:48:25Z</time>
      </trkpt>
      <trkpt lat="47.16439" lon="-1.62513">
        <ele>22</ele>
        <time>2011-03-20T09:48:30Z</time>
      </trkpt>
      <trkpt lat="47.16474" lon="-1.62481">
        <ele>19</ele>
        <time>2011-03-20T09:48:36Z</time>
      </trkpt>
      <trkpt lat="47.16499" lon="-1.6246">
        <ele>19</ele>
        <time>2011-03-20T09:48:40Z</time>
      </trkpt>
      <trkpt lat="47.16534" lon="-1.62406">
        <ele>16</ele>
        <time>2011-03-20T09:48:47Z</time>
      </trkpt>
      <trkpt lat="47.16565" lon="-1.62361">
        <ele>15</ele>
        <time>2011-03-20T09:48:53Z</time>
      </trkpt>
      <trkpt lat="47.16589" lon="-1.62336">
        <ele>16</ele>
        <time>2011-03-20T09:48:57Z</time>
      </trkpt>
      <trkpt lat="47.16632" lon="-1.62271">
        <ele>17</ele>
        <time>2011-03-20T09:49:06Z</time>
      </trkpt>
      <trkpt lat="47.16675" lon="-1.62204">
        <ele>20</ele>
        <time>2011-03-20T09:49:15Z</time>
      </trkpt>
      <trkpt lat="47.1672" lon="-1.62132">
        <ele>20</ele>
        <time>2011-03-20T09:49:24Z</time>
      </trkpt>
      <trkpt lat="47.1676" lon="-1.62068">
        <ele>20</ele>
        <time>2011-03-20T09:49:32Z</time>
      </trkpt>
      <trkpt lat="47.16773" lon="-1.62031">
        <ele>20</ele>
        <time>2011-03-20T09:49:36Z</time>
      </trkpt>
      <trkpt lat="47.16771" lon="-1.62">
        <ele>19</ele>
        <time>2011-03-20T09:49:39Z</time>
      </trkpt>
      <trkpt lat="47.16766" lon="-1.61982">
        <ele>19</ele>
        <time>2011-03-20T09:49:41Z</time>
      </trkpt>
      <trkpt lat="47.16766" lon="-1.61951">
        <ele>19</ele>
        <time>2011-03-20T09:49:45Z</time>
      </trkpt>
      <trkpt lat="47.16791" lon="-1.61918">
        <ele>19</ele>
        <time>2011-03-20T09:49:50Z</time>
      </trkpt>
      <trkpt lat="47.16813" lon="-1.61892">
        <ele>19</ele>
        <time>2011-03-20T09:49:54Z</time>
      </trkpt>
      <trkpt lat="47.16849" lon="-1.6186">
        <ele>19</ele>
        <time>2011-03-20T09:50:00Z</time>
      </trkpt>
      <trkpt lat="47.16891" lon="-1.61821">
        <ele>19</ele>
        <time>2011-03-20T09:50:07Z</time>
      </trkpt>
      <trkpt lat="47.16927" lon="-1.61791">
        <ele>19</ele>
        <time>2011-03-20T09:50:13Z</time>
      </trkpt>
      <trkpt lat="47.1695" lon="-1.61768">
        <ele>19</ele>
        <time>2011-03-20T09:50:17Z</time>
      </trkpt>
      <trkpt lat="47.16979" lon="-1.61722">
        <ele>18</ele>
        <time>2011-03-20T09:50:23Z</time>
      </trkpt>
      <trkpt lat="47.16995" lon="-1.6169">
        <ele>18</ele>
        <time>2011-03-20T09:50:27Z</time>
      </trkpt>
      <trkpt lat="47.17004" lon="-1.61639">
        <ele>18</ele>
        <time>2011-03-20T09:50:32Z</time>
      </trkpt>
      <trkpt lat="47.17006" lon="-1.6162">
        <ele>17</ele>
        <time>2011-03-20T09:50:34Z</time>
      </trkpt>
      <trkpt lat="47.17019" lon="-1.61587">
        <ele>17</ele>
        <time>2011-03-20T09:50:38Z</time>
      </trkpt>
      <trkpt lat="47.17021" lon="-1.61568">
        <ele>17</ele>
        <time>2011-03-20T09:50:40Z</time>
      </trkpt>
      <trkpt lat="47.17018" lon="-1.61558">
        <ele>17</ele>
        <time>2011-03-20T09:50:41Z</time>
      </trkpt>
      <trkpt lat="47.17002" lon="-1.615">
        <ele>15</ele>
        <time>2011-03-20T09:50:47Z</time>
      </trkpt>
      <trkpt lat="47.16988" lon="-1.61481">
        <ele>16</ele>
        <time>2011-03-20T09:50:50Z</time>
      </trkpt>
      <trkpt lat="47.16974" lon="-1.6148">
        <ele>16</ele>
        <time>2011-03-20T09:50:52Z</time>
      </trkpt>
      <trkpt lat="47.16928" lon="-1.61489">
        <ele>16</ele>
        <time>2011-03-20T09:50:58Z</time>
      </trkpt>
      <trkpt lat="47.16894" lon="-1.61493">
        <ele>15</ele>
        <time>2011-03-20T09:51:02Z</time>
      </trkpt>
      <trkpt lat="47.16856" lon="-1.61472">
        <ele>15</ele>
        <time>2011-03-20T09:51:07Z</time>
      </trkpt>
      <trkpt lat="47.1685" lon="-1.61465">
        <ele>15</ele>
        <time>2011-03-20T09:51:08Z</time>
      </trkpt>
      <trkpt lat="47.16819" lon="-1.61419">
        <ele>13</ele>
        <time>2011-03-20T09:51:14Z</time>
      </trkpt>
      <trkpt lat="47.16812" lon="-1.61403">
        <ele>12</ele>
        <time>2011-03-20T09:51:16Z</time>
      </trkpt>
      <trkpt lat="47.1681" lon="-1.6136">
        <ele>12</ele>
        <time>2011-03-20T09:51:21Z</time>
      </trkpt>
      <trkpt lat="47.16815" lon="-1.61342">
        <ele>13</ele>
        <time>2011-03-20T09:51:23Z</time>
      </trkpt>
      <trkpt lat="47.16825" lon="-1.61305">
        <ele>12</ele>
        <time>2011-03-20T09:51:27Z</time>
      </trkpt>
      <trkpt lat="47.16826" lon="-1.61261">
        <ele>11</ele>
        <time>2011-03-20T09:51:32Z</time>
      </trkpt>
      <trkpt lat="47.16815" lon="-1.61252">
        <ele>11</ele>
        <time>2011-03-20T09:51:34Z</time>
      </trkpt>
      <trkpt lat="47.16759" lon="-1.61217">
        <ele>13</ele>
        <time>2011-03-20T09:51:43Z</time>
      </trkpt>
      <trkpt lat="47.1672" lon="-1.61192">
        <ele>16</ele>
        <time>2011-03-20T09:51:51Z</time>
      </trkpt>
      <trkpt lat="47.1669" lon="-1.61175">
        <ele>17</ele>
        <time>2011-03-20T09:51:58Z</time>
      </trkpt>
      <trkpt lat="47.16686" lon="-1.61172">
        <ele>17</ele>
        <time>2011-03-20T09:51:59Z</time>
      </trkpt>
      <trkpt lat="47.16667" lon="-1.61153">
        <ele>19</ele>
        <time>2011-03-20T09:52:04Z</time>
      </trkpt>
      <trkpt lat="47.16648" lon="-1.61144">
        <ele>20</ele>
        <time>2011-03-20T09:52:09Z</time>
      </trkpt>
      <trkpt lat="47.16633" lon="-1.61133">
        <ele>20</ele>
        <time>2011-03-20T09:52:14Z</time>
      </trkpt>
      <trkpt lat="47.16617" lon="-1.61116">
        <ele>20</ele>
        <time>2011-03-20T09:52:19Z</time>
      </trkpt>
      <trkpt lat="47.16602" lon="-1.61097">
        <ele>20</ele>
        <time>2011-03-20T09:52:24Z</time>
      </trkpt>
      <trkpt lat="47.16591" lon="-1.61078">
        <ele>21</ele>
        <time>2011-03-20T09:52:29Z</time>
      </trkpt>
      <trkpt lat="47.16583" lon="-1.61082">
        <ele>21</ele>
        <time>2011-03-20T09:52:33Z</time>
      </trkpt>
      <trkpt lat="47.16571" lon="-1.61102">
        <ele>20</ele>
        <time>2011-03-20T09:52:38Z</time>
      </trkpt>
      <trkpt lat="47.16564" lon="-1.61128">
        <ele>20</ele>
        <time>2011-03-20T09:52:42Z</time>
      </trkpt>
      <trkpt lat="47.16561" lon="-1.61134">
        <ele>20</ele>
        <time>2011-03-20T09:52:43Z</time>
      </trkpt>
      <trkpt lat="47.16554" lon="-1.61161">
        <ele>20</ele>
        <time>2011-03-20T09:52:47Z</time>
      </trkpt>
      <trkpt lat="47.16551" lon="-1.61175">
        <ele>17</ele>
        <time>2011-03-20T09:52:49Z</time>
      </trkpt>
      <trkpt lat="47.16542" lon="-1.61179">
        <ele>17</ele>
        <time>2011-03-20T09:52:51Z</time>
      </trkpt>
      <trkpt lat="47.16524" lon="-1.6118">
        <ele>17</ele>
        <time>2011-03-20T09:52:56Z</time>
      </trkpt>
      <trkpt lat="47.16509" lon="-1.61196">
        <ele>17</ele>
        <time>2011-03-20T09:53:01Z</time>
      </trkpt>
      <trkpt lat="47.16506" lon="-1.61196">
        <ele>17</ele>
        <time>2011-03-20T09:53:02Z</time>
      </trkpt>
      <trkpt lat="47.16489" lon="-1.61209">
        <ele>17</ele>
        <time>2011-03-20T09:53:07Z</time>
      </trkpt>
      <trkpt lat="47.16481" lon="-1.61215">
        <ele>17</ele>
        <time>2011-03-20T09:53:09Z</time>
      </trkpt>
      <trkpt lat="47.16469" lon="-1.6122">
        <ele>17</ele>
        <time>2011-03-20T09:53:12Z</time>
      </trkpt>
      <trkpt lat="47.16466" lon="-1.6122">
        <ele>17</ele>
        <time>2011-03-20T09:53:13Z</time>
      </trkpt>
      <trkpt lat="47.16457" lon="-1.61199">
        <ele>17</ele>
        <time>2011-03-20T09:53:18Z</time>
      </trkpt>
      <trkpt lat="47.16454" lon="-1.61184">
        <ele>18</ele>
        <time>2011-03-20T09:53:21Z</time>
      </trkpt>
      <trkpt lat="47.16453" lon="-1.61165">
        <ele>19</ele>
        <time>2011-03-20T09:53:25Z</time>
      </trkpt>
      <trkpt lat="47.16452" lon="-1.61144">
        <ele>19</ele>
        <time>2011-03-20T09:53:30Z</time>
      </trkpt>
      <trkpt lat="47.16454" lon="-1.61124">
        <ele>19</ele>
        <time>2011-03-20T09:53:34Z</time>
      </trkpt>
      <trkpt lat="47.16458" lon="-1.61101">
        <ele>19</ele>
        <time>2011-03-20T09:53:39Z</time>
      </trkpt>
      <trkpt lat="47.16463" lon="-1.61073">
        <ele>20</ele>
        <time>2011-03-20T09:53:44Z</time>
      </trkpt>
      <trkpt lat="47.16468" lon="-1.61034">
        <ele>20</ele>
        <time>2011-03-20T09:53:51Z</time>
      </trkpt>
      <trkpt lat="47.16477" lon="-1.61005">
        <ele>20</ele>
        <time>2011-03-20T09:53:57Z</time>
      </trkpt>
      <trkpt lat="47.16489" lon="-1.60983">
        <ele>21</ele>
        <time>2011-03-20T09:54:03Z</time>
      </trkpt>
      <trkpt lat="47.16501" lon="-1.6096">
        <ele>22</ele>
        <time>2011-03-20T09:54:10Z</time>
      </trkpt>
      <trkpt lat="47.16514" lon="-1.60935">
        <ele>22</ele>
        <time>2011-03-20T09:54:16Z</time>
      </trkpt>
      <trkpt lat="47.16524" lon="-1.60906">
        <ele>23</ele>
        <time>2011-03-20T09:54:22Z</time>
      </trkpt>
      <trkpt lat="47.16531" lon="-1.60875">
        <ele>23</ele>
        <time>2011-03-20T09:54:28Z</time>
      </trkpt>
      <trkpt lat="47.16542" lon="-1.60836">
        <ele>23</ele>
        <time>2011-03-20T09:54:36Z</time>
      </trkpt>
      <trkpt lat="47.16545" lon="-1.60828">
        <ele>24</ele>
        <time>2011-03-20T09:54:38Z</time>
      </trkpt>
      <trkpt lat="47.16555" lon="-1.60827">
        <ele>24</ele>
        <time>2011-03-20T09:54:42Z</time>
      </trkpt>
      <trkpt lat="47.16568" lon="-1.60845">
        <ele>24</ele>
        <time>2011-03-20T09:54:47Z</time>
      </trkpt>
      <trkpt lat="47.1659" lon="-1.60894">
        <ele>23</ele>
        <time>2011-03-20T09:54:56Z</time>
      </trkpt>
      <trkpt lat="47.16613" lon="-1.60948">
        <ele>23</ele>
        <time>2011-03-20T09:55:04Z</time>
      </trkpt>
      <trkpt lat="47.16625" lon="-1.60978">
        <ele>23</ele>
        <time>2011-03-20T09:55:08Z</time>
      </trkpt>
      <trkpt lat="47.16641" lon="-1.60988">
        <ele>23</ele>
        <time>2011-03-20T09:55:12Z</time>
      </trkpt>
      <trkpt lat="47.16644" lon="-1.60984">
        <ele>23</ele>
        <time>2011-03-20T09:55:13Z</time>
      </trkpt>
      <trkpt lat="47.16672" lon="-1.60943">
        <ele>23</ele>
        <time>2011-03-20T09:55:20Z</time>
      </trkpt>
      <trkpt lat="47.16676" lon="-1.60938">
        <ele>23</ele>
        <time>2011-03-20T09:55:21Z</time>
      </trkpt>
      <trkpt lat="47.16691" lon="-1.60926">
        <ele>23</ele>
        <time>2011-03-20T09:55:24Z</time>
      </trkpt>
      <trkpt lat="47.16711" lon="-1.60918">
        <ele>23</ele>
        <time>2011-03-20T09:55:28Z</time>
      </trkpt>
      <trkpt lat="47.16735" lon="-1.60906">
        <ele>24</ele>
        <time>2011-03-20T09:55:33Z</time>
      </trkpt>
      <trkpt lat="47.16744" lon="-1.609">
        <ele>24</ele>
        <time>2011-03-20T09:55:35Z</time>
      </trkpt>
      <trkpt lat="47.16777" lon="-1.60867">
        <ele>24</ele>
        <time>2011-03-20T09:55:43Z</time>
      </trkpt>
      <trkpt lat="47.16798" lon="-1.60845">
        <ele>24</ele>
        <time>2011-03-20T09:55:48Z</time>
      </trkpt>
      <trkpt lat="47.16824" lon="-1.60838">
        <ele>23</ele>
        <time>2011-03-20T09:55:53Z</time>
      </trkpt>
      <trkpt lat="47.16829" lon="-1.60841">
        <ele>23</ele>
        <time>2011-03-20T09:55:54Z</time>
      </trkpt>
      <trkpt lat="47.16865" lon="-1.60864">
        <ele>22</ele>
        <time>2011-03-20T09:56:01Z</time>
      </trkpt>
      <trkpt lat="47.16892" lon="-1.60876">
        <ele>22</ele>
        <time>2011-03-20T09:56:06Z</time>
      </trkpt>
      <trkpt lat="47.16913" lon="-1.60868">
        <ele>21</ele>
        <time>2011-03-20T09:56:10Z</time>
      </trkpt>
      <trkpt lat="47.16956" lon="-1.60828">
        <ele>21</ele>
        <time>2011-03-20T09:56:19Z</time>
      </trkpt>
      <trkpt lat="47.16982" lon="-1.60794">
        <ele>22</ele>
        <time>2011-03-20T09:56:25Z</time>
      </trkpt>
      <trkpt lat="47.16994" lon="-1.60777">
        <ele>22</ele>
        <time>2011-03-20T09:56:28Z</time>
      </trkpt>
      <trkpt lat="47.17002" lon="-1.60766">
        <ele>22</ele>
        <time>2011-03-20T09:56:30Z</time>
      </trkpt>
      <trkpt lat="47.17022" lon="-1.60751">
        <ele>22</ele>
        <time>2011-03-20T09:56:34Z</time>
      </trkpt>
      <trkpt lat="47.17067" lon="-1.60724">
        <ele>23</ele>
        <time>2011-03-20T09:56:43Z</time>
      </trkpt>
      <trkpt lat="47.17113" lon="-1.60694">
        <ele>24</ele>
        <time>2011-03-20T09:56:53Z</time>
      </trkpt>
      <trkpt lat="47.17128" lon="-1.60685">
        <ele>24</ele>
        <time>2011-03-20T09:56:56Z</time>
      </trkpt>
      <trkpt lat="47.17164" lon="-1.60663">
        <ele>26</ele>
        <time>2011-03-20T09:57:04Z</time>
      </trkpt>
      <trkpt lat="47.17205" lon="-1.60642">
        <ele>23</ele>
        <time>2011-03-20T09:57:12Z</time>
      </trkpt>
      <trkpt lat="47.17242" lon="-1.60629">
        <ele>22</ele>
        <time>2011-03-20T09:57:19Z</time>
      </trkpt>
      <trkpt lat="47.17272" lon="-1.60614">
        <ele>21</ele>
        <time>2011-03-20T09:57:25Z</time>
      </trkpt>
      <trkpt lat="47.17277" lon="-1.60613">
        <ele>21</ele>
        <time>2011-03-20T09:57:26Z</time>
      </trkpt>
      <trkpt lat="47.17295" lon="-1.60602">
        <ele>21</ele>
        <time>2011-03-20T09:57:29Z</time>
      </trkpt>
      <trkpt lat="47.1731" lon="-1.60601">
        <ele>21</ele>
        <time>2011-03-20T09:57:35Z</time>
      </trkpt>
      <trkpt lat="47.17311" lon="-1.60602">
        <ele>21</ele>
        <time>2011-03-20T09:57:38Z</time>
      </trkpt>
    </trkseg>
  </trk>
</gpx>